GFSCGP_925_spd_000.txt.gz
Wind_Speed
11 7 11 12 12 13 9 8 10 5 7 2 8 10 2 5 9 5 9 10 10 10 10 21 22 21 19 16 14 17 24 25 27 27 25 24 26 26 26 30 32 31 32 33
11 12 11 13 11 3 7 7 8 2 4 2 8 6 4 4 5 6 10 10 9 8 9 10 18 21 21 19 17 14 13 15 23 28 27 26 25 24 30 31 35 36 34 33
13 11 9 6 5 4 6 6 5 4 2 8 6 5 6 5 9 9 9 8 7 8 8 8 11 20 21 22 18 14 13 12 11 14 22 21 23 24 22 28 28 28 29 30
11 1 8 7 6 7 6 2 2 5 6 2 7 2 6 7 7 9 9 6 7 8 8 7 9 16 19 19 18 16 11 7 8 6 10 18 20 18 23 24 24 25 25 30
3 8 8 6 7 2 2 2 2 4 6 6 6 1 6 10 8 8 8 7 7 8 7 8 8 13 16 19 19 21 18 16 11 9 9 11 16 22 24 24 23 23 25 27
5 2 4 1 4 1 0 4 6 5 3 3 3 2 5 10 10 8 7 7 7 7 8 7 10 12 15 18 20 20 19 19 16 13 11 11 14 18 19 22 22 23 23 23
5 4 3 1 4 3 5 4 1 2 2 3 3 1 7 6 12 10 10 9 7 8 6 6 6 8 15 20 22 22 22 23 22 20 19 17 16 16 17 19 20 20 22 21
5 2 6 5 2 4 7 2 2 3 3 2 2 4 2 9 10 10 9 8 7 7 6 6 6 9 13 16 19 20 20 20 21 22 21 20 19 19 19 19 20 21 22 23
6 4 3 4 3 4 3 3 1 4 1 1 3 4 5 10 9 10 8 8 7 6 5 6 5 7 10 12 12 13 15 15 18 18 18 19 20 21 20 20 19 20 21 22
4 6 3 2 3 1 2 4 1 2 2 3 4 3 4 8 8 9 9 7 7 6 7 5 4 6 7 7 10 12 13 15 16 18 19 19 19 19 20 22 22 23 24 23
5 3 3 3 5 2 2 2 3 1 0 1 1 3 5 6 8 10 8 7 7 7 6 3 2 2 2 7 10 12 14 15 16 18 19 22 23 23 23 24 25 27 28 29
1 2 4 2 2 2 2 3 7 2 1 3 3 6 5 9 9 8 7 7 7 7 5 4 2 2 8 6 9 17 20 20 19 19 21 20 21 22 23 24 25 26 27 28
3 1 4 2 2 3 2 2 3 5 2 3 3 4 2 7 8 6 8 7 7 6 4 3 3 4 9 13 15 18 19 19 19 21 20 21 21 22 23 25 26 27 28 30
2 2 3 2 5 2 3 2 3 3 2 3 8 9 9 5 6 5 3 7 8 7 6 2 4 7 12 14 18 19 19 19 20 21 21 22 22 23 25 26 28 29 29 30
3 2 5 5 3 2 5 8 8 10 12 6 15 12 14 11 12 12 4 7 5 5 6 7 6 6 10 15 17 18 17 20 23 22 22 24 22 25 27 30 31 32 31 31
3 1 3 2 7 4 6 11 11 14 17 15 16 20 18 15 3 3 4 6 6 6 7 6 6 9 14 18 17 17 20 22 22 21 22 23 22 23 25 26 27 28 29 30
2 1 3 3 4 4 9 12 14 10 11 8 12 16 9 4 5 5 5 2 5 8 7 6 8 11 12 15 16 17 20 22 23 22 23 22 25 25 26 27 27 27 27 28
2 3 1 3 4 3 7 5 6 5 7 10 11 9 6 1 4 5 6 2 6 8 9 8 8 11 14 15 16 18 20 22 22 23 21 23 24 25 27 27 27 29 29 28
3 2 3 3 4 8 10 5 2 1 5 6 7 9 2 6 5 6 6 11 10 9 8 10 11 11 12 12 16 16 18 18 20 18 21 23 24 26 26 27 29 29 30 27
1 3 2 3 3 5 2 5 7 4 5 4 6 6 5 5 2 1 7 9 9 11 11 12 11 11 11 12 12 13 14 17 15 19 21 23 25 26 27 28 30 30 29 31
3 3 6 6 4 6 9 9 4 1 3 2 3 5 4 4 3 5 8 9 14 13 12 10 8 7 8 9 11 12 15 16 20 22 23 24 25 27 27 29 31 29 33 30
6 6 4 3 3 6 3 5 2 4 4 2 4 3 2 4 7 8 8 7 8 7 5 4 3 5 8 11 13 15 17 21 23 24 25 26 27 28 28 29 28 31 29 32
4 5 2 6 5 4 1 3 6 10 7 6 7 4 4 4 7 7 6 6 5 4 2 3 6 8 10 13 15 19 21 23 23 23 24 24 26 26 27 27 29 30 26 28
5 7 6 7 2 5 10 12 9 7 5 6 6 6 5 3 6 5 4 2 1 1 3 6 8 11 13 15 17 18 22 23 23 23 24 24 25 27 26 27 25 27 27 25
4 8 4 7 12 12 9 4 5 2 4 3 3 3 2 4 5 4 4 2 1 2 5 8 10 13 15 17 19 20 22 22 23 23 24 25 24 25 28 26 27 27 26 26
6 8 4 7 9 11 11 8 3 5 5 5 5 3 4 2 3 3 1 1 1 3 7 10 12 15 18 20 22 23 23 22 24 23 22 23 25 25 27 27 29 27 28 31

GFSCGP_925_spd_003.txt.gz
Wind_Speed
10 4 9 13 8 5 5 4 7 3 1 4 6 7 12 5 7 9 7 8 8 8 5 22 24 22 19 16 10 11 4 25 34 34 31 30 32 32 30 30 31 33 32 32
7 9 12 9 11 9 9 7 6 3 5 4 4 7 3 4 5 7 8 8 8 7 9 10 18 21 24 23 21 15 12 13 8 28 33 31 32 28 31 30 32 33 34 34
11 8 9 13 6 10 6 2 1 3 5 3 2 7 3 5 6 6 6 6 6 7 6 6 10 19 22 25 24 22 18 12 16 2 19 22 17 18 20 21 25 27 29 32
7 6 13 8 7 6 4 4 3 3 5 3 5 4 3 6 5 5 7 7 6 6 5 5 9 17 19 19 21 22 22 23 19 16 13 6 11 16 21 23 23 25 27 29
7 8 11 7 7 6 4 1 2 1 1 3 3 3 6 6 5 6 7 7 6 6 6 7 8 13 16 18 21 22 22 24 21 18 16 15 14 14 15 15 17 19 20 21
6 4 6 7 3 5 5 1 2 3 3 1 6 6 4 9 9 6 5 7 8 7 7 7 12 14 17 18 18 20 22 23 22 21 20 19 18 17 17 17 17 18 19 19
5 3 0 3 5 3 4 5 1 2 1 5 3 2 8 12 12 12 10 9 7 7 7 7 7 10 13 16 16 17 19 20 20 20 20 20 20 20 19 20 20 21 22 23
5 3 5 2 4 5 5 7 4 3 3 4 2 5 6 12 10 10 9 9 8 8 7 6 5 7 9 10 12 14 15 17 19 20 20 20 20 21 21 21 20 21 23 24
5 1 1 3 2 3 4 4 4 2 2 2 3 4 5 7 9 9 9 8 8 8 7 7 6 5 4 7 10 11 14 16 20 21 22 23 23 22 22 22 22 24 25 25
4 5 1 1 2 2 3 1 2 2 3 2 5 3 3 6 8 7 8 9 7 7 8 7 6 4 2 5 10 18 21 23 23 23 24 23 23 23 24 24 26 26 28 28
2 4 2 3 4 5 2 1 1 2 4 4 2 5 5 7 8 10 8 8 9 7 7 6 4 2 3 12 20 21 23 24 25 25 24 24 24 23 23 24 26 28 29 31
1 5 4 2 2 2 2 4 5 4 1 1 4 5 3 5 9 9 9 8 6 8 7 6 4 7 15 17 20 22 22 22 22 22 23 23 24 25 27 29 31 32 30 30
0 3 4 4 3 2 3 2 3 3 2 3 3 5 1 2 6 5 7 7 7 7 6 5 8 9 15 17 20 21 21 21 23 25 25 26 27 28 29 32 34 35 34 34
1 3 3 5 4 4 4 3 3 5 3 4 7 5 5 4 3 3 5 9 8 7 7 6 6 9 16 18 19 19 19 21 22 23 24 26 26 27 30 33 33 33 34 34
3 3 3 2 2 1 4 6 6 7 5 6 2 8 8 5 6 6 6 8 8 8 8 7 7 7 13 17 18 18 19 19 20 20 23 22 24 29 31 31 31 32 33 34
4 2 3 2 3 4 6 8 9 10 8 8 9 17 9 8 4 4 8 8 8 8 7 8 7 8 12 14 13 14 15 18 18 22 23 23 28 30 29 30 31 30 31 31
3 3 3 0 4 5 8 8 10 4 3 5 7 9 5 3 4 3 3 8 9 8 9 8 7 9 10 10 10 12 16 19 22 23 22 26 28 27 28 30 30 30 31 31
3 4 3 2 3 2 4 4 5 7 5 5 5 7 5 3 3 6 2 7 9 9 8 7 8 9 8 8 10 12 17 18 21 20 24 27 28 28 29 30 30 31 30 31
3 4 3 4 3 7 6 5 4 3 4 2 1 4 4 2 3 5 6 7 8 8 9 11 10 7 5 8 11 15 16 17 19 19 23 25 27 27 28 28 29 30 30 30
3 5 4 3 3 4 4 1 2 3 4 3 1 1 4 1 5 3 5 7 9 12 11 9 7 4 4 8 10 12 13 15 18 20 23 24 26 26 27 29 29 30 30 31
3 2 4 3 2 7 7 5 1 2 4 7 4 4 3 5 4 6 8 8 11 11 8 6 4 4 6 8 9 10 13 17 18 21 23 24 24 27 26 28 30 30 29 30
6 5 4 3 3 6 1 2 2 2 4 5 6 6 6 6 8 9 8 7 6 6 4 4 2 3 6 9 11 13 16 19 20 22 24 26 27 27 27 29 29 27 28 25
2 5 4 7 5 5 5 5 3 2 3 2 3 4 3 7 5 8 8 9 7 6 3 4 3 5 8 11 13 16 21 22 23 24 27 27 28 27 26 26 27 25 24 24
3 2 3 2 1 1 3 5 6 6 6 5 3 2 3 3 3 0 3 4 5 5 4 3 4 8 11 13 16 20 23 23 24 26 26 26 25 26 25 24 22 24 23 24
5 2 2 6 9 6 2 2 4 4 4 4 3 3 3 3 2 3 1 2 4 3 2 3 7 10 14 17 21 23 24 24 25 24 24 23 23 25 26 25 25 26 26 25
5 7 5 6 4 3 5 6 4 5 5 8 7 4 2 2 4 2 3 4 4 2 3 7 10 13 17 20 23 26 25 24 24 25 23 24 26 25 25 25 29 27 28 30

GFSCGP_925_spd_006.txt.gz
Wind_Speed
10 4 10 12 9 5 4 3 4 8 9 7 8 6 11 3 5 8 6 6 6 5 2 13 17 18 19 20 15 11 15 4 22 27 28 29 31 33 33 33 32 32 32 31
5 17 12 9 6 5 5 7 9 9 4 1 1 8 7 3 4 5 8 6 5 4 7 10 17 20 24 24 24 20 15 18 7 18 24 19 18 23 31 31 29 29 30 30
8 8 12 9 5 9 7 8 5 6 6 4 1 6 3 3 3 4 3 5 5 6 7 8 12 18 22 25 25 25 22 21 19 8 9 12 11 9 11 14 18 21 22 25
5 5 15 11 11 8 8 9 8 3 2 3 2 4 3 4 5 3 5 6 6 7 6 6 8 17 20 22 25 26 27 27 26 21 18 16 12 9 10 11 11 12 12 14
8 12 15 12 10 9 10 6 2 0 1 3 2 1 6 6 6 7 7 7 6 6 6 6 6 13 17 20 23 24 26 28 27 27 25 23 21 18 16 17 18 18 18 18
2 7 9 9 5 7 6 4 7 4 2 2 7 7 4 8 10 6 4 6 8 7 6 5 8 13 16 17 19 21 24 25 24 24 24 24 23 21 22 21 21 22 22 22
4 3 1 4 5 2 5 6 1 1 1 6 1 3 8 9 8 15 11 9 8 7 6 6 6 7 11 14 16 16 19 22 22 23 25 24 22 21 21 20 21 22 25 25
6 9 8 5 6 7 6 7 5 6 4 3 1 6 6 5 4 9 10 9 8 7 6 6 6 6 8 10 12 16 19 21 21 22 21 20 19 20 20 21 22 22 24 25
7 4 1 1 3 6 5 4 4 2 1 2 3 6 3 7 8 10 10 8 8 7 7 7 6 7 7 12 15 17 18 20 22 23 22 22 22 22 22 22 22 25 26 28
5 5 1 2 3 2 4 4 2 2 3 4 4 5 4 2 7 8 9 9 7 6 6 5 4 5 10 16 17 18 18 19 19 19 20 20 20 21 22 23 25 28 30 31
6 4 1 3 4 7 2 2 2 3 4 4 1 5 5 8 8 13 9 8 9 8 7 6 4 10 17 16 17 17 17 18 19 19 19 19 20 22 23 26 28 29 29 29
2 5 4 3 1 1 3 7 5 4 3 1 3 5 4 1 7 8 9 9 5 6 7 5 9 17 16 15 14 15 16 17 17 17 18 20 21 23 27 29 30 30 30 31
5 3 4 3 4 2 4 4 4 4 3 4 5 5 4 6 6 2 6 5 7 6 7 7 8 10 12 11 12 13 15 15 16 17 19 19 22 25 27 28 29 30 31 31
2 3 5 7 4 5 5 5 5 5 4 3 5 2 1 2 4 4 6 8 6 7 8 7 6 7 10 10 10 12 12 14 15 17 17 18 22 25 27 28 30 31 31 30
3 4 2 3 3 3 4 6 8 7 4 6 1 5 3 6 6 7 8 5 9 8 7 7 6 5 7 8 9 9 12 15 16 16 15 19 23 25 27 29 30 30 30 30
3 3 2 2 4 2 3 5 6 5 4 6 2 11 5 6 4 2 2 7 8 8 7 7 6 7 6 6 6 8 10 11 12 13 16 21 26 29 29 30 31 31 32 33
3 3 2 2 3 5 5 6 5 4 4 5 4 5 4 5 5 5 3 6 8 7 7 7 6 6 5 4 5 7 9 10 13 14 19 24 27 28 28 29 29 29 30 31
4 4 2 2 2 1 1 4 6 5 3 3 4 5 3 3 3 3 4 7 8 8 6 5 6 4 3 2 4 6 8 12 16 18 22 26 27 27 28 28 27 30 29 29
3 4 3 3 2 5 2 3 3 3 2 2 4 1 0 3 3 3 3 2 5 6 7 8 6 4 2 2 5 8 12 17 21 22 24 26 27 28 28 28 30 31 29 30
5 6 4 3 3 5 3 2 2 2 2 3 2 3 2 1 4 4 3 5 8 12 11 7 4 2 2 7 9 12 15 18 20 21 23 24 25 27 29 29 29 28 29 29
3 3 5 3 2 6 6 6 1 4 3 3 3 4 5 2 3 1 7 5 9 11 10 6 3 3 6 8 11 13 15 17 18 20 22 24 25 28 25 27 28 29 29 28
6 6 4 3 2 7 2 1 3 3 2 3 4 3 3 3 4 4 6 9 9 7 7 4 2 4 5 8 10 12 15 18 20 22 24 26 27 27 26 28 29 27 27 25
2 5 4 7 5 1 3 5 3 4 4 3 2 3 3 6 7 7 4 3 4 4 5 3 3 2 5 8 9 13 18 20 21 23 26 27 29 27 25 26 26 25 23 23
2 2 2 1 1 6 4 2 1 4 5 6 4 3 1 4 5 7 6 5 4 5 4 2 1 4 7 9 12 15 19 20 22 25 27 27 24 23 24 24 22 23 22 22
5 2 2 3 6 3 4 4 6 5 4 2 2 4 6 4 2 2 3 4 6 8 4 1 3 6 9 12 16 18 20 21 23 25 25 22 21 22 23 24 24 25 24 22
4 6 4 4 4 3 3 1 2 3 3 7 8 4 1 2 2 3 3 5 6 4 2 3 6 8 12 15 19 21 21 21 23 23 21 21 22 22 23 25 29 26 25 28

GFSCGP_925_spd_009.txt.gz
Wind_Speed
8 6 13 12 12 4 4 4 3 5 6 5 9 10 14 6 3 5 6 6 6 6 4 13 19 23 24 25 21 19 18 12 9 17 20 21 26 28 29 29 29 30 29 29
6 20 15 7 4 5 3 2 5 8 4 4 3 9 10 4 4 5 7 6 5 5 6 9 18 23 26 25 25 24 24 23 13 5 10 8 5 8 11 13 16 18 22 24
12 9 11 13 8 6 5 5 4 6 8 3 5 7 6 2 1 3 3 4 5 6 6 6 10 19 23 25 26 27 28 27 25 16 4 3 5 7 13 15 15 14 13 14
8 5 13 10 8 9 9 8 4 6 4 3 3 5 5 4 4 4 5 5 6 7 4 4 8 14 20 22 24 27 29 30 29 27 27 25 22 16 15 16 17 18 18 17
7 9 14 9 6 8 8 6 7 5 4 3 2 2 6 3 7 8 7 7 6 7 6 6 7 13 16 19 22 24 26 27 26 25 24 23 22 19 18 19 18 18 18 19
3 7 11 14 5 9 2 4 5 3 3 2 8 7 5 5 10 5 4 6 8 7 6 5 9 12 15 17 20 22 25 25 24 24 24 23 22 20 21 21 22 22 22 22
2 9 5 6 6 3 5 5 1 2 1 6 1 3 9 5 7 11 12 10 8 7 7 6 6 8 13 16 17 20 21 23 21 22 21 21 20 19 20 19 20 22 24 26
7 6 10 5 7 8 7 7 5 6 4 4 4 6 6 5 6 9 10 9 7 7 6 6 6 9 12 13 16 18 19 20 19 19 19 18 18 18 18 19 20 22 23 25
5 4 3 2 4 9 5 4 5 2 0 1 4 7 4 5 5 7 11 9 9 8 7 7 7 11 12 16 16 15 17 18 18 17 16 17 18 18 19 19 21 23 25 25
7 5 2 2 3 3 6 7 3 2 3 4 4 5 5 2 3 4 9 10 8 6 7 6 6 11 15 15 15 15 15 16 15 15 16 17 18 19 20 22 24 25 26 27
6 4 2 5 4 7 2 2 4 4 4 3 2 6 5 4 8 11 9 9 8 7 7 6 7 14 15 14 13 13 13 13 14 15 16 16 19 21 23 25 26 27 27 28
3 5 4 2 0 2 2 7 6 4 4 2 3 5 4 6 7 7 8 4 4 6 7 6 10 14 13 12 11 11 11 13 14 14 14 16 20 23 25 27 27 28 29 29
6 1 4 3 4 2 4 5 4 4 3 5 5 5 4 6 6 3 5 6 7 7 7 7 8 9 11 10 8 9 11 12 12 13 14 18 22 24 25 26 27 27 28 29
6 3 6 9 6 6 5 5 5 6 4 4 6 4 4 7 6 3 4 6 5 6 7 6 6 7 9 8 7 8 9 12 14 14 16 19 21 22 23 24 25 27 28 29
3 4 3 2 5 4 5 6 9 7 5 6 3 6 3 1 4 4 5 2 7 7 7 7 6 5 7 6 5 8 12 13 13 12 15 18 20 21 23 25 27 28 30 31
2 2 3 1 3 4 1 2 7 4 3 4 3 5 5 2 1 3 3 2 4 6 7 7 6 7 6 5 6 7 9 11 13 14 16 19 21 23 25 27 29 30 32 32
2 5 3 2 3 2 4 8 7 4 4 6 5 3 2 3 4 2 1 4 6 6 7 8 7 7 6 5 5 8 8 10 13 13 16 20 22 25 27 28 29 30 30 30
4 3 3 2 2 2 2 3 4 5 3 3 6 4 3 4 3 1 2 4 7 9 8 7 8 8 6 4 5 6 7 9 12 14 17 20 23 24 26 27 28 29 28 27
5 4 3 4 3 3 2 3 5 5 2 3 4 4 4 2 2 3 2 3 2 5 7 10 9 7 5 3 3 3 6 10 13 16 19 21 22 25 28 28 29 29 29 28
5 5 3 2 3 5 2 1 2 4 1 2 3 3 2 4 2 4 1 2 5 11 13 11 8 6 3 1 2 4 7 11 15 18 19 21 22 24 26 25 28 28 27 26
2 2 4 2 2 5 5 3 1 4 4 2 4 3 2 3 4 3 5 3 7 10 10 9 6 4 2 1 3 4 9 13 17 18 20 21 22 24 24 25 27 29 28 26
6 5 3 3 2 6 0 2 5 4 3 5 4 3 2 2 1 2 3 5 6 8 8 5 4 3 2 2 5 9 13 16 17 19 21 22 24 23 23 24 28 27 26 23
2 5 4 7 4 2 2 4 4 5 5 4 1 3 3 4 4 4 5 6 6 8 7 4 2 2 1 4 8 12 15 17 19 20 23 25 25 24 22 25 27 25 22 21
1 2 3 2 2 3 3 3 3 2 3 2 2 2 3 2 2 4 2 4 5 7 6 3 2 2 5 8 10 11 15 17 19 22 25 26 25 24 26 25 22 21 21 21
3 4 4 1 1 4 2 1 2 3 0 1 1 1 1 2 3 2 2 3 5 6 3 1 2 4 7 10 13 15 17 18 21 23 25 25 25 24 27 23 23 23 23 21
4 6 4 4 5 4 3 4 2 3 3 0 2 3 3 2 2 3 3 4 6 5 3 2 3 6 9 13 16 17 18 18 20 23 21 23 21 23 22 24 27 23 22 26

GFSCGP_925_spd_012.txt.gz
Wind_Speed
14 6 13 15 13 3 6 4 5 4 4 3 7 8 15 8 5 5 5 4 3 6 3 12 18 21 22 22 21 24 25 19 7 3 4 7 10 13 13 12 12 12 13 14
8 17 15 7 7 4 3 4 4 7 1 3 8 10 12 8 6 4 8 6 4 4 6 9 17 21 22 24 28 29 29 26 20 12 8 5 8 13 16 15 15 16 15 15
5 10 14 11 6 10 3 5 3 6 7 4 6 8 6 3 1 5 5 5 4 6 7 5 10 17 21 27 28 30 30 29 26 21 15 14 16 19 22 23 22 20 19 19
7 5 16 13 13 7 8 7 3 3 4 4 5 6 6 6 4 5 6 6 6 7 3 4 7 14 19 21 24 26 27 27 26 24 26 26 24 21 17 17 17 18 19 19
5 11 13 17 16 10 4 6 6 3 3 2 1 2 7 2 5 6 7 7 6 6 6 6 7 14 16 18 22 24 26 26 25 25 25 24 22 18 17 18 19 21 21 21
3 5 10 7 6 9 5 4 4 3 2 2 6 7 5 4 6 4 4 7 8 7 6 5 10 14 16 18 20 22 25 24 23 23 23 23 22 21 22 23 24 24 25 25
1 3 2 6 7 3 4 4 0 1 1 5 1 2 8 5 5 8 13 10 8 7 7 6 7 10 14 17 18 20 22 22 21 22 22 22 21 21 22 23 24 26 28 28
8 6 6 4 5 6 6 7 5 6 4 4 3 6 6 2 6 7 9 11 8 8 7 7 7 11 15 17 17 18 19 20 19 19 20 19 19 19 19 20 20 21 21 22
12 5 4 5 6 11 5 8 4 4 2 1 3 7 9 4 6 3 9 12 10 8 7 7 8 11 16 16 15 16 17 18 17 17 16 18 18 19 18 18 20 22 22 23
6 4 1 3 6 2 7 8 2 2 3 4 4 5 5 6 4 2 7 10 8 7 7 6 7 14 16 15 15 15 16 17 15 15 15 15 17 18 19 20 22 22 22 23
6 4 3 5 6 8 3 3 4 4 4 4 1 5 5 6 5 8 6 6 8 8 7 7 7 13 15 14 13 14 15 14 15 14 14 17 19 19 19 20 21 22 22 23
3 6 5 4 1 5 5 7 6 4 4 1 3 6 2 6 6 6 8 6 6 6 7 7 10 15 13 13 13 14 13 14 14 13 15 16 18 20 21 21 21 22 24 25
7 2 5 3 1 3 4 4 4 5 3 7 6 5 3 7 6 4 8 7 8 7 7 6 7 9 12 11 12 12 13 13 12 11 14 16 19 20 21 21 23 23 25 26
7 3 6 9 5 7 5 5 5 6 4 5 6 5 4 5 3 4 5 4 5 6 7 6 6 8 11 10 11 11 11 11 11 13 15 16 18 18 19 20 22 23 25 26
4 4 3 3 3 5 7 9 10 9 7 7 5 8 5 3 2 2 1 3 4 6 7 7 7 6 10 10 9 8 8 9 11 12 13 15 17 18 20 22 24 25 27 28
2 2 3 2 3 2 3 4 8 5 4 3 5 5 4 2 4 4 3 3 4 6 7 7 7 9 10 9 7 5 5 7 9 10 13 16 19 20 21 24 26 28 29 30
6 5 3 3 1 3 4 8 7 5 4 7 7 7 5 3 6 3 3 3 1 4 6 8 7 9 11 8 5 4 4 5 6 10 13 16 18 21 23 26 26 28 29 31
5 4 2 3 1 1 3 1 6 6 2 4 5 5 4 6 3 2 2 3 6 1 6 7 10 12 10 7 4 3 2 5 10 12 14 16 19 22 24 26 26 28 30 30
3 4 3 4 4 3 0 4 6 5 1 1 7 6 5 3 3 4 3 3 3 4 7 12 14 12 9 6 3 2 5 8 9 12 14 17 19 21 24 26 27 28 29 30
4 6 4 2 3 7 1 3 4 4 2 5 7 5 5 3 2 3 3 3 4 7 13 15 12 11 7 4 2 4 6 8 10 14 16 17 19 21 25 24 25 27 29 28
3 3 4 2 2 6 3 3 1 5 4 4 5 6 5 4 4 1 4 3 6 9 13 12 10 8 5 2 4 4 6 9 12 15 16 18 21 23 23 24 24 28 30 27
5 6 4 3 2 6 2 4 5 4 3 6 5 4 3 3 3 4 6 6 7 9 10 9 8 6 3 2 2 3 7 11 13 16 18 21 23 23 24 23 26 28 27 25
2 4 4 6 4 1 2 2 4 4 6 4 4 4 4 4 2 3 2 5 6 8 7 6 6 5 3 1 4 7 10 13 16 18 21 24 24 24 21 23 27 25 22 22
1 2 2 3 2 2 4 4 4 4 5 4 3 3 3 4 4 3 3 4 5 8 7 5 5 4 1 2 5 8 12 15 18 20 22 24 23 23 24 24 25 22 23 21
3 5 4 0 2 2 1 2 5 5 5 6 5 3 4 3 3 2 3 5 7 9 8 5 4 1 3 6 10 11 13 15 17 20 23 22 24 24 27 24 23 24 23 22
4 5 5 5 6 4 4 5 4 6 5 5 3 2 3 2 4 3 4 6 9 8 7 5 2 2 7 10 12 14 15 15 17 20 20 22 20 24 24 24 25 20 21 24

GFSCGP_925_spd_015.txt.gz
Wind_Speed
17 9 14 20 11 6 7 6 10 3 2 2 5 6 14 8 5 7 4 7 6 6 3 6 12 17 20 23 24 26 25 19 15 15 13 16 17 17 20 19 18 18 17 16
9 15 10 11 9 6 6 5 5 4 1 2 6 15 14 6 5 5 9 9 9 7 5 7 12 18 22 23 26 30 29 24 22 22 18 18 19 23 24 23 22 21 20 19
16 12 14 12 10 9 4 6 4 3 3 1 5 6 5 2 1 3 5 9 8 10 9 6 10 14 19 22 26 28 30 30 27 23 23 24 24 21 20 21 21 20 18 18
13 3 18 17 16 10 11 5 4 2 4 2 4 6 5 6 3 4 6 7 10 10 7 6 10 13 15 19 24 27 29 29 28 26 26 26 21 16 14 16 17 18 18 19
5 8 23 19 19 11 4 6 5 3 3 2 1 2 6 2 4 6 8 8 8 9 9 8 8 11 14 18 22 26 27 28 26 25 23 23 21 17 16 16 17 18 19 19
3 0 12 7 9 10 8 6 4 3 1 2 5 5 5 3 4 4 5 8 9 10 9 8 10 12 14 17 21 24 26 24 23 23 22 21 19 16 16 18 18 17 17 18
9 4 3 4 11 5 4 7 2 2 3 5 2 2 9 3 4 6 13 13 11 10 11 10 8 10 12 16 17 19 22 22 20 21 21 20 19 18 18 17 17 19 19 19
8 2 7 6 5 7 4 7 4 5 4 3 3 5 5 2 4 5 6 11 10 11 9 9 9 11 12 14 16 18 19 19 19 19 19 18 18 18 17 16 16 15 15 15
12 4 1 4 5 10 3 5 3 4 2 1 2 5 7 1 4 3 8 14 13 11 10 10 10 12 13 13 15 16 17 18 17 17 17 17 17 17 16 16 16 16 16 15
4 3 3 4 5 3 6 8 2 1 4 3 3 4 4 5 5 3 5 10 9 8 10 9 10 13 13 14 15 15 15 17 16 16 15 15 15 15 15 15 17 18 18 19
5 4 1 5 4 7 3 2 2 4 3 3 0 4 4 5 5 4 9 10 11 10 10 10 11 13 14 15 14 14 14 15 15 14 13 14 14 14 15 17 17 17 17 18
6 6 4 4 1 4 6 8 7 4 3 1 2 5 1 6 6 5 9 9 8 8 9 10 14 14 13 13 13 14 13 13 12 11 11 12 13 15 16 16 16 16 17 18
6 2 5 4 1 3 4 4 4 4 3 6 5 4 1 3 3 2 7 7 8 7 9 10 12 13 12 12 12 13 11 11 9 8 10 12 13 14 14 15 16 17 19 20
5 3 5 8 4 6 5 5 5 8 4 5 6 4 3 1 4 4 4 5 7 8 9 9 9 11 12 11 12 11 9 7 6 7 10 10 12 12 13 14 17 19 20 21
3 3 3 1 2 6 6 8 11 10 10 10 7 8 6 5 5 5 5 6 6 7 9 11 11 10 12 11 11 9 7 5 6 8 8 10 10 11 14 17 19 20 21 22
2 3 3 1 2 4 5 6 12 11 4 7 5 7 4 3 5 4 4 5 5 5 9 10 11 13 12 12 10 7 5 6 7 7 8 8 10 13 15 18 21 22 22 23
5 6 4 3 2 5 4 10 11 7 5 11 11 9 7 4 6 5 5 6 5 5 8 10 11 12 13 12 9 6 5 4 5 6 8 12 12 15 18 21 22 22 24 26
5 4 3 3 2 2 5 1 6 8 4 5 3 5 6 7 5 5 3 4 4 4 6 9 12 14 14 11 8 6 3 3 4 7 10 11 14 18 20 22 23 24 23 22
1 5 3 4 4 4 1 4 6 7 5 6 8 6 6 6 4 4 3 4 2 3 5 11 18 17 14 10 7 4 2 3 5 8 11 13 16 18 21 23 24 24 21 24
5 4 2 2 4 6 1 2 4 4 3 7 8 8 8 5 3 2 2 3 6 9 13 17 16 16 12 9 5 3 1 3 6 10 12 14 16 19 21 22 23 24 25 24
3 2 6 3 3 5 4 3 3 4 3 5 5 6 6 4 3 4 4 5 8 10 15 16 15 12 9 7 4 2 1 5 8 11 13 15 18 20 20 23 24 27 27 24
6 6 4 3 2 6 3 4 6 3 4 6 5 4 5 6 5 4 5 5 6 10 13 13 13 10 7 5 3 1 4 7 10 12 14 17 20 21 23 23 26 27 24 23
3 4 4 6 3 1 2 2 3 3 6 4 6 5 6 7 5 6 4 5 6 11 12 11 11 10 7 4 2 3 5 8 10 14 17 19 22 23 23 24 24 22 20 20
2 2 3 3 0 2 4 4 5 4 6 6 5 6 5 6 6 5 5 6 7 13 12 11 11 8 5 3 1 3 6 9 12 15 19 22 24 23 24 25 21 19 21 21
3 5 5 2 2 4 2 3 6 7 7 8 6 4 5 6 4 4 4 5 9 12 12 10 8 6 5 2 1 4 7 10 13 17 20 22 23 24 24 21 19 19 19 19
4 6 5 5 8 4 5 6 6 7 6 5 6 4 3 3 5 4 4 7 11 11 10 9 8 5 3 1 3 5 8 11 14 17 17 20 18 20 20 20 22 17 19 22

GFSCGP_925_spd_018.txt.gz
Wind_Speed
21 10 21 25 24 16 19 18 15 14 10 6 14 19 14 16 12 12 9 9 8 8 7 8 10 10 12 15 16 16 16 14 13 14 14 14 14 15 15 16 16 15 14 14
16 21 22 20 23 22 19 18 16 12 5 7 14 19 17 18 14 10 10 11 12 11 9 10 12 13 15 16 18 19 18 18 15 14 14 15 16 16 15 14 15 15 15 15
22 15 14 23 24 23 16 17 15 12 5 9 10 20 15 7 5 4 6 10 13 14 14 11 12 13 14 16 16 19 20 19 17 17 16 16 15 14 12 12 12 14 13 14
17 15 23 22 26 24 20 12 10 7 4 5 3 5 9 9 6 6 10 12 13 14 13 12 12 14 14 15 16 18 19 19 18 16 16 15 14 13 11 11 10 10 12 13
12 14 16 20 28 25 11 13 11 7 8 4 9 6 4 3 7 8 12 14 14 14 14 13 12 14 13 13 15 17 18 19 18 16 15 14 14 12 10 8 8 9 10 11
14 5 14 23 19 21 12 12 7 4 2 7 11 9 5 3 3 5 12 15 15 15 14 13 15 14 14 13 14 16 17 17 16 16 16 16 14 11 9 9 9 9 9 11
10 14 4 18 19 8 16 16 4 5 5 6 4 6 10 3 2 4 16 16 16 15 14 13 13 14 14 13 13 14 15 16 14 15 14 13 11 10 10 9 10 11 12 12
7 4 10 17 19 10 16 15 4 6 6 6 4 6 1 5 2 3 10 16 17 16 14 14 14 15 14 13 13 13 13 14 12 12 12 11 10 9 9 9 9 9 10 11
9 4 1 3 5 13 5 10 3 2 1 3 5 4 3 3 2 3 10 17 17 17 15 14 14 15 14 13 12 12 13 12 10 10 10 10 9 9 9 8 8 8 9 10
9 2 2 2 6 6 5 7 4 2 5 4 4 3 2 3 2 4 12 18 18 16 15 13 13 15 13 13 12 11 11 11 10 9 8 8 8 8 7 7 8 8 9 10
6 8 8 7 6 12 6 4 2 4 2 2 3 4 3 5 6 4 10 17 17 16 15 13 13 15 14 13 12 11 10 10 9 7 6 7 7 6 6 7 8 9 10 11
8 5 5 5 2 10 10 12 11 4 5 2 3 2 3 5 5 3 8 15 15 16 15 13 15 16 15 13 12 11 10 9 7 6 5 6 5 5 6 6 8 10 11 12
11 7 8 6 3 2 6 11 15 11 2 10 8 3 1 2 3 3 9 15 15 15 15 13 13 15 15 14 12 10 9 8 6 5 5 4 5 6 7 8 9 10 12 13
1 4 11 10 7 11 12 19 17 18 11 10 11 7 5 4 3 6 10 13 14 14 14 13 13 14 15 14 12 11 9 6 5 4 4 4 5 7 8 8 9 10 11 13
4 4 7 4 3 15 19 19 21 22 22 14 15 17 16 10 7 8 10 13 14 14 14 14 14 12 16 14 12 10 8 6 4 3 2 3 5 7 9 9 10 12 13 14
10 3 3 2 2 8 11 19 21 24 22 24 18 16 4 5 8 9 11 13 13 13 13 13 13 15 16 15 13 10 7 5 3 2 2 5 7 8 9 11 12 13 14 15
12 6 3 3 3 4 7 18 19 20 21 21 20 20 10 8 9 10 9 9 9 9 12 13 13 14 15 14 12 10 7 5 3 2 3 5 7 9 11 12 13 14 16 17
12 7 1 1 5 3 2 2 16 22 18 20 17 5 11 10 11 10 6 8 7 6 9 10 13 15 15 13 11 9 6 4 2 2 4 6 7 10 12 14 15 17 17 19
3 2 3 3 8 6 4 5 7 12 14 15 16 8 12 14 13 7 5 5 6 5 6 11 15 16 15 13 10 7 5 2 0 3 5 6 8 11 14 15 17 18 19 20
7 2 1 2 2 5 2 3 5 6 7 13 14 16 18 14 10 6 6 6 8 9 11 15 16 16 14 11 8 6 3 1 3 4 6 8 10 12 15 16 18 19 20 22
4 4 10 4 3 6 1 5 5 6 0 9 13 16 15 9 4 11 9 8 9 11 14 15 15 13 11 9 7 5 2 1 2 5 7 9 11 14 15 17 18 20 22 23
9 7 4 4 6 9 5 5 6 4 9 12 14 12 12 13 10 10 9 9 10 12 14 13 13 11 9 7 5 4 1 2 4 6 8 11 13 14 15 17 18 20 21 22
7 4 3 7 3 2 1 2 1 8 13 9 13 11 13 11 7 8 8 9 9 11 12 10 10 10 7 5 3 3 1 2 5 8 11 13 14 15 16 17 19 20 20 21
2 3 2 4 2 1 1 4 6 9 11 11 12 11 10 10 9 7 6 7 7 10 10 9 9 8 7 6 3 2 1 4 7 10 12 14 15 16 16 17 17 19 20 20
1 9 6 1 1 4 3 7 10 12 12 13 9 8 9 10 8 6 6 6 8 10 9 9 9 8 7 5 3 1 3 6 8 11 13 14 15 17 18 18 18 18 18 18
6 6 5 3 13 3 14 12 13 14 12 11 12 8 6 5 6 5 5 7 9 11 11 10 8 7 7 4 1 2 5 6 9 12 12 14 16 18 19 20 21 17 18 21

GFSCGP_925_spd_021.txt.gz
Wind_Speed
21 12 19 27 21 27 22 17 23 21 22 20 19 19 23 18 19 16 12 11 11 9 7 8 10 11 12 13 15 15 15 15 15 14 15 14 14 14 14 14 14 13 13 12
19 19 26 28 24 22 22 21 24 17 11 13 16 17 18 19 18 18 15 14 13 11 11 11 13 13 14 16 16 17 17 15 15 14 15 16 15 15 14 14 13 12 12 13
23 23 25 28 24 25 23 28 20 17 14 10 14 19 22 19 22 16 12 12 14 14 13 13 13 14 15 16 16 17 17 18 18 17 18 18 16 14 12 10 9 11 12 13
15 21 21 27 29 27 26 16 13 16 7 9 11 7 5 11 13 12 12 13 15 15 14 13 14 15 15 16 15 17 18 17 15 14 15 14 13 13 10 8 9 8 11 12
11 8 28 28 27 22 14 16 16 13 12 7 12 6 13 8 16 13 13 15 16 16 15 15 13 16 16 14 15 16 17 17 15 15 15 14 14 11 9 7 6 7 8 10
21 13 25 23 21 23 14 17 11 7 7 7 15 13 11 12 10 8 14 15 17 17 16 14 16 16 15 14 14 15 16 16 15 16 15 15 13 10 8 8 8 8 8 9
11 19 3 10 17 20 18 20 6 4 5 7 5 12 9 10 6 6 15 17 18 17 16 15 14 14 15 14 14 14 15 16 14 14 14 13 11 10 9 8 8 9 9 10
8 7 9 6 14 10 21 15 7 7 8 11 7 8 5 8 4 4 13 17 18 17 15 15 14 15 16 14 13 14 14 14 12 12 12 11 9 9 8 8 8 8 8 9
9 4 4 18 10 18 17 19 5 1 4 8 8 10 6 5 6 8 14 18 18 18 16 16 15 16 15 14 13 13 13 13 11 10 9 9 9 9 8 7 7 7 8 9
3 1 5 4 16 4 11 13 8 4 8 5 7 8 7 10 7 7 14 19 18 18 17 15 13 16 15 14 13 12 12 11 10 9 8 7 7 7 7 7 7 8 8 10
1 3 4 4 4 11 6 11 5 3 3 3 6 5 11 4 2 7 12 17 18 18 16 15 13 16 15 14 13 12 11 10 9 7 7 6 6 6 6 6 7 8 8 10
7 4 3 4 4 8 10 9 10 7 4 3 5 6 4 4 4 4 10 15 17 17 16 15 14 17 16 15 13 12 11 9 8 6 5 5 5 6 6 7 7 8 9 10
10 6 4 4 7 5 11 8 13 11 1 10 7 6 5 7 8 6 11 15 16 17 16 15 14 13 16 15 13 12 11 9 7 5 4 4 5 6 6 7 8 9 11 12
6 7 9 4 8 12 10 18 18 16 10 9 11 8 10 7 7 8 12 14 16 16 16 14 14 12 15 14 13 12 11 8 7 5 4 4 5 6 7 7 8 10 12 13
4 5 3 2 5 16 15 19 21 21 18 13 12 15 9 10 9 8 10 15 16 16 16 15 14 13 15 15 13 12 10 8 6 5 3 3 4 5 6 8 10 12 13 15
9 2 3 4 2 6 11 17 21 21 21 20 18 16 7 1 4 8 12 15 16 16 15 14 13 13 15 15 14 12 10 8 6 4 2 2 4 6 7 9 11 13 15 17
9 5 4 3 6 5 8 18 19 19 21 19 20 17 13 6 8 8 10 12 13 13 13 13 13 11 15 15 14 13 10 8 5 3 1 3 4 6 8 11 13 15 17 19
13 11 3 1 6 5 1 3 16 20 19 19 19 15 6 9 7 5 3 7 8 8 10 11 10 13 14 14 13 12 10 7 4 1 2 3 5 8 10 12 15 17 18 20
7 5 3 3 7 8 8 4 5 12 17 20 17 15 5 14 14 8 6 8 9 9 9 11 14 15 16 15 13 11 9 6 3 0 3 4 6 9 12 14 17 18 20 21
5 5 2 1 3 4 6 3 0 5 7 5 16 13 16 15 9 6 9 9 10 11 13 15 16 17 16 14 12 10 7 4 1 1 3 5 8 10 13 16 18 19 20 22
4 3 4 4 3 7 3 4 3 5 2 3 5 12 16 12 4 17 13 11 12 13 15 16 16 15 14 12 10 8 5 3 1 2 4 7 9 12 14 16 18 20 22 23
6 6 3 4 4 7 5 4 4 3 5 7 10 12 12 14 14 13 12 11 11 12 15 14 15 13 12 9 7 6 4 2 1 4 6 9 11 13 15 18 20 21 22 23
7 7 5 9 5 3 1 3 2 4 10 10 13 13 15 15 13 12 11 11 10 13 13 12 13 13 10 8 6 5 3 1 3 5 8 10 12 14 16 18 20 21 21 21
4 3 3 3 4 2 4 2 3 9 10 12 13 13 12 14 12 12 10 9 9 12 12 12 13 11 10 7 5 4 2 2 4 7 9 11 14 16 18 17 18 19 19 20
1 9 8 1 2 2 4 5 9 12 12 13 10 10 11 12 10 9 8 8 9 11 11 11 10 10 9 7 4 2 1 3 5 8 11 13 14 16 19 18 19 20 20 19
6 6 6 3 11 3 8 12 13 14 13 12 13 11 9 9 8 7 6 7 9 11 11 10 8 8 8 5 4 3 3 3 6 9 11 13 16 17 18 19 21 19 20 22

GFSCGP_925_spd_024.txt.gz
Wind_Speed
12 9 17 22 22 20 15 16 16 17 13 19 20 23 11 12 14 10 11 8 8 11 10 9 11 10 11 14 17 18 19 19 20 20 22 22 22 20 20 18 15 14 14 13
15 20 26 15 18 19 20 19 18 17 16 21 21 19 15 10 12 15 12 9 9 12 9 7 13 14 15 15 16 18 19 21 22 23 23 24 22 19 18 17 15 12 13 13
20 21 15 19 19 20 23 21 18 15 22 8 9 9 9 12 14 11 9 10 11 17 13 8 9 16 16 17 18 19 21 22 23 25 24 24 22 18 15 13 13 12 12 14
18 21 20 20 23 18 22 22 20 25 20 7 9 4 14 24 20 17 10 9 14 15 13 9 9 14 16 17 19 20 21 20 20 19 21 19 19 17 14 13 11 10 11 12
6 11 17 22 21 18 20 17 18 25 12 9 8 4 7 11 13 21 9 9 14 14 15 12 9 17 17 17 19 20 22 21 20 20 20 20 19 15 13 11 10 9 8 9
16 8 10 20 22 21 17 15 20 22 10 8 10 7 6 9 11 10 9 10 14 14 14 11 19 20 18 18 19 20 22 21 21 21 20 19 17 14 12 11 9 9 8 8
8 20 10 8 18 16 23 14 10 4 4 4 16 8 10 4 8 11 12 12 14 13 14 13 10 12 17 17 18 19 21 21 20 20 18 17 15 13 12 10 9 8 8 10
7 11 13 17 11 16 24 13 5 6 7 5 8 7 4 6 8 9 11 13 14 13 12 12 9 15 19 19 17 19 20 20 19 18 16 14 14 12 11 10 8 9 9 10
4 11 6 13 18 18 9 10 27 2 6 6 4 3 4 9 6 7 12 14 14 13 14 12 11 18 20 19 19 19 19 19 18 17 15 14 12 11 10 8 8 8 9 9
1 8 4 5 11 13 12 16 9 3 8 6 5 8 5 9 9 7 13 15 14 13 14 11 10 18 21 20 20 19 18 18 16 15 13 12 11 10 8 7 8 8 9 10
5 7 3 4 6 10 13 8 7 3 2 4 5 2 7 8 11 10 10 15 15 13 14 13 9 20 22 21 19 19 18 17 15 14 12 11 10 8 7 7 7 9 9 10
9 5 3 4 2 13 6 7 5 0 3 3 3 2 6 8 7 9 9 15 14 12 12 12 11 18 22 20 19 19 17 16 15 13 11 10 9 6 6 7 7 8 9 11
9 3 0 1 6 6 6 5 3 5 4 3 3 3 6 8 7 6 10 12 13 13 12 11 11 11 18 21 20 19 18 16 13 12 11 9 6 5 5 5 7 8 11 13
9 5 6 2 6 9 8 6 5 5 0 1 2 7 6 7 9 8 9 10 14 14 14 11 11 9 18 21 20 19 18 15 13 12 9 7 4 3 5 6 8 10 12 15
4 2 5 8 12 11 10 11 9 10 7 2 2 7 9 10 11 10 8 9 13 12 12 12 11 9 16 20 20 20 18 15 12 10 8 5 3 3 5 7 9 12 14 16
9 5 5 7 7 7 8 10 13 14 8 7 8 5 7 3 9 9 10 9 12 12 12 11 11 10 15 21 21 21 18 15 11 10 7 3 2 4 5 8 11 13 16 19
5 3 4 4 4 3 3 9 14 13 11 11 11 8 1 6 8 8 10 9 9 9 10 11 9 10 18 23 24 21 18 14 11 9 5 3 2 4 7 9 12 15 18 20
6 2 3 1 4 2 5 2 11 11 7 11 8 6 3 7 8 10 6 7 9 10 11 10 9 17 24 24 22 21 17 13 10 7 4 1 2 5 8 11 14 17 19 21
7 1 1 2 4 5 3 2 1 6 9 8 7 9 13 12 7 8 9 9 9 9 8 12 22 25 26 24 24 21 16 12 9 6 3 1 4 6 10 13 16 20 21 23
4 5 3 3 2 2 2 3 5 3 3 6 7 8 15 7 5 4 6 9 12 13 18 20 25 26 24 22 20 18 14 10 7 4 0 2 5 8 11 15 19 20 21 23
3 3 4 2 2 6 2 1 4 3 3 7 7 13 13 5 1 12 11 10 12 15 20 25 23 20 22 20 18 16 11 9 5 2 1 3 6 10 13 17 18 20 22 24
4 5 3 3 2 6 4 2 2 2 3 3 8 10 17 15 14 13 12 12 11 11 16 20 20 20 18 16 16 13 11 6 3 0 3 5 9 13 15 16 20 20 23 24
6 6 6 7 5 2 4 3 0 1 4 6 10 12 17 15 13 12 11 11 9 12 15 20 19 20 16 13 12 13 9 5 2 1 4 9 12 14 14 18 20 22 22 22
5 2 2 4 3 4 5 3 2 3 7 8 9 11 12 15 11 12 10 9 7 12 14 20 20 17 14 11 10 10 6 4 2 5 8 11 12 14 18 20 20 22 23 24
1 7 6 2 2 3 1 4 6 9 10 10 9 10 11 13 10 10 9 8 8 13 14 19 18 16 14 11 9 7 5 3 5 7 8 10 13 17 20 20 21 22 23 21
4 5 4 3 9 5 5 8 9 11 9 9 14 11 8 8 9 9 7 10 13 14 15 14 15 18 15 11 9 6 4 4 5 6 9 12 15 19 20 22 25 20 20 22

GFSCGP_925_spd_027.txt.gz
Wind_Speed
5 6 10 11 9 7 9 11 11 9 10 14 20 19 18 11 11 9 9 8 7 8 7 16 14 12 12 12 13 15 22 27 28 29 29 27 25 23 19 16 13 13 12 11
7 18 10 9 12 10 14 15 21 15 14 11 14 19 22 18 12 16 11 10 11 8 8 9 16 15 14 14 13 16 18 22 26 26 25 26 26 21 19 16 15 13 12 12
16 6 17 13 14 14 17 16 17 16 14 15 9 16 21 12 18 12 12 9 16 17 14 9 10 19 17 20 22 23 24 27 28 27 26 27 25 22 19 15 14 12 12 12
15 15 15 13 19 16 17 16 16 17 13 11 4 7 13 15 16 9 10 9 16 13 10 10 12 18 20 18 21 24 26 28 28 27 29 28 25 21 16 14 12 10 10 12
6 5 18 20 22 14 16 8 10 14 15 16 18 6 7 7 13 18 19 10 17 18 18 15 14 22 22 21 22 23 23 24 25 25 25 25 23 19 17 15 13 9 8 10
9 3 2 15 15 15 14 3 8 9 8 11 16 12 6 8 16 10 10 16 17 16 14 13 20 27 25 24 26 27 28 26 26 26 24 23 22 20 17 13 11 8 6 9
6 17 4 4 3 3 13 4 4 5 6 11 8 15 13 5 8 12 15 18 19 17 17 16 16 16 23 25 26 26 27 26 26 26 23 21 19 17 14 11 8 6 6 9
5 5 15 12 18 8 10 15 5 7 9 10 14 8 7 21 8 10 20 22 20 18 16 16 15 18 22 25 24 26 27 26 23 22 21 19 17 15 13 10 8 7 8 7
5 7 1 9 9 19 10 12 20 5 4 1 7 8 4 3 7 16 19 20 19 17 16 16 14 21 24 25 27 27 26 24 22 21 20 18 16 14 12 9 8 7 6 7
3 9 13 11 17 14 12 12 8 6 3 7 5 5 5 6 9 13 18 18 16 16 15 14 14 20 24 28 28 26 24 24 22 20 18 17 15 12 9 7 8 7 6 7
8 6 4 6 10 15 12 11 7 4 9 3 5 4 5 11 14 17 18 18 18 18 16 15 14 21 26 29 29 26 24 24 21 19 17 16 13 10 7 7 6 7 7 9
11 4 5 8 6 8 13 9 9 8 9 15 4 3 4 9 10 13 14 16 16 17 15 14 14 21 23 26 28 28 24 22 20 18 16 14 11 8 6 5 6 6 8 10
8 5 3 3 4 10 8 13 17 23 5 2 4 4 1 6 8 10 15 15 15 15 15 15 14 13 20 23 27 26 24 22 20 17 15 12 9 6 5 4 5 7 9 12
15 5 6 2 2 7 6 19 19 15 3 2 2 6 3 4 8 9 14 15 16 17 18 15 14 13 20 24 27 27 25 21 19 17 13 10 7 5 4 4 6 8 11 14
6 4 8 13 16 9 8 5 7 5 4 4 5 6 8 8 10 12 13 13 15 16 16 16 15 13 18 22 26 28 25 22 19 15 12 8 5 3 3 5 7 10 12 15
7 5 12 7 8 8 7 5 6 4 2 2 3 2 4 4 6 7 14 17 16 15 14 14 15 14 17 22 25 28 25 20 17 14 10 7 4 3 4 6 9 12 14 17
6 2 5 2 4 5 3 7 4 2 2 5 3 5 4 6 8 9 10 15 16 15 16 17 16 15 20 24 30 29 25 20 16 13 9 5 3 2 4 7 10 13 16 18
5 1 3 3 4 2 4 2 8 11 5 6 4 3 3 8 5 7 3 12 14 15 16 15 12 18 22 29 30 29 23 20 15 11 8 4 2 3 6 9 11 14 17 19
3 2 2 1 2 5 2 4 3 6 6 6 11 6 11 7 5 8 8 3 7 10 11 12 20 26 28 31 31 27 22 17 13 10 6 3 2 4 7 10 14 16 19 21
4 3 2 3 2 3 2 4 3 1 2 2 1 11 15 7 5 3 4 11 14 13 19 22 25 28 31 30 29 26 20 16 12 8 4 2 2 5 9 12 15 17 20 22
3 3 5 2 2 6 4 3 5 2 4 5 3 8 11 6 2 9 8 12 13 18 23 26 25 24 28 28 25 22 17 14 10 6 3 1 3 7 10 13 16 20 21 23
6 6 3 2 2 6 2 2 2 3 2 4 5 6 15 15 16 13 13 12 13 14 18 23 23 22 25 23 22 19 16 11 7 5 2 2 5 8 10 14 18 20 21 22
4 6 5 6 6 2 2 2 1 2 4 3 9 8 17 16 14 13 11 12 10 15 18 20 23 24 21 19 18 18 13 10 7 4 2 3 6 9 12 17 19 20 22 25
4 4 3 4 5 3 4 1 2 3 6 8 10 11 13 17 13 12 11 10 9 14 16 21 23 20 18 15 15 14 12 8 6 3 2 5 8 12 16 17 18 19 23 25
4 8 6 2 1 2 1 3 6 9 11 12 10 12 14 16 12 12 10 9 9 14 18 21 19 19 18 17 15 12 9 7 5 2 4 8 11 13 16 17 18 19 19 19
4 6 5 5 7 5 4 8 10 13 12 12 15 10 7 10 12 11 9 10 13 15 20 19 19 19 17 15 13 10 7 5 3 4 8 10 12 15 16 20 24 21 17 19

GFSCGP_925_spd_030.txt.gz
Wind_Speed
2 3 9 10 7 6 8 5 8 2 7 7 12 17 18 14 11 10 13 10 8 9 5 11 12 12 13 13 12 13 19 26 32 34 33 30 28 25 22 18 14 13 11 9
4 11 9 9 10 9 10 14 18 8 8 11 10 16 14 18 18 14 18 11 9 6 7 7 12 14 15 15 16 20 27 28 30 33 27 28 28 22 22 20 17 14 11 10
16 7 17 12 14 12 14 15 9 8 9 15 15 21 13 15 17 14 18 15 8 16 14 8 9 15 18 18 20 23 25 26 28 29 30 29 27 25 24 20 18 14 11 10
11 16 13 13 16 12 16 7 11 10 10 5 2 10 7 8 15 16 21 10 11 14 8 7 7 11 21 22 23 25 28 29 29 29 29 30 27 26 21 19 16 13 10 9
6 7 16 21 18 14 11 10 9 9 12 10 17 9 8 14 17 17 19 14 15 18 17 15 12 18 23 26 28 29 32 30 27 26 27 28 26 24 21 18 15 11 9 9
8 3 4 16 15 15 3 5 9 3 5 9 19 11 10 12 14 11 18 11 14 16 13 10 14 21 24 26 30 30 30 28 27 28 27 27 27 25 23 17 13 9 6 7
4 11 6 3 3 7 16 8 4 7 7 11 9 11 21 7 13 15 13 13 16 18 18 16 15 14 20 26 31 31 32 29 29 28 27 25 24 22 19 15 11 8 5 6
5 6 15 14 15 7 12 15 5 6 3 8 6 10 8 16 25 21 9 12 18 19 19 18 16 18 21 25 30 32 33 31 30 28 26 23 21 19 16 12 9 7 5 5
6 7 3 9 10 15 4 12 23 6 4 3 6 5 10 12 7 7 11 18 20 19 19 18 14 20 22 26 30 34 34 31 29 28 26 22 19 17 15 11 8 6 5 3
3 5 7 8 6 10 16 7 5 6 4 5 5 7 12 14 10 7 15 17 17 16 16 15 13 18 20 27 31 32 31 30 28 26 24 21 18 15 12 9 7 5 3 4
8 7 3 7 12 17 7 10 8 6 7 3 3 6 10 16 14 15 14 17 20 19 17 15 13 18 23 29 31 30 29 29 26 24 23 20 17 13 10 7 5 4 3 5
13 4 7 17 8 17 23 20 18 7 8 6 4 7 4 8 15 18 16 14 14 16 15 14 14 20 22 24 29 30 29 28 25 23 21 18 15 11 8 6 4 3 4 6
9 4 4 4 5 9 15 17 22 14 3 16 6 7 7 7 8 9 16 14 14 15 15 14 13 13 19 22 26 29 29 27 25 23 20 17 13 9 6 4 3 4 6 8
13 5 7 8 1 7 10 22 22 18 6 10 11 17 8 6 10 10 11 15 16 16 17 14 13 12 19 21 26 29 28 26 24 21 18 15 10 7 5 3 3 5 7 10
9 5 8 14 22 16 18 22 24 26 12 12 23 25 9 8 12 14 15 14 15 15 15 16 14 12 17 20 25 28 28 26 23 20 16 12 9 6 4 2 4 6 9 11
7 4 5 7 8 16 14 17 19 16 13 22 15 2 5 4 8 8 14 16 16 16 16 15 14 14 17 22 24 28 28 26 22 18 14 11 7 4 3 3 6 8 11 14
5 3 4 6 1 14 8 18 14 18 20 8 2 2 5 4 7 9 12 16 18 17 18 17 17 15 20 24 31 30 29 25 21 17 13 9 6 4 2 5 7 10 13 15
5 3 4 3 5 3 4 3 6 6 7 6 6 3 4 5 6 7 2 11 13 15 15 14 12 17 22 27 29 31 28 24 20 16 12 8 5 3 3 6 9 12 14 16
8 2 3 2 2 4 4 5 3 4 3 6 7 6 5 7 5 6 5 2 6 10 11 13 21 24 27 30 33 31 26 23 19 15 10 6 3 2 4 8 11 12 15 16
4 3 2 3 2 1 2 2 1 1 2 0 3 8 10 6 5 3 3 3 11 11 18 22 24 27 29 29 33 30 25 21 17 13 9 5 3 2 6 8 11 13 15 16
3 1 2 2 2 6 4 2 2 2 4 2 2 7 9 6 1 8 8 10 11 15 22 26 25 25 28 33 31 27 23 18 14 11 8 5 2 4 6 8 12 14 15 17
4 5 2 2 1 5 3 3 2 3 2 2 2 3 10 12 13 12 12 13 14 16 20 23 25 23 29 29 28 24 20 16 13 10 7 4 2 4 6 10 12 14 16 19
4 5 4 7 5 1 3 1 1 2 2 3 5 9 16 15 13 12 11 13 12 15 19 22 26 26 24 23 24 23 18 15 11 9 6 3 2 4 8 10 12 16 19 19
4 3 2 1 2 2 2 2 3 4 4 7 9 12 13 18 12 12 12 11 11 14 18 23 24 21 20 20 19 19 16 12 10 8 4 2 4 6 8 9 13 15 17 18
4 5 4 4 3 0 2 1 5 7 10 12 9 10 14 17 12 13 11 11 10 16 18 22 21 21 21 20 19 15 13 11 9 6 3 3 4 8 10 12 15 14 15 16
4 5 4 5 5 4 2 8 8 11 10 11 15 11 8 12 14 12 10 12 15 16 21 21 22 24 21 19 17 13 10 8 6 4 1 3 7 9 11 15 18 17 13 15

GFSCGP_925_spd_033.txt.gz
Wind_Speed
2 3 9 13 10 6 6 5 6 3 7 5 8 12 10 8 11 16 11 11 10 9 6 10 13 12 13 13 16 17 20 24 30 34 35 33 30 28 24 20 17 15 12 11
3 11 8 9 7 10 7 14 13 8 8 8 10 20 15 16 18 14 15 15 13 6 6 7 13 14 16 17 16 19 22 27 30 34 33 34 33 26 25 22 18 16 13 11
13 4 11 7 8 11 11 15 11 10 7 12 9 26 20 16 17 16 18 16 14 13 10 8 9 17 17 18 18 22 26 28 30 34 33 33 28 28 26 22 20 16 12 10
10 13 16 11 13 9 19 9 14 13 5 5 1 9 7 7 15 18 17 16 14 11 9 8 7 11 21 20 20 24 28 30 32 34 37 36 29 25 23 22 19 16 12 10
6 5 10 18 15 15 8 9 9 11 8 7 17 6 5 9 17 16 8 15 12 12 14 13 13 17 24 24 26 27 29 31 31 33 33 31 30 29 26 23 19 14 11 9
14 3 4 7 10 16 2 8 14 10 9 12 10 11 7 10 14 9 10 12 10 13 13 10 12 19 22 24 28 30 31 30 28 28 27 30 33 32 28 21 17 13 10 8
3 10 4 4 4 7 11 6 4 7 8 10 8 12 22 8 6 6 9 9 12 10 14 15 16 13 20 26 30 32 31 27 26 26 28 29 30 28 24 20 15 12 9 7
5 6 13 13 14 7 17 13 5 5 4 6 7 9 11 15 22 23 20 10 7 10 14 18 18 16 21 26 30 31 32 30 29 29 28 27 25 23 20 16 14 10 8 6
6 6 3 7 11 14 6 13 15 6 4 4 5 8 13 14 15 10 11 9 12 15 15 18 16 19 22 25 28 33 33 31 30 30 29 26 24 21 19 16 12 10 8 6
3 5 7 7 12 10 8 6 5 6 6 6 7 7 12 9 23 23 10 9 9 12 14 14 14 18 21 27 31 32 34 33 32 30 28 26 23 19 16 13 11 8 6 4
5 6 2 3 12 15 7 6 6 4 4 4 3 7 3 12 16 12 8 10 14 16 16 15 13 18 22 28 30 31 33 33 31 29 27 25 21 18 14 11 9 7 5 4
10 4 8 20 7 15 20 15 12 6 7 7 2 10 2 8 13 8 10 12 11 12 14 14 14 19 22 24 28 30 32 32 30 28 26 23 19 15 12 10 8 6 5 5
10 5 5 4 5 10 10 13 14 16 2 10 9 10 7 11 12 4 15 15 15 14 14 14 13 12 17 21 26 30 31 30 29 27 24 21 17 13 11 9 6 5 5 5
13 5 8 11 10 1 6 14 17 19 11 8 15 20 23 20 9 6 6 12 15 16 16 14 12 11 16 20 25 29 30 29 28 25 22 19 15 12 9 7 6 4 5 7
9 8 12 18 20 16 4 12 20 23 22 14 10 21 25 19 10 5 6 12 15 15 14 15 14 12 15 19 24 28 30 29 27 24 20 17 14 11 8 6 5 5 6 8
5 6 4 17 20 23 10 14 22 21 24 16 13 21 19 17 18 9 12 14 15 15 14 14 14 13 15 21 23 27 30 28 25 22 19 16 13 10 7 5 4 5 6 8
4 3 3 6 6 7 6 16 24 19 20 21 13 20 23 18 8 14 14 16 17 16 15 15 15 15 20 23 29 29 32 28 24 21 18 15 12 9 6 4 3 5 7 10
5 4 3 4 2 3 4 18 19 20 14 13 13 19 22 17 2 5 2 11 12 14 14 13 12 16 21 26 28 32 30 27 23 20 17 13 10 8 5 3 4 6 9 11
10 2 4 4 3 2 4 9 9 11 12 22 24 20 9 8 5 3 3 5 7 12 12 13 21 24 27 30 33 33 29 26 23 19 16 12 9 7 4 3 6 8 10 12
3 5 3 3 3 2 2 3 8 12 3 13 19 13 8 4 4 4 3 5 11 12 18 21 25 27 28 28 34 32 28 25 21 17 14 10 8 5 3 4 6 8 11 13
3 2 3 2 3 6 4 5 2 3 4 2 3 6 7 5 1 6 7 9 8 13 21 26 24 24 26 32 33 28 26 22 19 15 12 10 6 4 3 5 8 10 12 15
5 5 3 2 2 4 5 4 3 1 2 2 3 3 7 9 9 10 11 11 13 15 18 22 24 22 27 32 32 27 23 20 17 14 11 8 5 3 4 7 8 11 13 15
4 5 4 6 4 3 3 2 2 1 1 1 3 6 15 13 10 11 11 12 12 13 19 21 26 25 28 28 28 27 21 19 16 13 10 7 4 3 6 7 11 14 14 15
4 4 2 1 1 2 3 2 4 5 4 6 7 9 12 17 12 13 12 11 12 14 18 24 26 22 22 22 23 24 20 16 14 12 8 5 3 3 6 7 10 12 14 16
3 4 3 4 5 4 4 1 5 7 8 12 9 9 13 17 12 13 12 11 10 16 19 22 22 21 23 22 22 19 17 14 13 10 6 3 3 6 7 9 10 12 13 13
4 6 4 4 3 2 0 6 7 8 8 8 13 12 9 12 14 13 10 10 14 16 20 21 23 26 24 23 20 16 13 11 10 8 4 3 5 7 8 11 14 13 11 14

GFSCGP_925_spd_036.txt.gz
Wind_Speed
2 3 8 12 9 9 3 3 6 4 8 7 11 16 17 13 9 11 12 11 11 11 11 15 17 15 14 15 13 12 17 24 30 32 32 29 31 29 27 24 21 17 15 14
0 10 8 7 5 7 8 14 17 12 10 10 13 25 18 17 17 14 15 16 12 10 7 8 11 14 17 18 17 16 19 26 31 32 30 32 35 29 28 24 21 18 16 14
8 4 5 9 7 7 8 13 14 14 6 13 12 27 20 21 23 22 22 20 17 14 12 8 8 19 17 19 21 22 23 26 30 32 33 34 30 29 27 25 23 20 16 14
8 11 12 6 4 8 16 8 13 12 5 7 4 12 9 4 11 14 17 15 15 13 9 8 9 11 21 21 19 22 25 27 29 33 38 43 33 27 21 27 24 21 15 14
6 4 5 13 16 6 5 7 9 8 7 8 12 5 5 4 11 11 9 11 14 15 16 13 12 20 25 22 22 23 25 27 29 33 39 36 29 22 32 29 24 21 17 13
13 4 4 6 4 12 1 7 5 6 5 10 11 12 23 10 10 9 10 11 14 14 13 12 12 19 23 22 24 26 28 28 31 33 34 34 34 37 33 28 24 20 16 13
3 8 6 5 6 6 9 3 3 5 7 9 7 10 23 5 7 8 10 11 10 9 9 10 12 12 20 26 29 30 31 30 30 31 30 31 34 34 32 27 23 19 16 13
3 5 10 9 16 5 13 12 5 5 4 4 5 10 15 12 20 21 19 14 8 5 7 11 14 13 22 26 30 29 32 31 29 28 28 29 30 30 26 22 19 16 14 12
5 5 4 7 6 10 5 12 13 8 7 5 5 8 11 11 16 15 10 10 9 8 9 11 11 17 22 25 27 32 33 31 29 29 30 31 29 27 25 21 18 16 13 11
4 5 8 1 3 9 12 4 5 6 6 7 6 7 11 14 12 15 20 16 8 7 8 9 11 12 18 22 29 32 34 34 32 32 32 31 28 25 23 20 18 14 13 10
4 5 2 5 10 12 7 9 7 4 4 5 3 7 5 7 2 12 14 11 10 14 14 12 11 16 21 25 28 31 34 37 35 33 32 30 27 24 21 19 16 13 11 8
9 3 6 11 12 14 15 15 19 5 5 4 3 14 5 7 8 12 12 6 5 7 11 12 13 17 22 24 26 30 33 37 35 33 31 29 26 22 20 17 14 11 9 7
10 4 5 7 1 5 7 12 14 16 3 14 6 11 7 9 7 8 6 5 6 9 11 12 14 13 16 21 24 28 32 36 35 33 31 27 24 21 18 16 13 10 7 6
12 5 8 11 19 11 7 13 17 16 7 13 18 19 17 15 15 6 3 5 6 8 10 11 12 12 17 20 23 27 31 35 34 31 29 26 22 19 16 14 11 8 6 4
7 7 9 21 26 27 24 12 18 19 26 10 17 18 12 9 10 2 6 7 10 10 11 11 12 12 16 20 23 27 33 34 32 30 26 23 20 18 15 12 10 7 5 5
6 4 4 19 20 19 19 16 17 22 20 22 19 18 12 11 2 4 7 10 12 12 12 12 12 13 12 21 23 27 31 32 30 28 25 22 20 16 13 11 8 5 5 5
3 2 3 11 10 11 5 8 15 14 14 18 15 19 15 15 16 8 6 12 13 14 15 14 14 14 19 22 28 28 32 31 28 26 23 20 18 15 12 9 6 4 5 7
6 3 3 6 7 5 4 5 13 17 12 16 12 14 11 11 10 8 10 13 11 13 13 13 12 16 20 26 28 33 32 29 26 24 22 18 16 13 10 7 5 4 6 8
15 5 4 4 4 6 5 2 4 5 6 16 17 17 16 5 4 3 2 6 10 13 12 12 21 24 27 30 33 34 30 28 25 23 20 17 14 12 9 6 5 6 7 8
8 11 3 4 4 3 3 4 5 3 5 9 15 15 10 3 2 1 5 8 10 13 17 20 24 26 28 28 34 32 29 27 24 21 18 15 12 10 7 5 4 5 7 10
3 3 6 2 3 6 2 3 6 4 3 2 10 13 4 1 1 2 4 10 9 14 21 24 23 23 26 33 33 28 28 25 23 20 18 14 11 9 6 4 4 7 9 12
5 4 3 3 3 3 3 2 2 1 3 2 1 4 8 5 6 4 7 10 12 14 17 21 23 22 26 32 33 27 25 23 22 19 17 13 10 7 4 4 6 8 11 13
3 5 3 6 5 3 2 3 3 4 3 1 3 3 10 12 6 5 8 10 10 11 17 20 24 24 25 28 32 28 25 24 21 18 15 11 8 5 5 5 8 11 12 14
3 3 2 3 2 4 2 1 3 3 3 4 5 9 7 12 9 10 10 10 10 12 15 22 25 22 21 25 26 29 26 22 19 17 13 10 6 4 4 6 9 12 14 15
3 4 3 5 7 5 4 2 3 4 7 9 9 8 11 14 12 11 11 10 10 15 19 21 23 22 24 28 28 24 22 19 18 15 11 7 4 4 6 8 10 12 13 12
4 6 4 5 4 3 1 5 6 6 6 7 12 11 9 10 13 13 11 11 15 17 21 23 24 28 28 29 25 21 17 15 15 13 8 5 4 5 8 11 13 11 11 14

GFSCGP_925_spd_039.txt.gz
Wind_Speed
2 6 10 11 8 4 2 2 9 9 9 12 13 20 17 16 16 16 17 17 16 14 15 20 23 21 18 18 17 17 18 23 27 31 31 24 25 25 25 27 27 24 21 18
3 10 8 5 4 7 8 12 15 10 11 8 13 28 19 18 22 20 20 18 18 17 14 14 19 22 19 20 20 18 20 25 28 30 25 23 30 26 29 28 26 22 19 18
5 2 4 9 5 6 7 13 13 13 10 12 16 24 15 13 19 20 20 22 21 20 19 17 13 19 23 21 25 23 22 26 29 32 32 29 28 28 25 25 25 21 20 18
5 6 4 4 5 8 13 8 12 13 7 7 2 11 8 10 14 14 13 15 18 21 19 19 15 15 22 28 25 23 23 28 29 33 35 42 30 25 19 30 27 23 20 18
4 4 4 9 9 8 6 4 6 7 8 10 13 6 9 1 6 10 11 15 16 19 19 21 18 23 26 27 27 25 26 27 30 33 35 31 27 22 32 31 29 24 20 17
7 3 5 6 5 13 2 3 8 8 5 9 13 11 19 11 12 10 10 13 11 14 17 18 17 20 18 26 26 26 28 27 29 32 35 35 39 36 36 32 29 26 21 18
4 12 7 5 5 4 8 3 2 3 5 7 6 10 20 3 9 7 12 11 12 11 9 10 11 12 17 23 27 28 29 27 30 31 31 32 34 38 39 34 32 27 23 19
4 5 9 11 15 6 10 10 5 7 5 3 3 10 8 6 12 14 18 13 13 9 7 11 14 12 21 24 27 27 28 27 28 30 30 32 34 36 35 32 29 24 22 18
5 4 1 3 3 10 6 11 14 8 10 8 8 13 17 21 15 8 12 14 14 11 10 11 11 15 21 24 29 33 33 30 30 31 33 33 33 34 34 30 26 23 20 18
1 4 4 1 2 8 6 1 4 7 5 8 6 9 13 4 10 6 10 11 14 12 9 9 13 14 19 22 23 27 32 32 32 32 33 36 37 34 31 28 25 22 18 15
4 3 3 5 9 10 9 11 8 4 5 5 7 8 7 12 6 5 8 9 10 11 10 11 9 15 19 20 24 27 33 35 34 35 38 39 36 32 29 26 23 19 17 13
8 3 5 12 9 14 15 12 18 9 8 6 10 17 7 7 7 3 9 9 8 4 5 9 12 17 21 21 23 26 29 32 36 39 40 37 34 31 27 24 20 17 16 12
8 4 4 9 2 2 8 15 22 12 8 10 3 9 7 10 4 7 10 7 3 3 8 11 12 14 17 22 23 26 29 33 38 39 39 35 32 29 25 22 19 16 13 11
10 5 7 10 14 7 12 14 15 17 8 13 16 21 14 13 15 12 10 5 4 5 8 11 12 13 18 23 24 26 29 36 39 38 36 33 29 27 24 21 17 14 11 9
7 6 9 20 24 25 26 27 22 20 26 10 16 18 16 11 5 10 9 7 7 7 9 11 13 14 17 22 24 27 30 36 38 37 34 30 27 25 22 19 16 13 9 7
6 4 5 18 22 21 21 18 16 16 21 18 21 24 17 9 3 3 7 8 8 10 11 12 14 15 16 23 25 27 29 33 37 35 32 29 26 23 20 17 14 11 7 5
4 3 3 7 13 23 4 5 7 4 7 15 14 15 11 8 7 7 7 7 10 12 13 14 14 14 18 23 28 28 30 35 34 33 30 27 24 22 18 15 12 8 5 4
6 5 3 7 13 4 2 2 6 10 9 15 11 10 8 6 5 8 6 7 10 13 14 14 13 17 21 25 26 32 33 33 33 31 28 25 22 20 16 13 9 6 4 4
15 7 4 3 4 8 3 4 2 2 6 16 14 13 9 3 7 4 4 5 9 12 13 13 19 23 25 27 31 32 29 30 30 28 26 23 20 18 14 11 8 5 4 5
10 13 6 2 4 4 3 6 1 3 4 4 9 9 2 2 3 3 7 7 11 12 18 21 24 25 26 25 32 30 26 26 24 26 24 21 17 15 12 9 6 4 4 7
4 4 11 8 3 7 4 7 1 4 5 4 6 5 2 1 2 2 5 10 8 13 21 22 23 23 25 29 32 26 24 21 27 25 23 19 15 13 10 7 4 4 6 8
5 5 3 3 3 6 3 2 2 2 4 5 3 6 4 7 1 7 9 10 11 13 17 21 23 22 23 28 31 23 23 28 27 25 22 18 14 11 8 5 4 4 7 10
3 5 4 6 5 5 3 5 3 2 4 3 4 1 7 10 5 6 8 10 10 11 15 19 24 24 21 25 29 28 28 29 26 23 19 16 12 8 5 4 4 7 9 10
3 3 2 2 3 6 6 3 3 3 3 4 1 3 3 9 10 12 11 9 10 12 15 22 25 22 21 23 27 32 30 27 24 21 17 13 9 6 4 5 6 7 9 10
4 5 4 5 7 5 5 2 4 4 4 6 8 6 9 12 11 12 11 10 10 16 18 21 23 22 22 29 31 29 27 24 22 19 15 11 7 5 4 5 6 9 10 10
5 6 4 4 2 0 1 3 4 5 5 7 11 11 10 11 13 14 11 11 15 17 21 23 24 27 26 32 29 25 22 19 20 17 12 8 6 4 5 7 9 9 9 11

GFSCGP_925_spd_042.txt.gz
Wind_Speed
10 7 12 13 13 8 1 6 9 10 10 18 19 23 21 21 22 23 22 21 22 22 19 22 21 19 18 19 18 18 16 15 17 21 23 24 23 18 17 19 21 20 22 22
6 12 12 7 11 13 14 15 15 13 11 10 18 32 24 26 24 24 24 23 24 24 23 23 26 26 22 20 20 18 17 18 20 20 21 22 20 13 21 21 22 19 23 21
8 3 4 14 12 12 15 15 14 16 15 17 20 25 16 5 10 16 20 23 23 24 24 23 23 28 26 22 21 20 19 19 21 20 20 18 16 18 19 19 23 21 21 20
9 10 6 9 11 12 13 8 13 13 9 6 3 11 17 16 18 17 19 17 19 20 21 22 23 25 29 25 21 20 20 21 22 25 23 25 22 23 16 21 24 24 20 18
5 6 11 14 13 11 6 5 7 9 11 13 14 6 13 6 15 15 14 15 15 15 16 18 21 27 28 25 22 20 20 22 23 25 23 24 20 19 23 20 25 25 22 18
8 3 6 10 9 12 3 7 9 8 5 8 15 15 19 12 10 8 7 6 10 11 12 16 20 22 25 24 21 22 23 23 23 24 23 25 26 28 28 25 30 28 22 19
8 16 8 9 8 8 11 4 3 4 6 8 1 12 22 2 6 11 12 12 15 14 14 13 14 16 21 23 23 24 26 25 24 24 26 25 26 27 30 32 33 28 20 16
5 5 15 12 16 7 16 11 5 6 5 7 4 11 9 4 3 5 7 14 13 14 15 16 15 15 21 25 26 26 27 25 25 25 25 24 26 28 29 29 30 24 19 15
5 4 3 7 5 12 7 10 13 16 16 11 10 20 26 26 23 20 19 7 9 13 15 15 15 13 20 23 27 28 28 25 26 26 26 26 26 31 30 33 28 21 17 16
2 4 4 3 6 10 13 1 3 5 5 9 11 19 15 8 13 8 7 8 11 14 16 12 13 13 18 23 25 24 25 26 27 27 27 27 28 34 34 31 24 18 17 16
7 4 4 4 10 13 9 8 7 5 6 6 10 13 6 9 10 12 6 7 12 12 15 9 9 12 17 21 25 25 26 27 27 26 27 30 35 36 32 23 20 18 17 15
12 4 7 15 11 14 15 12 19 7 8 9 12 22 13 15 11 7 7 10 11 8 11 7 4 10 17 21 25 28 27 26 26 27 30 35 36 31 25 22 20 18 17 14
10 5 4 4 5 4 8 14 20 18 13 22 15 14 4 10 8 8 8 13 11 6 7 3 4 9 13 21 25 27 27 27 28 31 36 33 29 26 24 21 19 17 15 13
11 5 8 9 11 9 9 16 15 16 10 22 22 31 25 13 13 17 18 10 9 6 3 1 7 10 15 21 24 27 27 29 31 33 32 30 26 24 23 21 18 16 13 12
9 5 12 18 22 22 23 25 26 19 23 16 29 20 18 14 14 16 14 8 6 4 2 6 8 11 14 21 24 26 28 29 31 32 29 27 25 23 21 19 17 14 12 10
7 4 8 13 20 20 21 21 20 17 12 16 22 24 23 19 14 15 9 7 5 5 7 8 11 13 14 21 25 28 29 29 31 29 28 26 24 22 20 18 15 13 10 8
5 4 3 8 13 23 5 4 10 8 7 7 9 13 13 11 8 6 7 9 12 10 11 12 13 13 16 22 28 28 29 30 28 27 25 24 23 21 18 16 13 11 9 6
5 5 2 7 14 3 5 4 8 8 11 13 14 14 12 11 10 10 11 8 7 11 12 13 11 15 21 25 26 31 28 28 26 25 24 22 21 19 16 14 11 9 7 5
14 6 3 4 7 15 1 2 6 3 5 9 14 12 11 11 8 5 11 6 10 13 13 14 19 22 25 26 28 29 27 25 24 23 22 20 19 17 14 12 10 7 5 3
10 10 5 3 5 4 4 4 2 3 4 11 7 7 7 7 5 3 7 7 12 13 18 20 22 24 26 25 27 28 26 24 22 21 21 18 16 15 13 11 8 5 4 2
4 3 12 10 5 9 6 4 3 4 5 5 7 5 4 6 4 4 7 10 11 14 20 22 23 23 25 26 26 25 24 22 21 22 22 19 15 15 12 9 6 4 2 3
7 6 4 4 5 7 1 2 5 3 3 4 1 4 5 8 8 7 9 11 12 14 19 22 22 21 21 23 26 24 22 24 28 25 22 19 15 12 9 8 5 4 3 3
4 6 2 7 5 3 2 5 4 2 6 5 3 3 5 7 8 9 10 12 11 13 16 19 24 24 20 18 24 26 23 29 27 25 20 15 12 10 8 6 4 1 3 4
5 5 4 3 3 8 3 2 1 2 2 3 3 4 9 9 11 12 11 11 11 14 16 21 24 24 21 21 26 30 29 28 26 19 16 13 10 8 6 4 2 2 4 5
1 5 5 6 12 10 2 2 1 2 5 6 6 4 8 14 13 13 13 13 12 16 19 20 22 22 22 25 27 28 28 22 18 16 13 11 8 6 4 2 2 3 4 4
5 5 4 3 2 3 3 3 2 2 5 7 10 11 9 11 13 14 13 14 17 18 20 21 22 24 23 25 24 22 17 16 17 15 11 8 6 4 3 3 3 5 3 6

GFSCGP_925_spd_045.txt.gz
Wind_Speed
9 9 13 16 15 16 3 7 10 10 9 17 19 21 21 20 22 23 21 21 22 23 19 24 26 27 30 31 29 28 24 22 21 22 23 23 21 21 21 22 21 19 18 17
6 14 15 9 8 10 12 13 14 14 13 10 18 28 24 26 27 24 25 25 25 24 23 23 29 29 30 31 30 28 28 24 24 22 22 22 20 19 18 16 18 18 18 18
9 1 7 13 10 10 12 13 13 15 15 18 22 26 23 16 19 25 27 27 25 23 23 23 23 28 28 30 30 29 28 26 25 23 22 19 22 18 17 19 20 19 21 22
12 7 4 9 12 11 11 9 10 11 9 6 4 10 17 17 17 16 15 15 15 18 19 19 21 21 27 30 29 28 29 26 26 25 26 27 21 19 18 26 22 21 18 20
6 7 13 11 12 8 5 2 5 7 9 12 14 8 12 8 14 13 11 12 12 12 14 15 16 21 26 26 29 27 26 26 26 28 26 27 21 19 25 26 26 24 20 19
8 4 7 9 6 9 3 4 8 8 8 8 15 15 15 6 7 8 8 5 6 8 10 11 14 18 20 24 21 26 26 26 27 28 25 26 25 27 28 29 28 28 23 20
12 14 7 9 7 6 8 2 2 4 4 8 2 11 17 13 17 7 7 9 9 9 11 13 14 13 17 20 24 23 25 26 27 27 26 26 26 26 29 33 31 30 26 25
9 6 18 11 13 5 14 8 4 5 4 8 7 10 6 10 2 5 7 10 12 12 12 11 15 14 17 19 23 24 26 26 27 27 25 24 25 25 26 27 31 27 25 23
6 2 2 8 7 12 6 8 10 11 16 10 9 16 17 19 19 9 12 16 14 10 9 13 16 15 17 18 23 24 26 25 26 26 26 24 24 25 27 28 27 30 24 22
0 3 6 6 5 10 12 0 2 2 5 7 10 16 13 12 12 9 9 9 10 9 9 13 14 13 16 19 21 25 28 27 26 26 26 26 24 24 30 30 29 30 25 21
6 3 6 5 10 12 10 10 6 6 7 5 10 10 12 10 9 9 11 9 7 11 11 11 11 12 10 16 21 25 26 26 27 26 26 26 25 27 31 33 29 27 23 20
9 3 5 11 8 8 14 11 16 6 7 7 10 20 14 18 10 14 16 14 11 11 7 9 11 4 7 14 18 22 25 26 27 26 27 27 30 32 33 30 27 23 21 17
10 5 3 3 3 7 9 16 17 17 14 22 14 15 4 12 17 15 13 13 13 12 6 5 6 4 7 11 17 21 23 25 27 28 29 31 30 32 30 29 25 22 19 16
8 4 7 4 8 6 5 13 16 14 7 22 23 33 28 25 19 17 17 17 15 12 5 5 4 6 8 12 19 22 23 25 28 30 31 31 30 31 29 26 23 20 17 15
5 5 10 16 20 20 19 20 19 18 20 15 30 26 28 22 21 17 15 15 13 7 5 3 5 8 9 15 20 21 22 26 30 31 31 30 30 29 26 24 21 19 16 13
4 4 6 12 19 18 16 18 20 19 18 15 16 21 21 17 11 11 13 10 7 11 3 5 7 12 13 16 18 22 25 27 30 31 31 30 28 26 24 23 20 17 14 12
5 2 3 5 9 17 6 6 6 9 12 7 9 10 11 10 7 9 10 11 13 16 10 10 11 13 15 18 21 23 27 31 31 32 30 28 25 25 22 21 18 15 12 10
6 8 3 6 11 3 8 4 4 8 10 9 14 14 12 12 7 7 9 12 7 12 12 12 12 14 19 23 22 25 29 30 31 29 27 24 24 23 20 18 15 12 10 8
10 3 3 3 6 14 8 2 5 2 3 8 11 9 10 6 5 2 11 8 10 11 12 12 18 22 24 23 26 26 29 29 28 25 23 22 22 22 18 16 13 10 8 6
10 9 3 3 4 3 2 4 2 3 2 10 9 11 11 10 1 3 7 9 14 14 16 18 22 25 25 22 23 26 25 25 23 22 22 20 20 19 17 14 11 8 6 3
5 3 8 8 5 8 9 3 4 4 5 6 5 9 10 6 5 5 9 10 14 15 19 23 23 23 24 25 26 25 24 22 23 23 22 20 19 19 15 12 9 7 4 1
8 8 4 4 5 8 1 2 5 4 2 2 2 4 6 6 8 9 10 12 12 13 17 20 21 21 22 22 24 24 23 23 24 25 24 21 19 14 11 10 7 4 2 2
5 6 4 7 6 7 1 7 8 5 6 3 4 3 7 6 4 7 8 12 10 11 15 18 20 21 19 19 22 25 21 26 28 26 23 18 15 12 9 7 5 2 2 4
7 7 5 3 5 9 7 7 1 3 5 3 3 5 7 7 9 10 10 10 10 15 17 20 21 20 20 20 23 28 27 26 26 22 17 14 12 9 7 5 3 1 2 4
3 6 5 11 16 9 6 5 4 3 3 5 2 4 9 11 9 9 8 9 10 14 17 17 18 19 20 24 24 25 26 24 21 17 15 12 9 7 5 3 1 1 2 3
7 8 5 5 6 4 5 4 4 4 4 4 7 9 9 11 12 12 10 12 15 15 18 20 21 23 22 23 24 23 19 18 18 15 12 9 7 4 3 1 2 4 5 8

GFSCGP_925_spd_048.txt.gz
Wind_Speed
9 5 9 12 12 14 11 6 11 5 7 8 10 14 14 13 14 17 15 14 16 16 11 18 21 21 27 32 29 34 34 32 31 27 28 27 27 23 28 27 28 28 27 23
3 8 10 8 5 7 9 7 10 9 8 7 10 19 17 21 18 19 19 18 16 14 10 11 19 22 27 25 26 27 25 34 36 34 29 25 25 27 32 29 27 27 26 26
6 1 11 11 4 4 6 6 8 10 11 10 12 16 11 10 19 22 21 20 13 13 14 13 11 21 26 30 28 27 27 29 34 32 29 24 25 28 27 30 28 28 29 27
7 6 5 6 9 6 6 2 5 6 6 4 11 7 6 9 10 8 10 10 13 16 13 10 10 11 24 28 33 31 30 31 26 33 31 34 29 23 28 35 33 27 26 24
5 3 6 5 6 6 2 5 4 5 5 7 4 3 7 4 7 6 8 11 10 9 9 9 10 15 22 18 24 37 33 33 32 37 32 36 29 23 30 30 30 25 23 25
5 3 3 5 2 3 6 2 4 4 2 5 10 9 5 3 4 6 9 6 7 6 5 5 6 6 9 17 24 17 31 30 33 34 32 36 35 33 33 31 32 30 27 25
5 7 3 3 7 4 3 3 1 2 2 6 3 9 11 15 12 15 8 2 5 4 0 4 6 5 13 19 20 23 19 29 28 30 27 31 31 34 36 36 36 35 30 27
7 4 14 10 8 5 9 4 2 4 2 4 7 7 6 12 9 3 4 4 3 5 2 2 4 6 16 19 20 22 20 25 27 29 28 27 31 31 33 35 35 32 30 30
7 2 9 12 6 8 5 7 1 3 4 2 5 6 9 14 10 9 3 6 7 9 5 1 6 9 20 23 22 21 21 24 26 30 26 27 33 31 33 32 32 31 30 30
5 3 2 7 6 8 7 6 3 1 2 5 5 7 7 4 6 7 6 5 7 6 4 1 4 8 22 25 19 25 25 25 28 28 28 31 31 30 32 31 32 31 30 28
4 2 2 5 7 9 7 5 2 1 3 3 4 5 4 5 7 7 9 9 8 3 4 2 5 13 25 17 14 19 26 24 28 28 31 35 33 33 33 31 33 33 32 29
6 3 3 8 8 12 11 6 8 3 4 4 2 7 16 9 2 2 5 7 10 6 3 4 2 10 20 10 8 21 23 26 28 34 35 34 34 33 32 33 34 31 30 25
7 3 2 3 2 6 4 6 9 10 4 12 6 6 3 14 20 20 21 11 7 7 4 5 1 6 7 4 9 18 23 28 33 34 34 33 31 31 31 34 32 32 28 25
10 4 4 2 4 2 3 6 7 6 5 13 19 25 25 22 24 22 19 17 10 7 3 5 3 5 3 12 18 22 27 29 31 33 32 30 30 32 33 32 30 31 27 24
4 3 5 10 13 9 10 10 13 15 20 12 23 23 26 23 22 16 8 12 11 17 8 5 4 3 6 11 18 22 27 28 31 31 29 28 31 33 33 31 29 27 25 22
3 2 4 5 12 12 12 16 16 19 19 16 19 24 16 20 6 7 6 3 8 9 4 4 1 6 8 14 17 21 25 28 30 29 29 31 32 33 32 32 30 26 23 20
6 3 1 3 7 9 8 9 9 4 7 8 9 17 14 16 13 7 8 9 12 12 6 7 7 10 12 15 19 20 24 26 28 28 29 30 31 31 30 30 28 23 20 17
5 5 2 4 8 4 2 6 6 7 8 8 13 14 11 8 4 9 10 9 7 5 9 10 10 13 16 19 21 22 23 25 27 26 28 29 29 28 28 27 25 21 17 14
5 2 2 2 5 9 3 4 1 1 3 4 8 12 12 1 2 7 13 11 8 11 10 11 17 18 19 20 22 25 25 27 26 26 27 27 26 24 25 24 21 18 15 11
6 5 0 3 3 3 2 4 4 7 2 4 1 8 11 7 4 3 8 11 12 11 16 20 22 22 24 22 24 25 26 27 25 25 26 24 24 24 24 21 18 14 11 8
4 2 6 4 3 6 7 7 6 1 4 3 1 5 7 4 4 5 12 11 11 14 18 21 23 23 24 27 30 26 22 21 23 29 29 24 22 23 20 18 14 11 8 6
6 6 3 3 3 7 1 3 0 2 2 3 3 1 4 6 6 9 10 12 11 12 16 21 21 21 24 26 28 23 21 21 24 29 29 27 22 19 17 15 11 9 6 5
5 6 5 6 6 7 4 6 2 3 2 3 2 4 5 7 4 7 7 9 9 12 15 18 20 21 21 24 25 26 24 28 29 29 26 22 20 17 13 12 9 7 5 4
4 8 3 4 5 9 4 6 6 5 4 4 2 3 5 9 8 9 9 8 8 12 16 19 21 21 20 25 25 26 27 27 27 25 23 20 18 14 11 10 8 5 4 4
1 1 4 6 9 2 6 5 4 4 5 3 1 3 6 10 9 9 8 8 9 15 18 19 18 19 21 22 23 24 26 26 25 23 20 18 13 11 10 7 5 4 4 6
4 5 4 3 3 1 2 3 4 5 3 3 3 5 7 9 10 10 7 9 12 13 21 20 19 21 21 24 25 23 21 22 23 21 16 13 12 10 8 6 5 5 6 8

GFSCGP_925_spd_051.txt.gz
Wind_Speed
4 3 5 9 6 5 4 3 5 4 5 4 8 9 12 9 12 17 13 11 14 14 10 17 20 29 35 33 36 35 31 34 39 36 31 30 34 38 30 35 32 34 35 33
3 4 5 6 9 9 9 7 4 6 3 5 10 18 16 19 15 19 20 14 16 15 11 11 21 24 22 29 33 33 33 34 38 36 39 27 34 32 34 34 36 37 38 34
6 4 7 5 5 4 2 2 2 4 6 4 9 10 8 8 16 21 21 18 15 17 13 11 11 22 24 22 25 23 21 27 39 37 35 27 31 28 30 31 36 38 37 34
3 3 2 5 4 4 1 5 1 3 4 4 4 6 6 8 8 5 10 13 17 15 8 10 10 14 26 26 24 25 26 22 31 38 36 36 34 23 23 39 38 39 37 34
6 5 5 3 3 4 3 5 5 4 3 5 3 2 7 6 4 5 3 9 11 11 12 12 10 18 28 23 19 25 32 31 26 38 37 38 30 30 33 37 38 37 36 33
4 5 4 5 2 4 6 3 3 3 3 2 7 5 4 2 4 2 4 9 5 6 5 4 4 5 6 6 12 17 18 31 33 33 41 41 40 37 35 34 37 37 34 32
3 3 1 2 4 3 4 5 2 1 1 6 2 4 7 10 13 8 9 7 6 6 5 4 7 5 6 7 11 15 17 20 27 33 38 41 42 44 43 41 38 36 33 32
5 1 8 5 5 6 5 5 4 5 3 4 4 6 6 7 10 9 6 2 5 2 1 3 6 3 4 8 15 17 23 21 22 31 36 39 40 39 38 38 36 33 33 33
4 3 6 7 3 6 3 3 4 1 3 3 5 7 9 8 7 7 8 6 8 9 6 6 4 3 3 10 18 21 24 26 22 31 37 36 37 37 36 35 33 31 31 34
2 4 7 5 4 4 5 4 3 2 0 4 5 5 7 4 7 7 8 7 8 8 9 4 1 1 6 13 20 28 24 27 26 34 36 34 33 32 31 32 33 32 30 31
1 4 2 3 5 8 5 2 2 3 4 4 2 6 5 4 4 1 4 7 8 9 8 9 7 4 4 11 19 24 20 22 29 29 30 34 32 30 31 32 32 31 31 33
2 3 3 7 5 7 4 5 5 4 5 3 2 8 8 13 4 7 17 16 14 10 17 7 7 2 5 9 18 17 13 24 28 31 33 32 31 31 33 32 31 34 33 31
5 3 3 3 3 4 5 8 5 3 2 6 2 6 2 7 15 20 14 15 14 16 8 3 1 1 4 7 4 12 21 27 31 34 34 31 31 31 31 31 32 33 32 30
5 4 5 5 2 4 4 5 7 9 3 4 10 14 22 18 19 22 20 9 5 5 8 5 3 2 4 7 12 19 23 27 31 33 31 31 31 28 31 31 31 35 33 30
3 3 2 5 7 5 7 7 9 9 16 8 21 16 22 21 23 21 18 9 10 10 5 7 6 1 4 15 14 16 18 24 31 30 30 28 29 29 30 30 31 34 34 29
2 1 2 5 9 10 10 12 13 17 20 16 23 26 22 16 15 11 8 9 11 10 6 5 3 6 7 12 15 15 19 20 26 28 30 29 30 29 29 30 32 34 29 24
4 3 1 4 4 3 5 10 16 7 7 10 11 13 13 15 8 7 10 11 10 10 6 6 6 7 12 15 19 17 20 24 25 26 27 27 28 27 29 31 31 30 26 22
5 4 3 3 4 1 4 3 6 9 5 6 9 10 11 12 3 7 9 8 9 11 12 11 10 15 19 22 22 23 22 24 24 24 26 27 30 29 27 28 28 26 22 19
3 4 2 2 3 6 1 2 3 5 4 4 6 9 9 7 4 5 10 11 10 11 10 12 18 20 21 24 25 28 26 27 28 26 27 27 26 26 27 26 23 21 20 15
4 3 1 2 1 3 1 2 2 4 2 6 6 5 8 7 2 2 7 8 11 12 13 15 19 24 24 22 28 29 25 30 28 25 24 26 27 27 27 22 20 15 15 13
3 3 4 6 3 6 8 4 3 2 4 4 4 2 2 2 3 5 7 8 12 12 15 17 19 22 25 29 32 28 29 24 27 24 28 25 24 23 20 18 16 14 12 10
7 6 4 5 3 7 3 3 3 5 2 2 4 5 6 7 8 10 9 8 9 10 14 15 16 18 20 17 25 21 21 27 27 27 25 25 22 19 20 18 14 12 10 9
3 6 5 7 6 6 3 4 1 2 1 2 3 5 8 9 8 10 8 7 10 12 13 12 15 16 17 19 22 20 24 29 27 23 23 23 19 17 15 14 12 11 8 8
4 6 3 2 5 10 11 1 1 2 1 1 1 6 8 8 9 11 10 9 8 12 14 16 17 17 17 18 17 22 21 23 26 24 20 20 19 16 13 11 9 8 7 5
4 3 5 5 8 1 1 1 1 2 2 1 1 4 7 11 9 10 9 10 10 15 16 16 16 15 16 22 23 24 26 26 26 25 21 17 15 13 12 10 8 7 7 7
4 6 4 4 3 2 2 1 1 2 2 1 3 5 8 11 10 10 8 12 15 14 17 17 18 18 18 22 21 22 23 24 26 22 18 16 14 12 9 9 8 7 6 5

GFSCGP_925_spd_054.txt.gz
Wind_Speed
5 3 5 8 9 4 6 2 4 4 4 3 7 6 10 10 8 12 13 13 14 15 13 20 24 27 32 36 36 31 30 34 39 35 30 30 34 38 36 39 36 33 34 31
3 4 5 4 5 4 3 4 6 7 2 2 6 12 15 15 13 17 22 19 15 10 8 9 21 23 19 22 32 37 36 32 40 39 40 33 38 37 37 39 35 36 35 36
6 5 7 5 3 5 4 4 3 4 5 1 7 9 7 6 7 15 18 17 13 16 17 13 11 22 27 25 22 21 31 31 32 39 36 32 33 27 34 35 38 40 41 42
3 3 7 5 3 4 4 1 2 4 4 4 5 5 6 7 9 6 6 8 14 14 11 12 10 15 26 27 25 21 20 22 26 35 37 36 31 22 33 41 42 43 40 43
6 8 8 4 5 5 3 5 4 3 3 4 2 2 8 5 6 2 1 5 8 11 8 9 9 19 25 24 27 26 25 24 23 32 38 38 29 30 34 38 40 40 38 40
3 3 3 4 3 6 6 5 6 4 3 2 4 5 6 3 4 3 5 10 9 3 6 8 12 13 8 6 7 12 13 16 20 28 34 40 32 33 31 33 35 35 36 35
2 2 2 3 7 3 6 6 2 4 2 6 3 4 9 9 11 4 9 10 7 8 5 2 5 6 9 8 5 4 6 12 14 18 29 35 42 42 41 40 39 38 36 34
5 2 6 3 4 5 4 6 4 5 2 4 2 5 5 5 7 6 5 7 8 9 7 6 5 3 4 4 2 2 7 10 16 21 24 34 37 41 38 40 40 38 39 39
5 1 2 4 4 6 4 2 3 4 3 3 4 6 9 4 6 6 7 9 9 8 7 8 4 7 9 6 6 7 10 16 21 26 26 31 35 35 39 39 37 37 36 34
5 4 5 3 4 3 5 6 3 3 1 3 4 5 5 2 3 5 10 11 13 14 15 8 6 10 14 13 9 10 13 18 24 24 25 29 36 38 38 37 36 35 34 33
2 4 0 3 3 6 3 1 3 4 4 3 2 6 5 4 3 4 6 6 6 8 11 10 12 16 23 14 12 12 14 16 15 20 24 26 31 33 33 34 33 33 34 33
2 5 3 3 2 4 4 5 5 4 4 1 1 7 4 3 3 5 14 7 14 7 11 10 11 13 9 12 11 11 12 9 17 24 25 26 29 30 31 31 31 32 32 32
3 2 3 2 4 2 4 5 4 4 3 5 4 6 1 6 13 13 11 15 11 7 7 6 7 7 8 12 10 6 5 12 20 23 27 28 29 29 29 30 32 31 31 32
6 2 4 5 4 4 4 5 8 6 3 3 7 11 15 16 13 18 19 15 12 9 8 8 6 4 10 8 5 4 7 10 16 23 25 27 26 27 31 30 30 31 32 33
4 3 4 5 6 2 4 6 8 13 16 6 3 8 17 18 18 19 16 11 12 12 12 11 4 3 2 3 11 14 12 12 12 17 23 24 26 28 27 30 28 30 30 30
2 1 1 4 6 8 7 10 10 13 15 15 21 24 23 18 8 10 9 11 11 12 13 7 4 6 5 8 14 18 19 17 16 17 18 23 26 27 27 29 29 32 32 29
4 3 1 4 3 1 5 11 15 7 7 10 13 17 13 9 10 5 8 9 9 12 13 6 8 7 10 16 19 22 23 24 25 22 22 23 27 29 30 32 33 31 27 23
5 4 3 3 3 3 5 4 7 14 10 11 14 14 10 7 5 4 5 7 8 8 9 9 7 13 16 20 23 26 29 30 26 22 24 25 32 31 33 33 31 27 25 20
4 3 2 2 2 6 2 2 4 6 5 7 8 7 6 4 5 1 4 4 4 5 6 9 11 14 18 22 24 28 27 27 25 19 21 28 35 33 30 26 26 22 21 17
3 4 2 1 1 3 2 2 3 4 4 8 7 7 4 3 0 2 3 4 5 7 9 11 13 16 18 19 25 27 23 25 24 23 27 30 30 29 26 25 23 20 14 12
3 2 4 4 3 7 7 2 3 2 5 4 4 4 2 2 1 2 4 6 8 10 13 14 15 16 14 15 18 19 21 20 23 27 30 27 25 26 23 21 18 16 13 10
6 5 3 3 3 7 3 3 2 3 4 2 3 4 4 7 6 5 5 6 6 8 11 12 14 15 14 15 21 19 20 23 25 28 27 26 24 21 19 17 15 12 12 12
4 6 5 7 6 5 3 4 4 2 3 3 2 4 7 8 6 7 6 6 6 9 10 10 11 14 14 13 22 21 18 24 25 26 24 21 19 15 15 15 13 12 9 8
4 6 3 2 5 8 8 5 2 1 2 2 1 5 8 8 9 7 6 7 7 11 10 11 12 12 12 15 19 24 23 23 22 20 19 17 16 15 12 11 10 9 8 6
4 4 3 5 7 7 3 3 2 2 2 2 2 5 7 12 10 10 7 7 8 11 12 12 13 14 15 18 19 19 19 20 22 19 19 17 16 15 14 12 9 8 7 6
4 7 4 4 5 4 3 3 2 2 2 2 4 5 8 10 12 11 9 9 11 12 13 13 13 16 15 20 19 18 20 20 22 20 17 15 14 12 11 9 9 7 5 4

GFSCGP_925_spd_057.txt.gz
Wind_Speed
7 2 10 13 7 2 6 4 2 2 3 3 5 5 14 9 6 9 13 15 14 13 13 17 26 22 21 25 25 27 27 30 35 33 29 28 31 36 38 38 39 37 36 34
3 3 8 12 10 4 2 2 3 5 1 1 5 9 16 13 10 13 17 16 15 9 9 9 20 23 22 23 24 24 25 30 36 36 38 29 35 36 44 42 41 39 37 36
4 5 10 10 8 6 3 4 3 3 4 2 7 7 7 3 5 8 9 13 13 14 16 13 10 22 25 23 23 19 17 25 33 37 34 29 26 23 31 33 40 41 40 38
3 3 9 8 5 6 4 3 3 3 3 2 5 5 6 5 8 6 8 7 9 12 12 10 7 12 22 27 27 24 24 20 22 33 32 34 30 25 28 37 40 40 42 39
3 2 8 4 4 5 3 5 5 3 4 3 2 2 8 3 4 5 4 6 9 9 7 8 8 15 18 18 19 20 21 18 16 24 35 37 30 28 30 37 39 39 41 39
3 2 3 2 4 4 8 5 6 4 2 2 3 3 6 2 2 5 5 8 10 11 10 8 13 12 13 12 14 15 15 17 20 20 28 38 34 30 29 33 33 39 40 38
4 2 2 4 7 5 5 6 2 3 3 4 3 2 8 9 7 4 5 6 8 9 12 12 10 9 13 7 3 4 8 11 12 13 19 29 33 32 37 38 38 39 40 38
4 2 4 1 4 6 1 5 4 4 2 3 1 5 5 5 5 6 4 2 7 9 7 8 9 9 11 13 11 7 5 9 9 11 14 19 28 34 36 36 37 39 39 37
4 3 1 3 3 5 4 2 3 5 3 2 3 7 8 2 5 6 7 9 8 8 8 6 7 14 17 17 16 15 13 13 14 16 18 17 22 30 34 36 36 34 36 36
4 4 2 2 4 4 4 7 3 3 2 3 4 5 4 3 3 5 10 10 9 8 9 7 5 9 19 24 28 23 18 18 18 20 22 22 22 28 32 33 34 34 33 32
4 3 2 4 3 5 3 1 5 4 2 3 1 5 5 4 3 5 9 8 8 8 8 9 7 10 14 20 21 19 21 20 19 20 19 19 21 26 27 29 30 30 29 31
1 4 3 2 1 3 3 5 4 4 3 1 1 6 3 6 7 3 8 7 9 8 8 8 7 14 15 16 19 17 17 15 16 13 13 15 18 20 22 23 25 27 26 26
3 2 3 2 2 2 3 4 4 5 3 5 5 5 2 5 5 6 9 11 11 10 9 7 7 8 7 10 12 14 14 10 7 6 7 11 14 18 19 21 22 23 25 26
5 3 4 5 3 4 3 4 6 5 3 3 7 7 11 13 13 13 13 6 8 10 8 8 7 5 5 7 10 11 10 13 7 1 7 10 12 15 19 22 23 24 27 28
4 2 2 3 4 2 5 4 8 11 9 6 3 6 11 12 14 17 3 6 10 10 11 12 9 5 8 10 18 15 17 12 10 12 14 15 16 18 22 22 26 28 29 31
2 1 1 3 4 6 5 7 8 9 10 12 19 22 24 19 13 5 3 8 9 10 13 10 9 7 8 12 16 16 17 16 20 23 21 21 22 24 26 29 29 32 34 33
3 3 2 4 4 3 5 8 13 7 5 14 12 20 13 9 8 4 3 5 8 9 9 9 8 7 9 11 13 15 17 21 23 26 25 23 23 26 26 29 31 32 33 31
4 4 2 2 4 2 6 3 6 14 9 14 14 14 14 6 3 2 3 4 5 6 5 5 5 8 9 9 11 13 15 21 25 24 24 25 25 25 28 32 33 30 28 25
4 3 2 1 2 6 1 3 5 6 5 11 15 13 3 4 1 2 5 4 2 3 5 6 7 9 10 8 9 12 14 15 18 24 27 26 25 27 29 32 30 27 25 21
4 4 3 1 1 3 2 1 2 4 3 5 8 7 1 1 3 1 3 3 4 8 7 7 8 11 12 11 11 13 12 13 15 17 20 24 28 29 28 30 27 23 19 18
3 2 4 5 3 6 7 6 2 2 3 4 2 5 3 3 1 5 6 4 6 8 10 12 13 13 12 13 14 14 16 18 20 23 27 28 27 26 26 25 20 18 17 16
6 5 3 3 3 6 3 1 3 3 2 3 3 2 3 3 6 7 6 6 6 7 9 9 12 14 12 12 17 16 18 20 23 25 26 24 22 21 21 20 17 15 15 15
3 5 4 7 5 5 4 5 5 3 3 3 3 3 5 6 5 7 6 6 5 8 8 8 10 11 10 10 16 16 17 22 24 23 21 19 19 18 15 15 14 13 11 10
4 4 3 1 4 11 10 6 4 3 3 2 3 4 6 6 8 7 6 7 6 9 8 9 11 10 11 15 18 20 20 20 20 20 18 17 17 15 13 12 11 12 10 9
4 5 4 4 7 9 7 5 3 3 1 2 3 4 7 8 8 8 6 6 8 9 10 10 10 11 12 17 18 18 18 18 17 17 17 16 15 14 14 13 11 10 10 8
5 7 4 5 4 3 7 2 1 4 3 5 4 3 5 8 9 9 7 10 13 13 14 13 14 14 14 16 16 16 16 16 19 18 15 14 13 12 11 11 12 10 9 7

GFSCGP_925_spd_060.txt.gz
Wind_Speed
10 6 14 20 12 5 7 5 4 3 2 0 5 5 11 11 6 7 10 12 12 12 11 19 24 23 20 19 20 26 29 30 32 32 29 27 29 29 31 39 37 35 33 33
4 5 9 12 7 7 8 7 4 1 1 2 5 8 14 14 8 11 13 13 10 8 9 11 20 22 22 24 23 23 28 32 33 34 35 27 31 28 34 37 38 38 37 36
6 6 9 5 10 4 2 5 3 2 2 2 6 6 6 2 4 4 6 6 6 9 15 12 8 19 22 23 23 23 23 30 34 36 33 27 23 26 22 28 35 39 38 39
4 8 15 16 5 8 2 4 4 4 3 3 3 4 6 4 8 5 6 8 9 11 8 6 6 12 16 20 21 23 21 20 26 31 30 30 28 26 28 32 41 40 39 40
1 8 11 13 9 7 4 5 5 4 4 1 2 3 7 2 4 6 8 6 7 7 7 8 6 9 11 11 13 16 22 22 21 24 31 33 27 25 25 30 34 36 38 40
3 3 3 2 6 4 10 6 6 4 2 2 2 3 5 1 2 4 4 6 7 8 8 7 8 15 16 13 9 7 11 16 19 19 24 32 33 31 29 29 32 36 37 38
5 4 3 5 8 4 3 4 2 4 3 4 2 1 7 6 4 1 2 6 7 8 10 10 13 12 21 20 16 12 8 9 10 16 21 27 34 33 34 34 34 32 34 36
4 1 1 1 4 6 2 4 4 4 2 2 3 5 4 3 2 5 2 5 4 8 7 8 9 14 20 22 21 19 16 14 9 8 11 15 23 29 32 33 33 34 35 37
4 3 1 2 3 2 3 3 2 6 3 2 3 6 6 3 1 4 7 7 8 7 7 8 7 12 16 21 24 23 23 21 18 14 13 14 16 21 26 30 31 33 32 32
2 5 3 2 3 7 3 7 3 3 2 3 4 4 3 2 3 7 9 9 9 7 8 7 7 12 15 18 20 21 19 17 20 20 18 17 17 19 23 27 29 29 28 27
4 4 0 3 1 4 2 1 4 4 3 3 1 4 5 7 6 3 6 6 6 8 8 8 7 14 14 16 15 17 18 17 16 16 16 16 16 16 19 23 24 23 22 23
2 4 3 1 1 2 3 5 4 4 3 1 1 5 3 6 4 7 7 8 7 6 7 7 8 14 13 13 13 15 16 16 14 14 14 14 12 11 12 15 14 15 17 19
4 2 3 1 1 1 3 4 4 5 3 5 4 4 3 3 7 7 7 6 6 7 8 10 10 8 11 13 14 14 14 14 13 12 10 9 6 2 4 6 8 13 17 19
5 3 4 5 3 3 3 4 5 5 3 3 5 6 6 6 8 11 10 3 6 6 8 10 7 5 9 10 11 13 14 14 11 9 8 8 5 6 9 12 15 17 21 26
3 3 1 4 2 3 4 4 8 6 5 5 3 6 8 9 12 12 8 3 5 5 5 6 8 6 7 8 12 13 13 13 10 12 15 12 13 14 17 20 20 21 22 26
3 1 2 3 2 6 4 7 8 9 7 9 9 18 18 16 10 7 2 4 5 4 7 8 6 5 6 13 13 14 15 12 12 17 17 18 20 22 22 23 24 25 26 28
3 3 2 3 4 3 4 7 11 6 5 8 7 11 8 9 8 4 3 2 4 5 6 6 6 5 11 11 11 13 13 10 13 16 16 18 21 24 25 24 25 25 28 34
4 4 2 2 4 2 4 1 6 12 4 11 9 11 12 6 3 2 2 2 3 5 6 5 5 7 8 8 10 9 10 11 13 14 13 17 21 25 26 27 28 29 29 30
2 3 1 1 2 6 0 2 5 5 1 9 12 12 12 2 2 2 2 3 3 4 4 6 7 8 7 9 9 11 13 13 14 12 13 12 20 24 27 27 26 25 26 26
5 5 3 0 1 2 2 2 2 1 2 2 6 9 5 2 3 1 2 2 5 7 6 7 6 8 10 9 9 13 12 14 14 12 14 16 20 25 26 25 24 22 21 22
2 1 3 1 2 6 6 5 1 2 3 4 1 4 4 4 1 4 5 5 6 5 6 8 8 7 7 9 9 13 13 14 14 15 17 19 22 25 24 23 20 19 18 18
5 4 2 3 3 6 4 0 2 2 3 4 3 3 1 5 7 6 6 6 5 5 5 7 6 8 8 10 15 15 13 14 18 19 21 22 22 20 19 19 17 16 16 16
3 5 3 6 5 4 2 4 5 3 6 4 2 2 3 6 5 8 6 7 5 7 7 7 9 9 8 8 13 16 14 17 20 21 20 18 17 16 14 15 14 14 11 11
3 3 3 1 3 7 9 6 4 3 4 3 2 1 5 6 8 7 8 7 7 8 8 9 9 10 12 13 14 16 16 19 18 18 18 16 16 15 13 13 11 11 9 9
4 4 4 4 6 6 2 2 2 2 4 4 3 2 5 7 8 8 8 8 10 10 9 9 11 10 12 16 16 16 15 15 18 18 16 15 14 14 14 14 11 11 10 7
4 7 4 5 6 3 5 3 1 5 4 5 3 2 4 6 10 9 8 11 12 13 14 12 13 14 15 16 15 15 13 14 17 17 15 14 14 13 13 14 15 11 10 8

GFSCGP_925_spd_063.txt.gz
Wind_Speed
12 10 14 18 10 4 8 7 4 3 2 3 4 5 9 10 6 8 10 11 12 11 10 18 24 24 22 21 22 24 29 30 27 26 26 25 30 31 32 36 34 35 33 33
3 12 9 9 8 4 12 9 5 1 2 2 2 7 12 11 7 9 11 10 8 8 9 12 18 22 22 24 26 25 26 31 30 28 28 23 28 28 32 27 30 36 35 35
5 6 7 10 17 12 4 10 4 4 2 2 3 5 3 1 3 4 5 2 3 6 10 10 10 13 16 19 23 25 27 27 31 31 28 23 19 21 21 29 32 35 37 38
7 6 14 5 7 5 7 1 5 6 3 2 3 3 2 2 10 10 7 8 8 8 8 7 7 6 6 10 12 18 24 24 26 30 25 26 23 23 26 27 32 28 34 38
2 15 16 12 6 4 2 5 3 3 4 1 1 2 3 0 5 4 6 6 7 8 7 9 9 13 14 11 6 6 12 19 21 21 28 29 28 27 27 27 24 28 31 35
5 2 4 2 17 12 10 6 6 4 2 0 1 2 2 2 3 2 1 4 6 8 7 6 9 14 16 16 16 14 6 6 13 18 21 28 26 26 25 30 28 27 28 32
3 4 4 5 10 3 3 3 2 2 1 2 1 2 5 2 2 4 2 4 5 6 8 9 10 12 17 22 20 16 14 12 8 6 14 21 25 24 31 29 29 23 28 31
3 4 2 2 3 6 2 3 3 4 3 2 1 5 2 3 4 4 1 4 5 6 7 8 8 11 16 19 21 21 17 13 10 8 6 7 16 24 28 30 31 31 31 32
4 4 3 5 2 2 2 2 2 6 2 1 2 4 3 2 2 1 2 2 5 5 6 7 9 12 11 17 18 19 19 15 10 8 9 9 10 13 18 23 25 27 28 28
2 6 3 1 3 9 2 6 2 2 3 3 2 3 4 5 4 1 3 4 4 4 6 6 7 10 9 13 13 14 14 14 12 9 7 8 8 9 13 17 20 22 23 23
4 4 1 1 1 6 2 2 4 3 1 3 1 3 5 9 7 2 4 4 2 5 7 7 9 11 11 10 11 12 14 14 13 11 8 5 5 5 6 9 13 15 16 16
1 5 4 2 1 2 2 3 3 3 3 1 1 4 1 5 5 2 6 5 4 5 7 9 10 11 9 12 14 14 15 13 13 12 10 9 8 9 8 6 6 7 10 11
4 2 4 1 1 2 2 4 4 4 2 4 3 3 1 2 4 8 5 6 5 4 9 9 9 10 10 11 13 16 17 16 13 12 11 11 11 10 8 5 1 3 6 9
6 3 4 4 2 3 2 4 4 4 2 4 5 5 4 4 6 10 9 1 3 5 7 8 9 9 12 15 16 15 16 17 15 13 13 12 11 11 10 8 8 9 12 16
3 3 2 1 2 3 4 4 7 5 5 5 2 5 6 7 7 7 4 2 4 6 6 7 7 6 11 10 10 15 17 16 15 16 15 14 14 14 14 14 15 16 18 21
3 2 2 3 1 4 3 4 7 8 3 7 2 13 13 13 7 4 2 2 3 4 5 5 4 6 7 6 10 12 14 17 16 16 16 14 16 16 15 15 16 17 21 23
3 4 2 2 2 1 4 9 11 5 4 8 7 9 6 5 3 2 1 1 2 2 3 3 2 5 5 8 6 10 11 14 16 17 18 14 13 15 16 17 18 23 25 26
4 4 2 1 2 2 3 1 7 12 4 11 6 9 9 7 1 3 3 2 2 1 2 3 3 5 6 7 8 11 12 15 16 16 15 14 14 15 19 21 24 27 26 25
1 3 2 1 2 5 1 2 5 5 1 9 13 13 10 4 3 2 4 4 3 3 3 4 6 5 7 6 7 12 13 13 16 15 15 14 16 20 22 24 24 24 24 24
4 5 3 1 1 2 2 0 2 2 3 3 7 7 4 2 2 1 5 5 5 5 5 6 6 7 9 7 8 13 14 16 17 15 15 15 19 22 23 22 22 24 24 24
1 1 3 2 2 5 5 4 1 1 3 2 1 4 3 3 1 6 8 6 6 6 8 8 8 10 7 6 9 15 15 15 14 16 18 18 19 21 21 22 21 20 21 20
5 4 3 2 0 5 4 1 1 1 3 3 3 3 2 4 7 8 8 8 6 7 8 7 10 10 8 10 13 15 16 13 16 19 20 21 20 18 18 19 18 17 18 18
3 5 3 6 5 4 3 3 1 1 5 4 1 2 2 6 6 9 8 7 6 7 7 8 9 10 7 8 13 16 13 16 20 21 19 17 17 15 14 16 16 15 13 12
3 3 2 1 1 6 6 5 4 2 3 2 2 2 5 5 9 8 8 8 7 8 8 8 9 9 11 13 15 17 17 17 17 18 17 16 16 15 14 13 12 11 10 9
4 5 4 4 6 5 1 3 3 2 2 2 2 2 4 6 7 9 9 9 10 10 10 10 11 12 12 15 16 16 16 15 18 17 15 14 14 14 15 15 12 10 9 6
5 6 4 5 6 4 5 4 4 5 5 3 3 2 2 5 9 10 9 13 14 13 13 12 12 14 14 15 15 14 14 16 18 17 15 13 13 13 12 14 15 11 9 8

GFSCGP_925_spd_066.txt.gz
Wind_Speed
19 11 9 17 24 12 12 17 10 14 6 12 16 12 15 14 14 14 14 14 13 13 11 13 15 15 15 15 16 20 19 22 21 21 22 23 26 26 26 28 23 23 24 25
11 17 21 15 17 10 12 16 14 3 9 7 6 9 11 14 16 13 14 14 13 10 11 13 14 14 16 17 18 19 20 21 23 23 23 23 21 23 25 25 27 25 25 26
13 2 9 12 17 11 14 15 13 6 7 3 2 8 11 4 2 3 1 1 0 2 4 4 7 9 10 14 17 18 19 20 21 25 24 21 19 17 17 27 32 35 33 28
5 1 13 15 14 13 8 6 11 11 10 4 3 3 4 5 7 7 7 6 5 5 5 6 7 7 4 3 7 12 15 17 18 20 24 25 25 23 24 23 24 24 26 35
4 11 12 2 8 13 4 7 10 6 4 1 5 4 7 8 9 9 7 6 6 5 5 7 8 8 9 9 6 2 7 11 15 16 21 23 25 24 24 24 23 23 23 31
5 3 7 3 4 8 10 9 10 6 2 3 5 4 8 8 9 8 5 5 5 6 6 6 7 8 10 9 8 8 7 2 6 13 15 20 22 22 21 22 23 23 21 26
4 4 4 8 7 10 6 10 4 3 3 1 1 4 4 8 4 8 5 5 5 5 6 6 7 7 9 11 11 9 8 5 4 0 9 14 19 21 21 22 20 21 18 21
3 4 1 4 2 7 14 2 3 5 6 5 3 5 4 2 5 6 1 0 2 5 6 7 8 8 7 9 10 10 11 9 6 3 2 4 9 14 17 18 19 19 19 19
4 3 4 2 1 3 5 3 2 5 2 2 4 3 2 7 10 5 2 3 3 4 6 7 7 8 7 10 11 11 10 9 9 7 6 5 5 6 8 11 13 15 16 17
5 6 4 7 8 8 1 8 3 1 5 4 5 4 6 12 10 6 4 2 2 3 5 6 6 8 8 8 9 10 11 10 10 9 7 6 6 6 6 6 8 10 11 11
5 3 4 3 1 5 4 2 2 1 2 2 4 3 7 17 13 9 4 1 0 2 4 5 6 6 5 7 8 9 11 12 12 11 10 8 7 7 6 6 6 7 7 7
1 5 4 2 3 2 1 2 3 3 4 1 1 3 6 15 11 2 5 2 1 1 4 4 5 6 6 8 9 10 11 11 11 10 9 9 9 8 8 7 7 6 6 6
5 4 5 2 2 2 5 4 3 4 2 4 2 4 3 7 7 7 6 3 1 2 3 4 5 7 8 9 9 10 11 11 11 9 8 9 9 9 9 8 7 7 5 4
3 3 0 3 3 4 4 8 8 3 3 4 4 2 8 8 5 6 3 2 2 2 2 3 5 7 8 8 9 9 10 9 9 10 11 11 11 10 10 10 11 9 9 9
1 3 2 3 2 2 3 5 10 6 3 4 2 4 6 3 7 5 4 2 1 2 2 4 5 4 7 6 7 9 11 11 9 10 11 11 10 11 12 13 13 13 12 13
2 3 2 2 2 5 5 7 10 12 11 11 8 14 10 8 4 4 1 1 1 2 3 4 5 3 7 5 6 8 7 8 9 8 11 11 12 11 13 15 15 18 18 17
1 4 1 0 2 3 5 9 12 8 8 11 9 7 3 7 5 4 3 2 2 2 2 3 3 4 5 3 5 4 6 6 6 8 11 12 13 14 13 14 16 20 21 21
5 4 1 0 2 2 3 2 3 11 5 12 8 10 10 9 7 2 2 4 3 3 3 4 4 5 4 4 5 4 5 6 8 11 13 12 14 15 15 18 22 23 22 23
1 2 2 2 2 4 2 3 4 4 2 11 13 13 11 7 3 4 4 2 3 3 4 6 6 6 7 6 5 5 5 6 9 12 13 12 14 17 19 22 23 23 24 24
4 5 1 1 2 2 2 2 2 2 2 2 8 7 5 0 5 1 8 6 5 5 5 7 7 7 6 5 7 8 8 8 11 13 15 16 17 19 20 19 21 22 23 23
3 1 4 3 3 3 2 2 1 3 5 1 3 6 5 4 2 7 8 6 7 7 8 8 7 6 6 7 10 12 11 13 14 17 19 18 18 19 19 20 19 19 17 16
6 5 3 3 3 4 4 3 3 3 1 4 5 4 4 1 6 8 7 8 8 9 8 7 7 7 8 9 12 15 14 14 17 20 21 20 18 18 17 17 14 13 12 12
4 3 1 5 2 2 2 1 1 3 3 2 3 2 3 6 7 9 8 8 7 9 9 9 9 10 8 9 12 15 14 17 20 21 17 15 13 12 11 11 11 10 8 7
4 4 3 2 3 8 7 6 4 1 1 2 2 3 3 5 9 9 9 8 8 10 10 10 10 10 11 11 13 16 17 15 13 14 13 12 12 11 10 8 8 7 5 5
0 6 5 5 9 9 4 5 1 4 4 2 2 4 4 6 10 11 10 10 11 12 12 11 12 12 13 15 15 13 12 12 13 13 12 11 10 10 10 8 6 6 5 4
5 7 5 5 4 3 3 1 4 6 8 6 3 4 4 7 10 11 10 13 14 15 15 14 15 15 15 16 15 13 11 12 13 13 11 9 9 8 8 8 9 10 9 7

GFSCGP_925_spd_069.txt.gz
Wind_Speed
15 15 18 28 28 20 17 17 21 15 8 13 23 18 17 11 11 12 12 13 13 13 12 15 15 14 15 17 19 20 20 20 19 20 17 22 24 28 21 21 20 20 21 21
13 19 11 14 22 21 13 19 21 8 8 8 13 20 17 13 16 15 15 15 14 13 12 9 14 15 16 18 18 19 20 21 21 21 20 18 19 23 23 27 29 22 24 26
19 6 17 11 16 17 21 14 16 11 12 9 6 13 13 15 15 12 8 11 11 8 8 9 10 11 12 14 16 17 19 20 21 21 20 19 18 17 16 24 28 29 28 25
15 5 18 14 10 16 15 15 12 12 14 6 13 3 16 15 11 10 8 7 5 4 4 1 1 2 1 4 7 11 14 15 18 18 21 22 21 20 20 19 19 21 24 28
3 12 13 17 7 14 4 4 11 13 15 6 12 5 10 10 11 11 9 7 5 4 3 5 5 5 6 6 4 3 7 12 16 15 18 19 21 19 19 19 20 20 19 22
7 9 4 2 4 9 7 12 8 2 3 5 11 10 10 11 12 12 9 8 6 5 5 5 5 5 7 7 6 6 4 2 6 12 15 17 19 19 18 18 18 18 18 17
5 4 4 6 6 8 10 10 5 4 4 3 6 6 4 8 12 11 11 8 6 4 4 4 4 3 5 6 8 7 6 5 4 2 8 13 15 18 18 18 17 17 17 18
4 4 1 1 1 4 9 2 2 5 9 9 5 7 4 11 9 9 7 5 4 4 4 3 4 4 4 6 7 8 7 6 6 4 4 3 7 11 14 16 16 16 15 15
5 3 2 4 2 4 4 3 1 2 3 4 8 4 6 9 11 10 7 6 5 3 2 3 4 5 5 5 6 7 7 7 7 7 5 4 4 4 6 8 10 12 13 13
5 5 2 3 4 3 1 6 2 2 5 5 6 6 5 15 15 11 9 8 6 3 1 3 4 4 5 5 6 6 8 8 8 8 7 5 5 5 4 4 4 5 6 7
7 4 3 4 4 4 2 3 2 3 3 3 5 3 9 18 15 12 7 4 4 2 2 3 3 3 4 5 7 7 8 8 8 8 7 6 5 5 4 4 4 4 4 4
3 5 4 2 2 4 4 4 6 3 3 1 3 4 9 16 15 10 6 4 4 2 1 1 2 3 4 5 7 8 9 10 9 7 6 8 8 8 9 9 9 8 7 7
5 4 5 2 2 3 5 7 4 1 2 3 2 5 7 15 11 3 2 3 5 4 2 2 2 2 4 5 6 7 9 9 9 8 8 9 10 10 11 11 11 10 9 10
3 2 2 1 4 5 3 8 7 3 2 2 3 8 11 12 10 6 2 4 4 4 4 2 3 3 4 4 5 7 7 8 8 9 9 10 11 11 11 12 12 12 11 11
2 2 3 3 3 0 3 5 10 5 5 2 5 2 11 12 9 5 2 4 5 4 4 3 3 3 2 3 5 6 7 8 8 8 9 9 10 10 11 12 13 13 15 14
0 2 2 1 1 3 5 6 8 12 14 12 8 7 4 7 4 4 3 4 4 5 5 5 4 3 1 4 5 4 5 7 7 7 10 10 9 9 10 11 14 15 16 18
2 4 2 0 2 4 7 12 12 9 8 13 10 11 6 4 2 3 4 5 6 7 6 5 6 5 3 3 4 4 5 6 7 8 9 8 7 9 12 11 13 16 17 19
3 3 1 2 2 3 3 1 4 12 6 11 8 6 5 4 5 4 3 6 7 6 6 6 6 6 5 4 5 5 5 6 7 7 7 8 9 11 15 17 19 21 23 22
3 3 2 3 4 5 4 4 4 7 3 14 12 9 4 2 2 6 5 3 6 6 5 5 6 6 6 4 4 5 5 6 7 7 7 9 12 16 19 21 21 20 22 21
1 1 3 1 2 2 4 3 2 2 3 5 4 2 2 1 4 3 8 7 7 7 7 8 7 7 6 4 5 6 6 7 8 8 10 11 15 17 21 19 20 19 19 19
4 3 6 5 3 4 6 4 1 3 3 5 3 4 3 4 2 6 8 6 6 7 8 9 7 7 6 5 7 8 8 11 11 13 14 15 16 18 20 20 18 16 14 13
6 4 3 4 4 4 6 4 2 3 3 5 5 4 3 3 5 7 7 7 7 8 9 9 8 7 6 7 9 12 13 14 16 17 18 18 16 13 15 15 11 10 10 9
4 3 1 5 2 4 5 3 4 3 1 2 3 3 3 2 5 8 7 8 8 9 9 8 10 10 8 9 11 15 15 17 18 17 14 13 12 11 10 9 8 7 6 5
5 4 4 2 4 7 6 2 3 1 1 2 1 3 1 4 6 8 8 7 7 9 10 11 11 10 11 11 12 16 18 17 14 13 12 11 11 10 9 7 5 5 4 4
3 7 7 7 9 5 8 5 3 3 3 2 4 4 4 4 6 8 8 9 10 11 12 11 12 12 14 14 15 16 15 14 13 12 11 10 10 9 9 7 5 5 3 3
6 8 7 3 4 4 3 5 2 4 4 3 4 6 4 4 6 9 8 11 12 13 14 14 14 15 16 15 15 14 13 13 13 12 11 9 9 8 8 9 8 8 7 5

GFSCGP_925_spd_072.txt.gz
Wind_Speed
10 6 14 25 22 5 10 11 14 15 12 21 19 14 16 7 5 6 8 7 7 6 4 9 13 11 14 18 16 16 14 16 17 25 24 23 25 23 21 19 20 22 23 24
7 10 10 11 14 15 15 8 14 12 12 9 12 19 16 16 10 9 9 8 8 6 6 8 6 2 6 8 10 13 15 14 20 20 22 23 23 25 30 27 22 23 22 25
12 9 15 12 14 15 12 10 12 9 7 3 2 7 16 14 10 9 8 6 6 6 6 7 9 8 5 8 10 10 17 21 16 20 19 21 16 16 18 26 31 31 25 21
7 14 19 13 13 11 13 11 16 10 11 5 8 4 13 15 9 9 6 4 6 3 1 5 8 9 6 4 7 11 12 10 13 16 18 15 23 19 22 23 22 23 24 28
7 17 19 12 6 7 4 11 10 7 8 7 7 1 5 13 11 8 8 7 6 5 7 7 5 7 5 4 5 3 8 14 16 12 10 13 14 14 22 21 18 17 18 19
8 10 4 3 13 8 6 5 5 7 3 2 9 7 4 6 11 8 7 8 7 7 7 7 7 10 9 7 7 7 5 4 3 9 13 15 16 16 13 12 14 14 16 19
6 4 3 4 8 8 3 10 3 3 1 4 11 8 8 9 11 9 10 9 8 6 7 7 6 7 8 8 9 9 10 9 8 6 4 9 12 13 15 12 11 11 13 16
4 7 1 1 2 5 7 1 1 4 4 4 5 5 4 7 9 10 9 9 7 8 6 6 6 5 7 7 9 9 9 10 9 8 7 6 5 5 7 8 8 9 8 7
5 4 3 0 1 5 5 5 4 4 5 4 5 3 4 2 8 8 8 7 7 7 6 6 6 8 7 10 10 9 10 10 10 9 7 5 6 4 5 4 5 4 4 4
4 6 2 4 2 2 3 5 4 2 2 3 5 7 4 11 11 10 9 8 8 6 6 5 6 8 10 10 8 9 8 9 9 9 9 7 6 5 4 3 3 2 2 3
6 2 4 6 4 5 3 2 3 1 1 1 3 2 6 16 12 10 9 8 8 7 6 5 6 11 9 8 8 9 9 9 9 8 9 10 10 10 9 8 6 6 5 3
5 4 3 3 3 1 3 5 5 3 2 1 1 3 7 9 9 8 8 6 7 7 6 5 7 8 9 8 9 10 10 10 9 8 9 11 11 11 11 12 10 9 7 6
3 3 4 3 2 2 3 3 2 5 2 2 1 2 7 10 9 6 7 7 7 7 6 6 6 7 8 8 7 8 10 10 9 10 10 11 12 11 11 9 9 9 9 10
4 4 3 3 3 4 2 4 5 4 2 2 4 5 7 12 9 6 8 7 8 7 6 5 6 7 8 6 6 8 9 9 9 10 11 11 11 11 11 11 12 12 12 12
4 3 3 4 4 3 4 3 7 4 5 3 5 2 8 10 8 8 8 8 8 7 7 5 5 6 9 7 7 7 8 9 9 10 10 10 11 11 14 15 16 16 16 17
2 2 3 2 0 2 3 5 6 7 7 7 5 5 4 7 6 5 6 8 6 6 7 6 5 6 7 8 7 7 8 9 9 11 10 10 11 11 14 14 16 16 18 19
2 3 1 1 1 4 5 10 9 6 6 9 7 6 1 4 5 5 5 7 6 7 6 6 7 6 7 7 7 7 8 8 10 10 10 10 10 11 13 14 14 16 17 21
2 2 1 1 1 2 3 4 2 8 6 7 6 4 5 3 3 3 4 5 7 7 5 6 8 9 7 8 8 8 8 9 11 11 10 11 10 13 16 16 16 18 20 21
3 2 2 1 3 1 1 2 3 5 5 8 6 3 5 5 2 3 5 4 6 6 6 8 12 12 8 8 7 9 9 10 10 10 11 11 14 16 17 18 18 19 20 19
1 3 1 2 1 2 3 3 1 2 2 3 7 6 4 4 1 2 6 5 5 7 11 13 12 10 9 7 7 10 10 11 12 10 12 15 16 17 17 18 17 18 19 18
3 3 3 4 2 4 5 5 1 2 3 5 2 2 4 3 1 5 7 5 7 10 13 12 10 9 10 8 9 11 11 11 12 13 15 16 17 17 17 17 17 16 18 17
5 4 4 4 2 5 4 2 1 4 4 5 4 4 4 6 6 6 6 5 6 10 12 11 10 10 9 8 11 12 15 15 16 16 17 17 17 16 16 15 13 13 12 12
2 2 2 5 3 2 5 5 4 3 3 2 4 4 3 6 4 6 5 6 6 12 13 12 11 10 8 8 11 15 16 18 18 18 18 14 15 14 12 11 10 8 7 8
5 2 1 3 2 6 6 4 5 4 5 3 3 2 4 3 7 7 7 6 5 12 13 13 13 11 9 10 12 15 19 19 19 16 15 13 12 12 11 9 7 7 6 6
0 4 5 4 5 3 4 5 8 5 3 3 2 2 3 4 7 7 7 7 8 11 14 14 16 12 11 14 15 17 21 19 16 15 15 14 13 12 11 9 7 6 5 4
4 4 3 2 2 4 5 7 7 4 3 3 2 4 4 3 5 7 6 11 12 14 17 14 12 14 14 15 18 20 18 17 17 17 16 16 14 13 11 10 8 5 5 4

GFSCGP_925_spd_075.txt.gz
Wind_Speed
5 8 13 27 15 5 5 9 6 10 8 6 8 7 12 7 4 8 8 8 6 11 9 14 16 18 17 13 11 20 20 25 26 24 22 24 25 23 23 22 25 24 25 26
3 14 7 7 9 5 7 9 10 4 9 12 9 14 10 13 6 7 7 7 7 1 5 8 6 8 9 8 6 8 10 13 25 27 27 24 27 29 27 26 21 25 27 28
5 3 11 11 13 11 4 5 3 1 3 3 6 7 8 11 9 8 8 7 6 5 5 5 8 9 8 5 1 2 7 11 11 16 25 26 21 24 22 29 32 29 25 21
7 7 17 10 13 11 7 6 6 3 7 5 4 4 9 14 18 12 13 8 6 5 6 6 8 9 6 3 3 6 10 10 9 13 9 23 25 24 26 25 25 26 29 30
6 17 17 9 9 6 4 4 3 6 9 3 4 1 7 8 17 20 11 8 5 6 8 7 8 9 8 6 6 2 5 12 14 10 7 5 11 14 17 20 23 22 19 17
6 6 4 2 5 7 5 6 8 3 2 3 7 6 5 6 20 6 7 8 9 8 7 7 10 11 9 8 6 8 7 8 4 3 9 10 7 9 10 7 14 22 19 18
11 2 3 7 8 5 6 4 2 3 4 5 8 5 10 6 5 9 9 9 8 8 7 6 7 10 9 8 8 9 9 10 8 9 8 3 5 7 8 7 6 8 11 11
4 6 4 2 3 4 4 4 2 4 4 4 4 6 5 7 8 12 12 10 8 8 7 7 7 10 10 9 8 9 9 9 7 5 6 7 5 4 4 1 1 1 1 2
5 4 3 6 2 3 6 5 6 2 0 3 4 2 6 7 7 12 13 11 8 8 8 7 9 11 12 12 10 9 8 8 7 6 4 3 4 5 6 5 5 7 7 5
4 7 3 4 3 3 1 6 3 2 1 4 4 3 5 6 7 10 11 10 8 7 8 7 8 13 11 10 9 8 8 8 8 8 8 8 7 5 4 2 4 4 4 3
7 5 5 5 5 8 4 3 2 2 3 3 2 5 5 14 12 11 9 8 9 8 7 6 8 12 12 11 10 10 9 8 9 10 11 11 13 11 7 6 5 3 1 1
3 5 4 2 5 10 5 5 4 4 5 3 2 4 3 8 8 8 8 8 7 8 7 6 10 12 11 10 9 9 8 9 10 10 9 10 9 8 8 9 7 6 6 6
3 3 4 3 2 3 4 8 5 2 2 3 4 4 2 7 7 7 8 8 8 7 7 6 8 9 10 9 8 8 7 8 8 6 6 7 8 8 10 10 9 9 9 9
2 3 5 6 4 5 4 5 5 4 3 3 4 4 6 10 9 7 7 8 8 8 8 6 6 9 10 9 8 7 7 8 8 7 8 10 10 10 10 10 10 11 11 12
4 3 2 2 4 4 5 4 7 4 4 5 1 3 11 12 10 9 8 7 8 8 7 7 7 7 11 11 9 8 7 9 9 10 11 12 12 12 12 14 14 14 15 16
3 2 3 2 3 3 3 6 7 5 4 4 4 4 7 10 6 6 9 9 9 8 8 7 7 10 12 13 10 9 8 9 10 12 13 11 12 11 11 12 13 14 16 18
2 4 3 2 2 0 5 9 9 5 5 6 5 7 2 6 9 7 8 8 9 8 7 8 8 9 13 12 12 11 10 10 11 13 13 11 9 11 11 12 14 16 19 20
2 3 2 2 2 1 5 1 8 9 7 8 4 4 4 5 4 5 5 8 8 8 8 7 10 13 13 11 12 13 12 12 13 13 12 10 10 12 14 17 18 18 19 18
2 2 1 3 2 4 2 3 5 7 6 7 7 5 3 4 4 0 2 1 6 6 6 11 17 16 13 13 14 15 13 13 13 12 11 11 14 17 18 19 18 18 18 16
3 3 3 2 1 3 2 2 1 3 3 5 8 7 6 4 2 4 4 4 6 9 13 16 17 16 15 14 14 14 14 13 12 11 13 14 16 18 18 17 17 17 16 17
1 1 3 2 2 5 1 3 3 3 3 2 5 5 6 4 3 3 6 4 8 12 16 17 16 15 14 12 13 14 14 13 13 15 17 16 16 18 18 17 16 17 17 15
5 4 3 3 3 5 4 2 2 3 3 4 3 2 3 5 6 5 6 6 8 11 14 13 13 13 11 11 13 13 13 15 16 16 18 18 17 17 17 17 16 15 13 12
2 5 4 6 4 4 5 2 3 3 4 3 4 3 5 6 5 6 5 6 8 12 14 14 15 13 11 11 13 15 17 18 19 19 18 19 17 15 15 15 14 12 10 9
2 3 1 3 1 5 6 2 2 2 3 4 3 4 4 4 6 7 7 7 7 13 15 17 16 15 13 10 12 15 19 20 21 20 19 17 17 16 13 12 11 10 10 9
4 3 3 3 5 2 4 4 5 5 4 3 1 1 3 4 6 7 7 8 11 15 18 18 18 16 13 13 15 18 21 23 19 19 19 17 15 15 14 12 11 10 8 7
4 5 3 4 2 3 1 4 4 5 4 3 2 4 3 3 5 6 6 11 13 14 18 18 20 17 16 16 16 20 23 22 22 20 18 18 18 17 15 14 11 7 6 5

GFSCGP_925_spd_078.txt.gz
Wind_Speed
3 6 7 20 9 3 7 7 8 3 5 3 5 4 9 8 3 8 7 7 8 8 8 12 15 17 17 15 20 21 24 23 20 20 24 25 24 22 23 25 25 25 25 26
1 10 8 13 11 4 12 11 5 3 10 4 8 13 8 9 6 6 6 7 8 4 3 2 6 10 13 15 15 20 24 21 24 26 23 23 29 28 26 24 24 27 28 29
5 3 7 9 14 9 2 9 6 3 3 4 3 7 9 8 9 7 8 7 7 9 7 3 8 9 11 12 12 12 15 14 17 23 24 21 20 22 29 29 27 27 26 27
5 4 4 8 18 12 4 5 4 2 2 4 5 5 9 15 14 11 10 9 7 8 5 5 7 7 5 4 4 6 7 8 10 14 19 25 26 22 26 27 28 31 30 28
5 9 8 9 13 9 4 6 7 3 2 1 1 2 5 3 13 20 20 14 8 8 9 8 8 9 8 5 3 2 7 9 7 9 10 16 23 24 24 17 19 21 21 21
5 2 6 6 4 6 8 8 7 3 2 4 8 8 5 7 12 10 15 11 9 9 8 8 12 11 9 8 8 8 8 7 2 5 7 10 11 12 13 12 11 15 20 19
3 4 2 4 10 4 5 7 3 3 4 5 7 7 13 7 7 9 13 10 9 9 9 8 8 11 10 10 9 9 8 9 8 8 6 4 8 9 10 11 12 11 13 16
4 4 1 3 4 5 4 5 4 5 4 3 6 8 7 4 10 6 9 12 10 9 7 8 8 12 10 9 8 7 7 6 5 5 6 7 6 5 4 5 6 8 7 8
4 3 1 6 1 2 4 3 2 4 0 3 5 6 8 3 2 8 10 9 9 8 8 8 9 12 11 9 8 6 5 5 5 4 3 4 4 4 5 5 6 7 7 7
4 5 4 3 3 7 4 9 3 2 3 4 4 4 5 3 7 9 11 9 7 6 8 7 8 14 11 9 8 7 5 5 5 5 5 5 5 5 5 6 6 6 6 6
6 3 5 4 3 6 4 4 2 2 3 4 1 5 5 9 11 13 8 9 9 8 8 7 8 12 12 10 8 8 6 5 7 7 8 8 8 7 6 5 5 5 4 4
3 4 5 2 4 4 4 5 6 4 4 2 4 5 4 7 8 8 8 9 8 8 7 7 11 14 12 10 8 7 7 7 7 7 6 6 6 5 5 6 6 5 5 6
4 2 4 2 2 4 4 6 7 3 3 5 5 5 4 4 7 7 10 8 7 8 7 7 8 10 12 10 8 7 7 7 6 5 5 6 6 6 7 7 8 8 9 9
3 3 5 6 4 5 6 8 9 5 3 2 5 4 1 4 8 6 7 9 9 8 8 7 6 8 12 11 10 8 7 6 6 5 6 7 7 8 8 8 9 10 10 11
3 3 3 2 5 4 5 7 10 8 6 5 3 7 7 10 9 10 9 8 8 8 8 8 7 7 13 12 10 9 8 8 6 7 8 9 9 10 10 11 11 12 13 14
3 2 2 4 1 1 2 6 8 6 5 3 4 6 6 6 3 6 8 9 9 8 9 9 8 11 13 15 13 11 10 9 8 9 10 9 8 7 8 9 9 12 13 15
2 4 3 3 1 1 5 10 9 5 5 7 6 7 2 11 10 10 8 10 11 9 9 9 10 13 16 17 15 13 12 11 11 10 10 8 7 8 8 9 11 14 15 16
4 4 2 2 2 2 5 1 7 9 6 8 3 4 3 7 6 5 4 8 8 8 8 7 10 15 17 17 15 14 12 12 12 11 9 7 8 9 10 12 15 15 16 18
3 3 2 3 3 5 3 3 4 6 7 8 8 5 1 4 4 1 1 2 6 7 6 12 19 19 18 18 18 17 15 14 13 12 9 9 10 13 15 16 16 16 17 17
5 4 3 2 2 4 2 1 1 4 4 4 8 7 6 5 3 4 4 3 4 7 12 16 19 19 19 19 20 19 17 15 14 13 11 13 14 16 17 17 17 16 16 18
2 1 4 2 1 6 4 2 3 1 4 1 6 6 6 5 3 2 6 3 5 8 13 16 18 18 18 18 18 16 16 15 14 13 15 16 16 17 17 17 18 18 16 16
5 5 3 3 3 5 4 2 3 3 1 2 3 4 5 4 5 4 5 6 6 9 13 15 16 15 15 16 16 16 16 15 14 16 17 17 17 18 17 17 18 16 15 13
2 5 4 6 5 4 5 3 2 3 3 2 3 2 4 5 4 5 5 6 6 11 12 14 15 15 14 14 15 16 16 17 17 19 19 19 18 17 17 18 17 14 12 11
2 2 2 1 2 4 4 1 2 1 2 3 3 3 4 4 5 5 5 6 6 11 12 15 16 16 14 14 14 15 18 20 20 20 20 20 19 18 17 15 13 12 11 9
4 3 3 3 5 1 2 3 4 4 5 5 3 2 1 2 4 5 5 6 9 12 14 18 18 17 17 15 13 14 20 21 21 20 21 22 20 18 17 14 13 11 9 10
4 5 4 4 4 3 3 4 5 5 4 4 3 2 3 2 4 5 5 10 13 14 16 16 17 18 18 16 15 17 21 23 21 19 23 23 21 18 17 15 12 9 8 7

GFSCGP_925_spd_081.txt.gz
Wind_Speed
4 6 8 10 8 5 11 8 5 4 2 4 4 2 6 4 9 11 10 12 12 9 8 11 13 20 19 18 21 22 23 26 25 23 23 25 25 22 23 24 25 24 24 23
5 13 9 13 9 6 14 10 4 2 2 4 4 7 7 7 6 9 10 15 15 6 7 5 7 15 17 17 21 23 22 21 22 23 26 27 26 25 25 25 26 27 28 26
7 3 8 10 11 7 2 16 6 4 3 2 3 5 7 11 7 5 7 8 8 10 8 5 6 8 16 17 12 16 21 21 21 21 21 20 20 22 25 28 26 27 26 27
2 3 8 6 8 4 4 8 7 3 4 4 6 4 6 11 14 8 13 10 9 7 6 4 8 10 11 11 9 10 11 12 15 19 22 24 26 23 23 24 29 30 27 25
1 6 7 2 8 5 3 6 7 4 4 2 0 1 6 4 9 20 18 11 8 9 9 8 8 12 10 9 7 6 7 8 9 10 14 20 23 25 24 22 20 20 20 21
1 6 3 5 3 6 6 10 8 5 3 2 6 6 5 6 9 4 11 12 10 9 8 7 9 11 10 8 9 9 7 4 5 9 11 12 15 19 20 20 20 20 19 20
2 4 4 0 3 4 6 4 3 3 4 4 3 6 12 5 6 5 7 9 9 10 9 8 8 12 12 11 10 9 8 9 6 3 3 8 11 11 12 13 14 13 12 14
3 2 4 2 4 7 5 7 4 6 4 3 2 6 6 7 8 7 8 8 8 9 10 9 8 14 15 12 10 8 6 7 5 5 5 4 2 5 8 9 10 11 12 13
4 3 1 5 3 2 4 4 5 5 3 3 4 7 8 4 7 4 5 7 10 9 8 9 11 16 15 12 10 8 6 6 4 4 3 3 4 4 4 3 4 5 5 4
3 4 1 6 1 6 3 9 3 2 2 3 4 5 6 5 9 4 7 9 8 7 8 7 8 15 13 12 10 8 6 5 5 5 4 4 3 3 4 4 4 4 4 4
2 2 2 5 3 6 3 2 2 3 3 4 1 5 6 6 8 9 7 7 8 8 8 7 9 14 14 11 10 8 7 7 6 7 7 6 5 3 3 3 3 3 3 4
6 4 3 2 4 6 1 5 5 4 4 2 3 6 2 7 7 8 6 8 7 8 8 7 11 16 14 12 10 8 8 8 7 7 6 5 5 3 2 3 2 3 3 4
6 2 4 2 2 1 4 4 3 4 3 5 5 5 1 3 5 7 10 8 8 7 8 7 9 11 14 13 11 9 8 8 7 5 4 4 4 4 4 4 5 5 5 6
5 3 4 6 3 6 5 7 12 8 4 3 5 7 7 3 5 7 8 8 8 9 9 7 6 9 13 12 12 10 8 7 6 5 5 5 5 5 5 5 6 6 6 6
3 4 4 3 4 4 4 8 15 14 13 8 4 6 8 7 8 8 8 7 7 7 7 7 7 7 13 13 11 10 10 9 7 7 7 8 7 7 7 7 8 8 8 9
1 2 2 3 1 2 2 6 12 17 12 9 6 7 6 5 6 6 8 9 9 8 9 8 7 10 14 18 16 14 13 11 9 9 10 10 8 6 6 6 7 8 11 13
2 4 3 3 1 1 5 10 11 8 6 12 10 11 3 3 7 9 8 10 11 9 9 10 11 14 19 20 19 17 15 14 12 12 11 10 8 7 7 8 9 11 12 12
4 3 2 2 1 1 5 2 7 12 6 9 4 5 5 6 6 5 4 9 9 8 8 8 11 15 19 19 18 16 16 16 13 12 11 9 8 8 8 10 11 13 14 16
3 4 2 3 3 5 2 2 4 6 7 11 12 7 2 0 3 1 4 5 7 7 6 12 19 19 20 21 20 19 18 16 14 14 12 10 10 10 11 13 13 14 16 16
4 5 3 1 2 4 2 2 4 4 4 2 8 8 6 3 4 3 4 2 3 4 8 13 16 17 19 20 21 20 18 17 16 14 12 10 11 13 14 15 15 16 15 14
3 1 4 2 1 6 5 3 4 2 4 2 5 6 6 4 3 1 4 3 3 4 8 12 16 19 19 19 20 19 17 17 15 14 11 12 14 14 15 15 15 15 16 15
5 5 3 2 2 6 3 1 4 4 1 2 2 4 5 3 4 3 4 4 5 6 9 13 16 16 16 19 19 17 17 14 14 14 13 14 14 15 16 16 17 16 15 14
2 5 4 6 5 4 4 3 2 2 2 1 4 3 4 4 3 4 3 5 5 8 10 13 15 15 15 17 19 18 17 16 16 16 17 16 16 17 18 19 19 17 15 13
1 2 2 1 2 4 3 2 1 1 3 2 3 4 4 3 5 3 3 4 4 9 11 13 13 14 14 15 15 15 16 18 18 19 19 19 20 20 20 19 18 16 15 12
3 2 2 3 5 4 3 4 3 3 4 4 3 3 3 2 2 3 3 5 8 12 13 16 15 15 16 15 14 14 16 19 20 20 21 21 21 19 21 19 17 15 13 12
4 5 4 4 4 3 4 2 4 5 3 3 3 2 2 1 2 3 5 7 10 13 14 15 15 16 17 17 16 14 16 20 21 19 21 22 23 20 20 18 15 13 11 10

GFSCGP_925_spd_084.txt.gz
Wind_Speed
5 7 16 12 8 3 11 7 6 4 4 5 4 5 4 6 7 10 10 4 19 15 15 15 14 12 14 13 18 22 27 25 24 21 22 25 28 29 28 28 27 26 25 25
4 13 11 6 11 5 16 13 5 2 3 3 6 7 8 8 9 14 17 19 20 18 7 11 17 14 16 19 19 22 23 27 27 25 23 22 25 26 26 25 27 27 27 26
5 1 12 5 11 11 11 19 6 6 4 3 5 5 7 4 6 6 10 18 19 19 15 5 8 13 16 19 21 21 21 19 22 25 24 21 20 22 21 25 25 26 25 26
2 3 7 6 4 9 7 9 8 9 7 4 2 5 6 8 10 9 13 11 15 15 5 4 7 11 15 19 16 15 16 19 19 21 22 23 23 23 26 26 27 27 24 24
1 4 6 1 4 8 4 11 7 5 5 5 1 1 6 3 11 21 14 9 9 8 7 9 9 11 10 11 12 12 11 12 13 14 17 20 21 22 22 20 17 16 17 20
3 4 3 6 10 0 5 12 9 5 3 2 6 6 5 5 9 5 8 11 13 13 11 7 9 10 11 11 11 11 10 8 7 8 9 10 13 16 18 19 19 18 17 16
2 4 2 5 3 3 2 7 4 3 3 4 3 5 9 4 6 7 8 8 8 9 10 12 11 13 11 13 13 12 10 9 5 4 6 8 10 11 11 12 14 14 13 13
5 5 6 4 3 1 4 4 4 6 5 3 3 6 6 7 7 8 8 8 5 8 9 12 13 20 17 15 13 12 10 10 7 6 4 2 2 6 8 8 9 10 11 12
4 3 4 2 3 2 3 2 4 6 3 3 4 5 9 4 9 8 7 5 8 7 9 10 10 17 19 17 14 13 12 9 7 6 5 4 4 2 1 1 2 3 4 4
1 4 4 2 4 4 6 8 3 1 3 2 3 3 5 5 6 4 6 7 5 5 7 7 8 16 16 14 13 12 10 9 7 6 5 4 4 3 3 2 1 1 2 3
4 2 4 7 3 4 4 3 4 3 3 4 0 4 6 5 5 9 6 6 6 7 7 7 9 16 17 16 13 12 11 10 9 7 7 5 5 3 2 2 2 1 1 2
6 3 3 2 2 6 1 4 4 4 3 3 3 5 2 5 7 6 6 6 6 7 7 6 9 16 17 17 14 11 11 10 9 8 6 5 4 3 1 1 1 2 3 2
6 2 4 4 2 2 2 3 4 5 3 6 4 4 2 4 6 1 6 6 6 7 8 7 8 10 14 13 13 11 10 10 9 7 5 4 3 2 2 2 2 2 2 2
3 2 3 4 3 5 5 5 6 6 3 4 6 6 12 9 5 3 4 5 6 6 8 6 6 8 12 14 13 15 11 9 8 7 6 5 4 3 3 3 3 3 4 5
3 3 2 2 1 2 2 5 10 9 8 8 2 9 11 8 7 6 6 7 7 7 7 8 7 6 13 13 13 13 12 11 9 8 7 7 6 5 5 4 5 5 6 7
2 1 3 1 3 2 3 7 10 13 10 7 11 12 6 7 1 4 7 8 8 8 8 7 7 10 14 17 16 14 13 11 10 9 9 9 8 7 5 5 5 6 8 9
2 4 2 2 0 0 5 7 12 7 5 12 9 14 5 2 5 7 8 9 11 9 10 10 11 13 19 20 19 18 17 15 12 11 11 10 7 6 6 6 6 7 7 7
3 3 2 2 1 1 4 1 5 10 4 11 8 4 5 5 5 7 7 10 10 8 8 8 11 18 22 21 19 17 16 15 13 12 12 11 9 8 8 8 8 10 11 12
2 3 3 2 1 6 2 1 3 5 5 11 14 14 4 1 1 4 7 7 8 7 7 13 19 20 21 23 22 20 18 17 16 15 14 12 11 10 10 11 12 13 15 16
4 4 4 1 2 3 2 3 3 3 4 2 6 9 7 5 2 4 4 4 4 2 6 10 15 18 21 22 23 22 20 19 18 17 15 13 11 12 13 14 15 16 16 16
2 1 4 3 2 6 5 3 3 3 4 4 2 5 6 5 4 2 3 3 3 2 4 8 13 18 20 21 22 21 19 20 17 15 14 12 12 13 14 16 18 17 17 15
5 4 2 3 1 6 3 2 3 4 2 2 1 2 5 2 3 2 4 4 4 5 6 8 12 13 16 19 20 18 18 16 15 15 14 13 14 14 16 18 18 18 17 17
1 4 4 6 5 4 4 4 2 2 1 2 1 2 5 4 1 2 2 3 3 4 6 7 11 12 13 15 17 17 16 15 16 16 15 15 15 16 17 19 19 20 18 16
2 2 2 1 2 4 5 4 3 1 2 2 2 3 3 6 5 2 2 2 3 5 7 9 11 11 11 13 14 14 14 16 16 16 16 16 18 17 18 19 21 19 19 16
3 2 2 3 5 5 5 4 3 2 3 4 4 3 3 3 3 0 1 3 6 8 9 11 12 12 13 14 14 14 14 16 17 17 17 19 19 18 19 19 21 19 17 15
4 4 3 4 3 2 5 2 3 4 3 3 3 3 4 5 4 3 3 3 4 7 10 12 13 13 13 16 16 16 15 16 18 18 20 21 21 20 22 21 19 17 13 12

GFSCGP_925_spd_087.txt.gz
Wind_Speed
2 1 14 15 11 12 13 6 12 6 4 7 8 6 7 4 5 8 7 7 6 9 8 10 13 7 9 10 15 16 18 19 22 23 23 23 25 26 25 24 22 21 20 21
1 9 12 11 13 5 14 8 4 3 3 5 6 10 8 6 9 10 10 8 8 5 5 7 10 6 6 10 10 12 17 19 21 23 22 21 22 25 29 28 26 24 24 24
1 5 17 12 10 4 8 12 5 7 4 2 6 6 7 4 4 7 9 9 9 13 9 6 10 13 8 10 16 17 17 21 23 23 22 18 16 17 14 21 22 22 23 23
1 7 17 8 9 8 7 12 8 13 10 6 1 4 5 8 9 9 15 11 11 11 6 2 3 9 12 14 14 16 18 19 20 21 24 23 21 17 18 19 20 21 22 21
1 2 12 10 7 7 5 15 7 4 5 3 1 2 4 1 13 13 11 11 13 10 8 8 7 11 12 11 12 14 14 17 19 19 21 22 20 18 16 15 15 13 15 18
1 3 2 3 5 7 8 11 10 4 3 2 5 5 4 4 8 11 14 16 16 15 13 11 10 9 7 9 11 14 13 13 14 15 16 17 19 19 17 17 16 15 16 15
2 1 2 4 5 3 14 17 5 4 3 4 1 4 7 5 6 7 10 14 13 13 14 13 10 13 14 13 13 12 15 14 11 10 9 9 10 10 10 11 12 13 14 14
4 3 5 4 3 5 16 6 4 7 6 4 2 5 5 6 6 6 5 5 3 7 7 10 12 16 21 21 16 15 13 13 11 9 7 5 4 6 7 8 9 9 10 11
4 4 3 5 6 3 1 2 3 6 3 3 3 5 8 6 7 3 7 6 7 7 7 10 13 17 20 21 19 17 15 11 10 9 7 5 4 4 3 3 5 6 7 8
3 5 5 3 6 6 3 3 3 2 4 2 0 3 3 3 2 5 4 7 6 4 7 8 11 15 17 18 17 16 14 14 11 9 8 7 5 4 4 4 3 3 3 4
6 1 5 2 4 4 2 2 4 4 2 3 3 3 4 3 3 7 7 6 6 5 7 8 10 13 16 16 16 14 13 13 13 11 9 8 6 5 4 3 3 3 3 4
6 1 4 1 1 5 0 4 3 4 4 2 2 3 3 4 5 5 7 4 2 5 8 10 14 16 14 12 10 11 11 11 11 11 10 8 6 4 3 2 2 3 3 4
3 2 4 3 2 4 3 2 4 4 3 6 5 4 3 4 3 2 3 3 5 7 7 7 9 11 14 15 13 11 11 11 10 9 9 8 7 5 3 2 2 3 3 3
2 2 2 4 4 4 5 6 6 5 3 6 4 5 7 8 7 5 0 4 7 8 9 8 7 10 13 15 14 13 12 12 12 11 7 7 5 5 5 3 3 3 3 5
1 2 2 3 1 3 1 3 7 6 5 6 6 8 12 6 7 6 2 5 6 9 9 9 8 9 11 12 14 14 14 12 11 10 9 6 6 6 5 5 4 4 3 5
1 2 1 3 2 2 2 5 7 9 5 4 3 9 5 6 2 4 4 6 8 8 9 9 9 11 14 18 19 18 16 14 11 9 9 8 7 7 7 6 6 6 6 6
2 3 2 2 2 2 5 5 7 4 4 7 8 8 5 3 4 6 5 8 9 9 11 11 12 16 20 24 23 21 18 15 13 11 11 12 11 8 6 5 5 6 6 6
3 3 2 1 2 1 3 1 3 7 3 8 6 4 5 5 5 6 6 8 10 8 8 9 12 16 22 23 22 20 19 18 17 15 14 13 10 9 7 7 7 8 9 8
2 3 3 2 2 5 2 1 2 2 4 4 11 11 5 3 1 5 5 7 8 8 7 13 20 22 22 23 23 22 20 19 17 16 16 15 13 10 9 9 10 10 11 13
4 4 3 1 1 2 2 2 2 2 3 2 4 7 5 5 4 4 4 1 4 4 6 12 15 17 20 23 24 23 21 20 19 17 16 14 12 9 10 11 12 13 15 17
1 2 3 3 1 5 5 4 3 2 3 3 2 4 5 4 3 1 2 4 4 3 3 5 9 14 17 21 24 23 21 21 18 14 13 12 11 10 12 13 15 17 18 16
3 4 2 2 1 5 3 1 1 4 3 2 2 1 3 3 2 3 4 4 4 4 4 5 8 9 13 18 21 20 20 17 15 15 15 14 12 12 14 16 18 19 19 17
1 4 4 6 5 4 4 5 2 2 2 2 2 2 4 4 2 3 2 3 2 3 4 4 8 10 11 15 17 18 16 15 16 16 16 14 13 14 15 19 21 21 19 19
2 2 1 1 1 4 4 4 4 1 0 1 3 2 2 3 4 4 3 2 3 3 4 6 8 10 11 13 14 14 13 15 17 18 17 15 16 16 17 19 21 23 22 21
2 2 2 3 5 6 3 3 1 2 2 4 5 4 4 4 3 2 2 2 3 5 6 9 10 11 11 12 13 13 14 16 17 16 17 18 18 18 19 20 22 24 24 24
3 3 3 3 2 2 4 5 1 4 3 3 4 4 5 6 5 4 4 5 3 3 4 7 10 11 11 12 14 14 14 16 18 18 19 20 20 21 21 21 19 22 19 18

GFSCGP_925_spd_090.txt.gz
Wind_Speed
3 5 12 22 14 10 15 17 23 19 8 18 17 18 14 6 9 15 13 11 11 18 16 14 8 3 9 12 14 14 17 16 18 19 17 15 18 18 17 16 16 15 14 14
3 11 13 13 10 11 11 20 17 17 7 15 16 16 16 15 13 13 14 15 13 11 12 14 10 7 7 9 12 14 17 17 16 13 14 16 17 21 21 22 18 16 16 15
7 2 12 15 9 3 15 21 16 19 9 4 8 14 15 16 15 15 15 13 11 15 16 12 12 11 7 9 8 12 17 16 13 11 13 14 16 16 15 19 23 24 23 22
7 3 16 16 15 5 14 18 14 18 15 9 9 6 17 20 15 17 15 15 13 13 15 10 11 11 10 8 8 10 14 16 16 10 16 18 15 13 14 15 12 12 16 18
2 2 17 13 17 9 1 6 15 17 16 6 10 6 6 6 20 17 16 16 16 14 13 14 11 8 6 7 9 9 12 13 16 19 24 17 16 16 13 13 13 13 13 15
4 2 4 6 12 11 5 9 10 9 8 6 11 13 7 8 14 19 18 17 16 16 15 14 12 8 7 7 8 8 10 11 14 16 17 16 17 15 12 12 11 11 10 10
3 2 5 11 5 4 4 11 5 6 6 6 4 9 9 7 5 10 15 19 18 17 16 17 16 13 11 9 9 8 9 10 10 12 14 16 15 14 13 11 9 9 9 10
4 4 9 6 2 4 4 6 4 8 9 9 5 8 7 7 10 11 7 5 5 16 16 17 16 16 14 17 12 13 13 11 11 11 10 10 12 12 10 10 10 8 7 7
4 2 8 4 4 8 1 8 1 4 3 5 6 5 12 8 7 4 8 9 7 8 12 16 16 16 15 14 14 12 12 10 8 9 9 9 6 5 6 7 7 7 8 8
2 3 8 9 6 3 4 8 4 1 6 5 4 3 1 5 5 2 1 6 8 8 10 9 11 14 14 14 14 12 12 12 10 7 6 6 7 7 6 5 4 4 3 4
1 3 4 7 4 7 4 3 3 2 3 1 5 4 3 6 6 6 5 5 5 6 6 8 8 11 13 14 13 11 10 9 8 7 5 5 5 6 5 5 4 3 3 3
6 1 2 5 2 4 3 6 3 2 3 2 3 5 5 4 5 7 7 3 2 3 5 7 10 14 16 16 14 12 9 9 6 5 6 4 3 3 2 2 3 3 3 4
4 2 5 7 3 1 4 4 3 4 1 2 1 5 4 4 3 7 7 3 1 5 8 10 12 13 14 14 13 13 11 10 10 8 5 5 4 2 2 1 1 2 3 4
5 1 3 2 5 7 4 10 10 4 3 5 4 2 5 8 3 6 7 2 5 7 10 11 11 12 14 13 12 11 11 11 10 8 7 4 3 3 3 2 2 1 2 2
2 1 2 4 4 3 5 10 11 6 4 5 5 10 14 8 5 8 6 2 6 9 10 11 11 10 13 12 11 10 10 10 10 8 7 5 4 4 2 3 2 1 2 2
3 1 1 2 3 3 3 6 12 12 10 11 7 14 6 10 10 6 5 4 9 10 11 11 10 12 13 13 12 12 12 11 9 7 6 6 6 5 4 2 3 2 2 3
0 0 1 2 3 4 2 2 8 5 5 9 10 10 4 6 2 4 6 6 9 12 13 13 13 14 14 14 13 13 12 12 10 9 9 8 7 7 6 5 3 3 3 3
2 1 1 1 0 2 4 2 2 7 6 11 10 9 8 7 6 6 5 6 8 11 13 12 13 14 15 14 13 12 12 12 11 10 10 9 9 7 6 5 6 7 7 6
1 1 2 1 2 2 3 2 1 1 3 1 7 8 10 10 8 12 5 5 8 9 11 14 15 14 14 16 16 16 14 14 13 13 13 12 11 10 8 8 9 9 9 9
2 2 0 1 2 0 3 2 1 2 3 2 4 7 6 4 5 3 5 5 2 5 8 10 11 12 13 15 17 17 16 15 15 14 12 11 10 9 9 10 12 13 12 12
2 2 3 2 1 2 1 1 3 3 3 4 3 6 1 3 2 4 3 4 4 3 2 2 7 8 10 13 16 17 16 17 15 12 12 11 12 12 12 13 14 15 14 14
2 4 2 2 2 3 2 2 2 3 3 2 2 1 2 1 1 1 3 4 3 4 4 4 5 5 6 11 14 14 14 15 14 13 13 13 13 13 13 14 15 17 18 17
3 2 0 3 0 2 2 5 2 2 4 3 2 2 2 2 0 1 2 3 3 3 4 4 4 5 6 8 11 11 11 13 14 13 13 13 13 14 14 17 19 20 20 18
2 2 2 2 2 3 3 3 5 2 1 2 2 5 2 4 3 3 3 3 2 2 2 3 3 3 4 7 9 9 10 12 12 12 12 13 15 15 15 17 20 22 22 18
2 2 2 3 1 2 4 4 3 1 3 4 5 5 4 4 4 3 3 2 2 2 1 1 2 3 4 6 8 10 10 12 12 13 13 14 16 17 17 19 21 23 24 23
3 1 2 2 4 4 5 6 3 2 4 3 5 5 7 5 5 4 5 6 5 3 1 1 3 5 6 8 10 11 12 12 12 13 13 14 17 18 19 18 18 19 20 22

GFSCGP_925_spd_093.txt.gz
Wind_Speed
3 3 9 15 15 10 6 22 18 23 17 20 19 21 14 9 14 17 17 16 17 16 17 21 14 17 20 17 16 17 19 17 17 19 17 18 19 18 14 13 12 10 11 12
3 10 14 11 14 10 9 14 20 21 15 18 17 19 17 14 14 16 15 16 14 16 15 20 16 14 20 18 17 16 17 17 18 18 18 14 18 15 13 14 12 13 12 14
9 5 11 12 10 7 9 15 19 23 12 12 11 16 17 16 17 14 14 14 16 16 14 16 15 12 15 16 15 17 16 17 18 16 17 12 15 13 13 16 13 16 19 18
9 6 11 14 7 9 11 15 14 17 15 10 14 6 17 19 20 19 17 17 15 14 13 14 16 13 11 11 11 14 17 13 15 17 14 18 16 12 12 9 11 9 10 16
2 4 12 14 12 12 3 15 7 14 14 11 14 7 14 23 21 20 19 18 16 15 14 18 16 16 13 11 10 12 16 17 16 16 14 11 10 9 9 6 8 9 8 14
4 2 2 3 11 13 5 6 11 9 8 7 13 15 11 11 16 18 16 18 16 16 15 16 18 14 12 11 12 9 13 17 13 12 16 11 15 9 6 6 13 17 21 10
1 2 4 8 7 4 3 5 5 4 4 6 15 12 3 8 3 11 17 17 17 15 16 15 15 14 14 15 13 11 10 11 15 18 17 15 17 13 15 15 21 18 15 18
4 3 4 7 1 3 3 1 2 6 8 11 3 7 7 9 6 7 6 5 13 16 15 16 16 19 17 14 17 14 13 12 11 10 10 10 12 12 16 16 14 12 9 9
3 5 7 2 3 6 4 5 7 6 1 8 8 7 7 5 5 5 7 7 8 8 10 13 13 17 16 14 13 15 15 10 10 10 8 5 7 9 9 7 9 12 11 12
4 5 8 7 6 2 3 6 3 3 4 5 5 11 6 9 8 7 6 11 11 8 9 9 12 16 10 13 12 11 17 11 8 8 8 7 4 5 5 3 4 5 5 6
0 2 3 7 7 8 4 3 7 4 2 4 6 5 9 9 7 5 2 2 5 6 8 8 7 12 12 11 11 11 12 18 13 11 8 7 7 5 4 4 3 3 3 3
3 2 4 2 4 6 3 6 8 3 3 2 3 5 6 10 7 7 7 3 2 3 5 6 9 11 12 12 13 14 14 14 13 12 10 8 7 7 5 3 3 2 1 4
6 2 4 5 3 2 4 6 7 1 3 1 4 6 7 5 3 6 5 4 3 5 6 7 8 11 13 15 15 14 14 13 12 11 10 10 8 6 5 4 1 0 1 2
6 0 3 3 5 9 5 11 11 2 2 2 4 6 7 6 4 5 6 2 2 5 7 8 9 10 14 15 15 14 13 12 11 11 10 9 7 6 5 4 2 1 0 1
3 2 2 4 5 5 8 12 12 5 5 3 5 6 5 3 1 3 3 2 3 5 8 9 9 10 14 14 13 13 12 12 12 11 9 8 6 5 4 3 1 1 0 1
3 2 1 2 3 1 3 5 10 8 10 12 12 16 10 9 9 10 6 2 2 6 8 9 9 10 12 12 12 11 11 11 10 9 8 6 6 5 4 3 2 1 0 1
2 1 2 3 2 3 2 6 8 7 6 10 11 9 8 6 6 3 3 1 3 6 9 10 10 11 12 12 12 12 12 11 9 8 8 8 7 6 5 4 3 2 2 1
6 3 1 1 3 4 4 2 1 8 5 8 11 10 11 11 7 6 6 5 4 3 9 10 11 12 12 11 12 12 13 13 12 10 9 8 8 7 6 5 5 5 4 4
3 5 1 2 2 5 4 4 1 3 3 1 5 6 7 6 7 11 9 3 5 6 7 11 13 12 12 13 13 13 13 13 12 11 11 10 9 8 8 7 7 6 7 7
3 4 4 1 2 1 6 3 1 2 4 0 4 7 8 4 4 5 7 5 4 1 2 6 9 10 12 13 14 15 15 14 14 12 11 10 10 9 9 8 8 9 7 7
1 2 5 3 2 2 4 3 2 4 3 3 4 7 5 3 5 5 5 5 5 5 3 3 3 7 7 10 13 14 14 14 12 11 11 10 10 10 9 11 10 9 10 9
2 2 2 2 2 2 3 3 3 5 3 3 4 3 2 3 3 4 4 5 5 5 6 5 4 4 3 6 10 11 11 12 12 11 11 11 11 10 10 11 11 11 12 12
2 2 4 3 3 3 1 4 3 3 5 3 4 3 2 1 3 3 4 5 5 6 6 5 4 4 3 4 6 8 8 10 11 11 11 11 10 10 10 11 12 14 15 16
2 1 3 2 4 3 3 2 2 2 2 2 2 2 2 5 4 4 4 5 5 6 5 4 3 3 2 3 4 4 6 8 9 10 10 10 10 11 11 12 14 16 18 17
3 2 3 6 1 3 5 7 5 0 1 2 3 4 4 5 4 3 4 4 4 4 4 4 3 1 1 3 3 4 5 7 9 9 9 10 11 12 12 15 17 19 20 22
2 4 2 1 7 6 5 9 7 3 1 2 4 5 6 5 5 4 5 6 6 6 4 3 3 3 3 4 5 6 8 10 10 10 10 10 10 11 14 15 16 16 17 19

GFSCGP_925_spd_096.txt.gz
Wind_Speed
4 1 5 6 9 8 2 14 13 12 10 11 10 8 14 9 12 10 9 9 8 9 8 23 23 19 18 22 26 26 26 22 22 19 22 20 23 19 21 14 16 18 15 17
1 6 11 8 10 14 6 3 17 6 13 15 14 11 14 9 5 7 7 8 9 7 9 9 24 21 20 20 24 25 26 23 23 24 23 22 25 24 23 16 17 18 18 14
5 6 7 13 9 9 6 4 7 9 5 4 8 12 13 11 8 7 8 9 8 10 7 7 17 22 21 20 21 25 24 26 24 23 21 16 13 17 20 20 20 20 18 18
6 9 7 7 6 5 2 3 12 16 13 3 14 5 5 11 12 10 9 8 6 7 7 8 14 19 18 21 18 21 21 26 23 19 18 16 15 15 14 14 13 11 10 11
2 4 6 10 4 9 2 9 8 3 6 6 12 2 5 20 13 14 11 9 9 7 6 8 11 23 17 17 17 21 20 21 22 18 15 12 8 4 4 6 8 6 6 8
5 7 4 2 11 8 4 3 4 3 2 3 9 7 5 10 22 11 12 12 10 9 9 7 19 26 20 16 14 9 17 17 21 20 16 14 11 5 8 7 9 7 4 4
6 3 3 8 6 5 5 2 3 3 2 2 11 5 6 2 12 14 15 13 13 10 9 8 13 16 22 18 16 12 12 13 15 18 20 19 14 12 13 10 14 7 9 9
3 4 2 2 3 2 1 3 1 3 4 5 7 3 5 4 7 4 5 6 11 9 9 9 10 19 24 20 19 19 17 13 14 15 17 15 17 22 26 21 25 17 19 17
2 4 3 6 3 1 5 3 5 4 4 5 4 1 5 8 7 3 4 5 4 3 8 10 10 20 25 24 20 18 19 18 15 13 13 8 7 12 16 19 18 13 12 9
2 4 7 5 3 6 4 4 2 1 3 3 3 6 4 6 6 6 4 5 4 2 3 2 5 16 24 25 21 17 19 20 22 19 14 15 12 8 7 9 8 8 7 7
2 2 3 3 4 6 3 1 5 4 1 1 4 1 4 7 7 6 5 4 5 6 6 4 2 7 24 24 21 19 20 21 20 22 22 14 10 10 7 6 6 5 4 3
3 0 3 2 2 3 4 6 3 2 5 3 3 1 8 7 7 6 5 3 4 5 5 3 7 16 21 20 18 18 18 18 19 17 17 17 12 8 7 8 6 4 2 2
3 1 3 3 2 3 2 4 3 0 1 2 1 2 6 1 4 5 6 6 4 3 4 2 7 10 15 15 16 17 16 17 17 16 15 14 13 11 9 6 5 4 4 2
3 1 2 1 3 6 4 6 8 4 1 4 3 2 4 6 4 7 6 5 7 6 5 5 5 7 14 16 17 17 16 14 14 14 14 15 13 12 9 7 5 4 2 1
2 2 1 3 3 4 4 7 12 5 4 2 3 3 4 5 3 4 5 4 6 7 5 6 7 5 14 16 18 17 16 15 16 16 16 15 13 11 8 7 5 4 3 1
4 3 0 3 2 3 3 7 7 4 6 6 5 3 4 7 7 6 4 6 4 6 7 7 7 10 13 16 17 19 17 16 16 16 15 14 12 11 9 7 5 3 2 2
2 2 1 1 1 2 2 4 6 2 3 2 4 2 5 6 6 2 6 3 4 4 7 7 8 10 17 18 19 20 19 17 16 16 14 12 11 10 8 7 6 5 4 4
5 5 1 1 2 1 2 5 5 3 3 2 5 5 5 5 6 5 5 5 6 4 7 8 9 12 17 19 19 18 18 17 16 15 14 14 13 12 11 9 7 7 5 4
3 3 2 1 2 3 2 2 1 0 1 3 3 5 5 5 5 6 6 6 5 6 4 12 15 16 15 18 18 19 19 17 17 16 15 14 13 12 10 9 8 6 6 5
3 4 2 2 1 1 2 2 4 3 1 4 4 5 5 4 2 2 6 6 7 9 10 6 16 15 17 17 19 19 18 16 15 14 13 13 13 12 11 10 8 8 7 6
2 2 3 3 1 2 3 3 1 1 2 3 3 3 4 3 2 1 5 5 7 8 10 9 12 11 10 16 18 16 16 16 14 13 13 13 12 12 11 11 10 8 8 7
1 2 3 1 0 1 3 1 2 2 1 3 4 4 4 5 5 5 6 6 6 7 8 10 9 9 8 9 12 12 11 11 13 12 13 14 12 12 11 10 9 9 9 10
2 2 1 2 0 2 2 2 2 2 2 3 4 4 4 5 5 5 5 6 6 8 9 8 8 7 4 3 5 8 9 11 11 11 13 12 11 11 10 11 10 11 12 13
3 3 2 2 3 4 6 5 4 3 3 4 4 4 4 6 6 6 6 5 6 8 8 7 6 5 5 3 4 4 8 9 10 12 12 12 12 10 11 12 12 14 15 16
3 5 3 0 7 3 7 7 6 4 4 4 6 6 6 5 3 6 5 5 5 7 7 7 6 7 5 3 2 4 6 8 10 11 12 13 12 11 13 14 15 16 17 18
3 4 3 1 6 5 3 6 5 6 2 3 5 5 6 7 6 6 5 8 8 8 8 8 8 6 4 2 3 4 4 7 10 11 11 14 13 12 13 14 14 14 15 15

GFSCGP_925_spd_099.txt.gz
Wind_Speed
3 2 3 1 6 8 4 2 8 3 7 9 7 8 10 15 18 16 15 12 7 8 12 25 25 23 25 24 26 28 29 28 26 24 25 26 28 26 21 22 20 23 22 20
3 6 6 1 7 2 3 8 9 7 5 5 8 9 19 9 5 23 20 17 8 6 7 13 24 27 29 29 28 26 26 30 28 29 28 26 27 24 23 20 17 21 21 21
5 5 8 5 6 4 3 3 10 8 2 4 9 6 3 5 6 3 5 6 7 8 8 13 15 26 28 27 30 28 29 27 30 28 26 25 25 23 21 20 15 19 19 17
4 7 7 5 3 4 4 7 7 7 2 5 2 3 8 8 10 6 7 7 6 6 7 11 16 21 28 28 24 26 27 27 29 28 25 24 23 22 26 23 18 12 15 17
3 5 5 3 6 6 2 3 1 5 2 5 3 1 5 7 15 11 12 9 8 7 7 10 12 23 28 26 25 24 26 26 26 24 24 22 15 13 12 12 12 12 8 8
3 4 3 2 6 6 1 1 11 6 3 2 6 4 4 12 24 5 4 9 9 8 7 7 19 26 22 21 19 20 20 26 25 21 20 20 17 17 18 14 11 10 7 5
3 3 6 7 5 4 5 2 3 3 2 3 12 8 7 7 11 14 15 11 10 8 8 7 9 13 22 20 19 17 17 20 24 24 20 20 19 16 17 16 14 9 6 10
1 4 4 2 3 4 4 3 2 4 3 2 6 5 5 7 3 13 9 9 11 10 8 9 13 19 25 24 23 22 18 19 21 23 21 18 19 19 18 15 14 14 15 12
2 4 4 5 3 3 4 1 1 1 1 4 3 4 6 3 5 7 8 7 8 9 9 10 13 21 25 27 27 24 23 20 21 21 21 21 21 20 20 18 15 16 16 19
3 4 5 5 3 7 1 1 2 2 3 2 2 1 3 3 6 6 6 7 7 5 6 7 14 20 27 30 27 24 22 21 21 22 23 22 19 18 16 13 12 11 13 13
3 2 2 2 2 5 1 3 2 2 3 3 3 4 5 3 5 4 4 2 4 4 4 7 6 14 25 25 23 22 21 21 20 20 21 21 19 16 14 12 12 10 8 10
2 2 1 2 5 4 3 3 2 3 3 0 3 3 4 5 7 6 5 5 5 5 4 5 8 17 22 21 20 20 20 20 20 20 19 18 17 18 18 13 9 8 10 9
2 2 2 2 2 2 3 3 2 2 1 1 2 3 4 6 6 5 4 4 4 4 5 7 7 12 17 20 20 21 21 21 20 18 17 15 16 16 15 15 11 10 8 6
5 1 2 4 4 4 4 5 5 4 3 1 2 1 2 3 3 2 4 4 4 4 4 5 6 8 15 18 20 19 18 17 18 17 17 17 16 14 14 13 9 7 6 6
1 0 1 5 4 3 4 5 7 4 3 3 2 5 1 1 3 1 3 5 5 4 4 5 6 6 15 18 19 20 19 18 19 19 18 17 16 13 11 9 8 8 7 6
2 2 2 3 2 3 2 6 6 3 2 2 5 2 3 3 5 6 4 4 5 5 5 5 5 8 14 20 20 20 18 18 19 19 18 16 14 11 9 10 10 8 6 4
1 2 2 3 3 4 3 1 5 3 1 2 3 3 3 4 4 4 4 4 2 7 7 7 7 11 18 21 22 22 20 19 19 18 16 14 12 12 11 10 9 8 7 6
3 2 1 2 2 0 3 2 3 4 2 2 2 1 1 2 2 6 6 2 5 5 5 7 10 15 20 20 21 20 19 19 18 17 16 15 14 13 12 11 10 8 7 6
6 2 3 1 1 1 1 1 2 2 2 2 3 4 4 3 2 3 6 5 4 4 5 10 18 18 20 22 22 22 20 19 19 18 17 16 15 14 13 12 10 10 9 8
1 2 3 3 1 1 2 1 1 2 1 2 4 3 4 4 2 3 5 4 6 9 10 9 15 18 21 23 24 23 22 20 20 19 17 16 15 15 14 11 11 10 8 8
1 0 3 1 1 3 0 1 2 4 3 1 3 2 2 2 3 1 3 5 6 7 10 11 10 12 18 22 23 22 20 20 17 15 15 15 15 14 13 11 12 10 10 7
3 3 2 1 2 2 1 2 2 2 2 3 3 2 4 4 4 3 4 5 6 8 10 9 12 13 10 13 18 17 18 14 13 14 15 16 15 14 13 12 12 10 10 10
1 3 2 4 3 3 3 3 3 2 1 2 3 1 4 5 3 4 3 5 6 8 9 9 9 8 7 5 7 10 10 12 15 15 15 15 14 13 13 12 11 11 12 13
5 4 0 2 6 4 6 4 6 4 2 2 2 3 5 5 4 4 4 4 5 7 8 7 7 7 6 4 2 3 8 10 12 13 14 14 14 13 12 11 11 13 14 15
4 5 2 2 4 1 6 5 5 6 2 5 6 4 4 4 4 5 4 4 6 7 8 8 8 7 5 3 2 3 4 6 10 11 12 14 14 14 12 12 13 15 16 16
2 1 2 2 1 2 5 7 7 6 3 3 4 3 6 7 5 6 5 7 8 9 10 10 10 8 7 3 2 2 3 6 8 10 12 14 14 13 13 13 14 14 15 15

GFSCGP_925_spd_102.txt.gz
Wind_Speed
3 3 3 2 5 0 6 3 2 2 5 8 13 10 6 3 5 4 9 9 11 11 10 21 20 25 27 30 31 31 32 31 31 29 28 26 25 21 22 25 20 17 16 21
5 3 6 5 8 3 4 7 2 6 3 3 9 5 9 11 4 3 6 12 15 12 7 8 20 22 25 27 29 31 31 29 32 33 34 26 27 23 22 20 18 25 24 22
5 4 9 4 5 3 3 5 6 3 6 5 5 3 3 5 7 10 10 15 19 12 10 6 10 23 25 26 27 28 30 31 31 31 28 24 24 23 23 24 24 20 25 24
3 5 6 5 3 4 2 5 3 16 2 2 4 3 4 2 13 12 14 20 21 15 6 7 11 16 26 29 28 27 28 29 32 31 30 27 28 21 27 25 21 20 21 19
5 4 3 2 3 6 1 1 8 8 4 4 1 4 3 18 15 18 20 21 16 9 9 10 12 23 31 30 29 29 27 27 29 30 28 25 25 22 20 27 24 17 13 12
3 3 4 2 8 3 2 3 12 8 3 3 3 2 2 11 23 23 11 9 11 8 7 8 14 20 24 26 27 28 26 26 25 26 24 22 20 16 15 16 17 16 12 14
2 3 2 3 5 5 3 2 4 4 4 3 8 4 7 6 13 19 14 8 8 7 6 7 8 11 17 23 24 24 24 24 22 21 21 22 21 20 17 19 19 19 17 17
3 5 1 2 2 3 3 2 2 3 4 2 7 4 5 4 6 9 12 9 8 9 8 8 9 16 22 24 21 23 23 22 22 22 22 23 23 20 21 19 20 20 21 18
3 5 4 10 5 3 2 2 2 2 3 4 3 5 8 5 5 5 11 8 9 9 7 9 9 20 25 24 24 24 24 23 23 26 26 25 23 22 22 20 19 17 16 15
5 4 5 3 3 3 3 2 1 3 4 3 3 3 2 2 2 3 5 8 8 8 7 7 9 19 26 27 23 20 21 23 25 25 25 24 23 21 21 20 17 16 15 13
4 1 1 1 1 3 2 2 1 2 3 4 4 4 4 8 3 4 3 1 3 4 4 8 8 14 22 25 22 20 19 21 23 23 23 22 22 20 19 19 18 16 14 13
1 1 2 4 3 2 3 3 2 3 2 2 3 2 3 6 4 6 5 5 5 4 3 4 9 17 17 20 19 19 19 19 19 19 18 17 16 16 16 15 15 14 13 11
1 2 3 3 2 2 4 3 1 4 3 2 4 3 3 5 6 6 6 4 4 6 6 4 5 8 16 18 19 18 16 18 17 16 17 16 15 14 12 11 9 9 10 9
1 2 3 4 4 3 2 3 2 4 3 1 2 3 4 5 6 6 4 4 4 4 5 3 5 6 15 17 17 19 18 17 17 16 15 14 12 11 9 8 8 8 7 7
2 1 0 3 4 2 2 2 5 2 4 4 0 1 3 3 1 3 3 2 3 3 5 4 4 4 11 15 16 15 15 16 17 16 15 13 13 12 11 10 9 8 7 5
4 3 4 2 3 5 1 3 6 0 3 9 3 5 3 3 4 5 1 1 3 3 2 5 5 6 9 13 15 16 15 15 14 14 15 16 15 14 12 11 10 8 6 4
3 3 3 3 4 2 4 1 5 4 3 5 5 5 2 2 4 4 4 3 3 6 5 6 7 12 17 18 20 19 16 15 16 16 16 17 15 14 13 12 11 9 7 5
4 4 1 2 4 2 2 3 0 5 4 4 3 1 1 2 3 5 5 4 4 5 4 5 7 13 16 17 18 15 15 17 17 17 17 16 15 14 14 13 11 8 6 5
6 2 2 2 1 3 3 4 2 1 3 3 4 2 2 4 2 1 4 3 3 4 5 8 11 15 17 18 17 17 18 17 16 17 17 16 16 15 14 12 10 8 7 8
4 2 3 1 2 1 2 3 3 2 1 1 2 2 2 2 0 3 5 4 5 6 8 9 9 14 18 19 20 21 19 18 17 17 16 15 15 15 13 12 11 10 9 9
1 1 2 0 0 3 2 2 2 3 2 2 2 0 2 1 3 2 4 5 7 7 11 10 5 10 15 18 20 20 17 18 16 14 14 14 14 14 13 12 11 10 10 9
3 3 2 1 2 2 2 2 0 3 2 2 2 2 2 3 2 3 4 4 7 9 11 11 14 11 5 11 17 17 17 14 12 14 15 16 16 15 15 14 12 12 11 10
0 3 2 3 3 2 4 4 4 2 1 0 2 2 5 4 3 3 3 4 6 8 10 10 10 10 10 6 7 10 10 11 13 14 15 15 15 14 14 14 13 11 11 11
3 3 2 2 5 4 6 4 6 5 3 3 3 2 4 4 4 4 4 3 5 8 10 9 10 11 10 7 4 1 4 6 10 12 12 13 14 14 14 13 13 12 13 13
3 4 1 2 1 3 3 7 6 7 2 3 5 3 4 5 4 3 3 5 7 8 9 10 10 9 8 7 7 5 1 3 7 9 10 12 13 14 14 14 13 14 14 14
1 1 2 3 2 1 3 2 6 6 5 4 2 3 3 4 5 5 4 6 7 8 8 9 9 7 7 5 4 3 2 2 5 7 8 11 12 13 14 14 14 14 14 14

GFSCGP_925_spd_105.txt.gz
Wind_Speed
3 3 4 7 7 1 5 4 5 2 7 9 12 6 9 7 13 8 7 6 7 7 6 9 10 26 28 30 36 37 36 35 34 36 32 29 31 28 25 28 25 23 21 19
4 3 5 5 5 5 1 6 4 2 5 2 10 6 11 9 3 9 8 7 5 7 9 8 5 18 30 30 35 36 34 35 33 30 31 23 28 23 23 24 24 21 23 20
4 5 9 7 5 4 1 5 2 4 6 6 6 4 5 5 4 3 7 7 4 5 8 7 5 15 26 28 31 32 30 28 31 32 30 24 24 22 19 25 28 26 23 21
4 4 7 5 4 3 2 5 3 8 5 3 3 2 0 5 5 6 6 7 5 7 7 6 6 10 17 26 28 27 28 27 28 28 29 29 27 18 21 29 27 24 23 24
5 4 5 3 1 3 0 4 4 6 3 2 2 4 1 9 9 12 11 5 6 10 12 11 8 17 22 21 22 26 28 29 27 27 27 23 20 25 26 28 22 19 20 20
4 0 3 3 6 3 3 4 9 6 3 2 4 3 5 11 18 12 13 11 11 11 19 14 14 19 19 19 21 21 20 20 22 20 20 19 18 19 19 18 23 25 20 20
2 2 4 3 2 4 3 9 4 2 2 2 2 2 6 9 5 11 16 17 17 17 14 8 8 10 15 19 19 19 19 18 17 17 17 18 16 16 16 17 16 17 16 15
2 4 5 3 3 2 3 3 4 4 3 3 2 3 4 1 6 7 10 14 15 15 12 9 7 14 20 21 17 17 19 19 17 16 17 17 17 17 17 13 12 14 15 12
4 4 2 7 4 1 2 2 3 5 3 4 1 6 7 5 6 2 8 8 9 5 6 8 7 11 17 20 21 21 20 18 17 17 17 18 18 22 18 17 16 17 15 13
5 3 6 3 2 4 3 0 2 3 3 4 2 4 3 8 10 5 6 7 7 6 5 5 4 10 18 23 23 19 19 18 17 18 19 21 22 19 19 18 18 17 14 13
3 3 4 1 3 1 2 2 2 2 3 4 3 2 3 6 6 5 6 5 3 5 6 7 6 9 16 21 20 18 16 15 15 16 19 20 19 17 15 14 14 13 12 12
1 3 2 3 3 2 1 2 1 3 2 3 3 3 5 5 5 4 5 6 5 5 5 5 8 16 15 18 20 20 17 15 14 16 16 15 16 15 15 14 12 11 11 9
3 2 1 5 3 2 2 2 1 4 3 3 4 3 4 5 7 6 6 6 5 4 3 4 4 4 12 17 17 17 16 16 15 15 14 14 14 13 12 11 10 9 8 6
5 3 4 4 2 1 1 2 2 3 3 5 2 2 4 5 5 4 5 5 4 4 4 4 4 3 6 11 14 13 13 14 14 15 15 14 13 12 11 11 10 8 8 6
2 3 2 4 4 2 2 1 3 3 3 4 6 3 2 4 5 5 3 3 5 5 4 4 2 4 7 10 12 13 13 14 16 16 15 14 14 13 13 11 10 9 7 5
3 2 2 3 4 4 2 2 3 3 3 5 5 1 2 2 3 7 7 6 5 4 3 3 2 4 6 10 12 13 14 14 14 14 16 15 15 14 12 11 9 7 6 5
2 2 3 3 5 2 6 5 2 1 1 5 2 4 2 3 4 4 5 6 6 6 2 3 4 5 9 12 13 14 14 13 13 12 12 14 13 12 11 9 7 7 6 5
3 3 1 2 3 3 4 4 3 4 4 2 3 2 3 2 3 4 4 4 6 7 7 5 3 7 8 8 9 10 11 12 12 14 13 13 12 11 10 8 8 7 6 5
4 1 2 2 1 2 3 4 2 3 2 4 2 2 3 3 3 2 5 5 5 5 6 9 9 8 9 13 15 14 14 13 13 13 13 12 12 11 11 10 9 7 6 6
3 2 2 1 3 1 2 3 3 1 0 2 2 2 4 4 4 3 5 3 5 7 11 15 10 7 10 12 14 15 14 14 11 13 12 12 11 11 11 10 9 9 7 7
1 2 1 1 1 3 3 3 4 2 3 1 1 1 1 1 2 3 5 6 7 7 11 13 6 4 8 12 14 14 12 13 12 10 11 11 11 11 10 10 11 9 8 8
3 3 2 1 2 1 5 3 2 3 3 2 2 1 2 2 1 2 5 5 7 9 12 11 12 12 6 8 13 12 11 9 9 10 11 11 10 10 11 12 11 10 9 9
1 3 2 3 3 1 3 3 3 3 1 3 2 2 1 3 2 1 2 5 6 8 9 10 10 14 14 8 5 7 5 5 6 8 8 9 10 12 12 12 12 11 10 11
1 2 2 2 2 3 4 2 5 4 3 3 3 1 3 3 3 3 2 3 5 8 10 9 11 13 14 11 9 5 2 2 5 7 8 9 10 11 12 13 13 12 12 12
4 3 2 1 1 2 1 3 3 6 6 5 4 2 3 5 4 3 3 3 5 7 9 9 10 10 10 9 10 7 5 2 3 4 6 8 10 11 12 13 13 13 13 13
3 5 4 3 4 3 3 1 4 6 5 6 4 2 2 2 4 3 3 3 4 6 6 8 8 8 8 7 7 6 4 2 1 2 4 7 9 10 12 13 13 13 14 13

GFSCGP_925_spd_108.txt.gz
Wind_Speed
3 3 4 9 8 11 5 7 12 5 5 13 13 8 9 8 11 16 11 6 3 3 1 4 10 19 32 35 37 36 35 36 36 34 30 29 32 31 28 26 24 23 23 21
4 4 7 7 5 11 8 9 5 2 5 12 11 6 7 5 6 9 9 11 5 1 1 4 10 16 19 28 30 26 31 36 38 34 34 24 29 31 27 24 25 23 23 22
4 5 7 10 5 10 9 5 1 3 6 3 10 5 8 6 6 4 6 11 5 3 1 3 5 15 21 23 28 26 25 33 33 29 29 18 20 18 27 26 25 24 23 21
5 4 7 7 6 4 4 7 2 8 2 1 3 2 4 8 7 6 10 10 5 5 2 2 4 9 18 23 23 20 19 32 36 31 26 18 18 12 16 25 27 24 24 22
6 4 7 9 4 1 4 6 5 5 4 2 2 3 2 2 3 2 9 6 7 6 4 1 2 5 13 18 23 23 29 25 26 34 34 33 29 30 22 21 24 28 29 23
6 2 3 4 3 3 6 3 3 4 1 3 4 1 2 4 3 5 4 6 6 7 6 2 1 2 9 11 20 16 19 22 25 29 36 39 37 31 31 28 29 24 23 20
2 2 3 6 2 2 1 1 2 4 4 2 5 4 0 11 8 6 4 5 10 10 8 4 4 3 10 16 21 28 31 29 23 22 15 15 13 17 21 25 20 20 21 18
2 3 6 2 1 3 3 1 3 3 2 1 2 3 2 2 6 8 8 9 12 12 9 5 4 3 7 15 15 15 16 15 13 15 16 14 17 17 16 14 9 11 14 12
5 4 3 4 2 3 2 3 1 4 2 3 3 4 3 8 8 2 8 10 9 11 5 4 5 6 8 15 17 15 13 11 12 12 12 13 14 14 13 12 10 12 12 11
2 2 3 3 2 5 5 1 3 3 3 4 4 4 5 12 11 8 4 7 7 4 5 5 4 9 10 11 13 12 12 11 9 10 12 13 13 13 14 12 14 14 12 9
1 3 5 2 5 4 3 3 2 3 2 3 4 0 3 7 6 5 7 5 2 3 5 4 5 6 7 9 11 10 9 8 9 10 10 12 13 14 13 14 13 11 10 9
2 3 2 2 1 2 1 2 2 3 2 3 3 4 7 7 7 7 7 5 4 2 6 4 3 6 5 8 12 12 10 10 9 11 13 15 15 14 13 11 11 10 9 6
4 3 3 7 4 2 5 4 3 3 2 3 4 2 5 7 7 7 7 6 6 7 7 6 5 2 4 7 10 11 11 11 11 13 16 17 16 15 15 14 12 10 8 8
4 3 3 3 3 2 3 4 4 3 3 3 2 2 5 6 7 7 6 5 6 6 6 5 5 5 6 7 10 11 11 12 14 15 16 16 15 14 13 12 11 11 11 11
3 4 4 2 4 2 3 3 4 4 2 3 4 3 2 3 4 5 6 7 8 8 8 7 6 5 7 7 9 11 12 13 14 15 16 16 15 15 14 14 15 14 13 11
4 2 3 4 6 3 4 6 2 4 3 5 3 4 2 4 5 8 8 8 8 8 8 7 6 6 7 8 10 12 14 15 15 16 16 17 18 17 17 15 14 12 10 9
2 1 2 2 4 0 5 5 3 2 3 4 3 1 3 5 6 6 7 7 6 7 8 8 6 2 2 5 10 12 13 15 15 15 15 15 16 16 14 13 12 12 10 9
2 2 1 1 2 3 4 2 3 3 4 4 4 4 4 4 4 5 5 5 7 6 6 8 10 9 2 6 8 10 11 11 12 13 14 14 14 14 14 13 12 12 11 8
1 1 1 2 2 0 3 4 2 4 3 2 2 2 3 2 2 4 5 4 5 5 7 9 10 9 7 8 9 12 12 11 11 12 14 14 14 15 15 14 13 11 10 8
3 3 2 1 3 2 2 1 0 3 1 1 1 1 1 1 2 2 5 5 6 11 11 13 12 3 7 10 11 11 10 10 11 12 13 14 14 13 13 11 12 11 9 7
1 2 2 2 2 2 3 4 2 3 4 3 2 2 3 2 2 2 2 4 8 10 13 14 9 5 3 9 13 12 11 10 8 8 11 12 11 11 13 13 11 9 8 7
3 4 2 2 2 2 4 3 1 2 3 2 3 2 2 3 3 3 4 4 6 7 11 12 12 10 6 7 11 9 7 5 7 10 11 12 13 12 11 11 11 10 9 7
0 4 4 4 4 1 2 3 3 2 2 3 2 3 2 2 2 3 2 3 5 9 10 10 10 13 14 9 5 8 5 6 7 9 9 10 9 10 13 12 11 10 9 8
1 1 2 3 2 3 1 1 3 3 3 3 3 3 2 3 4 2 2 3 5 8 10 10 11 14 15 14 12 8 5 3 5 6 7 8 10 11 9 10 9 11 10 9
3 2 4 0 1 2 2 2 3 4 5 6 5 4 2 3 3 3 3 3 5 6 9 10 10 11 11 11 12 10 7 4 4 4 4 5 7 9 10 11 11 11 10 10
4 5 4 4 5 4 2 4 2 3 4 5 5 5 3 3 3 3 4 4 4 5 7 9 9 9 9 9 9 9 7 5 3 2 0 3 5 6 8 9 10 12 12 12

GFSCGP_925_spd_111.txt.gz
Wind_Speed
2 1 6 9 9 13 11 15 14 14 12 16 18 17 11 9 4 5 9 13 14 18 8 7 30 32 28 26 29 31 30 29 34 34 32 28 27 30 28 28 27 28 26 24
2 7 8 6 9 10 12 16 16 15 6 13 16 14 4 11 4 4 9 13 10 19 7 6 16 23 25 30 27 26 27 26 27 27 25 21 22 27 29 25 24 25 24 23
4 6 8 7 11 10 14 10 11 7 11 8 11 5 10 8 11 9 13 9 13 20 6 4 11 23 21 16 14 25 23 24 31 30 29 22 24 18 24 26 25 24 23 24
5 5 5 10 11 10 6 8 12 11 4 3 2 4 5 11 6 2 7 9 14 17 7 4 7 16 23 21 22 26 24 27 26 26 29 30 29 21 23 25 29 26 24 21
6 4 7 10 5 2 3 6 2 2 4 2 3 4 1 8 5 9 12 11 15 13 9 6 7 9 16 23 34 30 19 18 34 18 27 26 18 22 25 21 20 20 20 21
7 3 4 4 10 2 7 4 1 2 2 3 2 2 3 2 6 12 8 7 10 4 8 5 7 11 11 16 21 26 25 32 31 42 20 22 17 16 20 22 21 18 16 24
3 3 3 6 5 1 2 3 2 2 3 3 4 6 3 4 8 5 10 6 7 5 4 6 6 5 8 15 21 28 33 32 27 25 36 30 24 21 28 27 18 16 21 24
1 3 5 3 1 2 3 1 1 2 2 2 2 4 3 6 10 7 3 2 8 4 6 6 6 9 14 16 21 23 24 25 24 24 26 14 23 17 26 24 22 25 28 25
5 4 3 2 3 2 0 3 3 2 2 3 3 5 5 12 9 8 5 7 9 6 7 7 7 9 6 10 15 18 20 20 22 21 20 23 30 33 33 28 28 23 22 21
3 4 1 1 1 1 4 1 2 3 3 5 3 4 6 14 13 12 7 8 7 8 9 7 6 9 6 7 12 11 17 21 23 23 25 27 27 23 19 21 22 21 20 21
2 2 6 3 6 6 4 3 3 3 2 3 3 3 5 7 8 8 7 8 3 9 9 7 7 10 6 8 11 13 16 19 18 17 18 20 21 23 22 23 23 23 21 20
1 3 1 2 5 2 2 1 1 2 1 2 3 4 6 7 6 7 8 7 7 8 5 5 7 6 5 6 10 12 14 16 17 17 19 21 22 22 23 24 22 20 20 19
4 3 3 7 4 2 5 4 2 2 1 6 4 2 5 5 7 8 9 8 8 7 5 5 5 6 5 4 7 10 12 15 17 19 21 22 22 23 23 22 21 20 20 17
1 3 2 2 2 2 5 7 5 4 4 1 3 4 6 8 8 10 9 8 6 5 8 7 6 4 4 3 5 9 10 13 16 18 19 21 20 19 20 20 19 17 15 15
3 3 2 3 1 2 4 5 9 7 0 4 3 5 3 5 6 6 5 8 10 11 11 9 8 6 7 6 8 9 10 11 14 17 19 19 19 20 19 18 16 16 16 17
3 1 2 3 4 6 7 8 8 6 5 6 5 6 3 4 4 9 9 9 9 10 10 9 8 8 7 4 7 9 11 12 14 16 16 17 20 20 19 19 19 16 15 15
3 2 3 2 2 1 6 5 4 3 4 1 4 1 4 7 7 7 8 7 7 7 7 8 8 8 6 4 6 8 11 12 14 18 20 21 21 20 18 18 18 18 16 15
3 2 2 1 3 4 4 3 2 5 4 5 3 4 3 4 3 4 4 5 7 8 9 8 8 10 5 1 6 11 12 13 13 15 15 16 18 20 19 19 18 17 16 15
3 1 3 3 3 1 2 4 3 2 4 4 3 5 5 3 4 3 4 3 3 5 8 12 15 14 5 2 6 9 10 11 12 15 18 19 19 19 18 17 16 15 14 12
3 3 3 2 4 2 0 3 3 1 3 5 4 5 5 5 3 3 6 6 7 9 10 15 15 7 3 2 6 7 9 8 7 8 10 12 14 16 17 18 18 16 15 13
2 2 2 1 2 3 2 3 3 3 3 2 2 2 2 3 2 2 5 5 8 9 14 14 11 9 5 5 8 7 6 6 8 10 11 12 13 13 14 15 14 14 13 12
4 3 2 2 3 2 1 2 2 3 2 2 4 3 3 4 4 2 2 4 8 10 14 16 16 15 11 5 4 6 5 3 5 8 10 11 11 13 14 13 13 14 15 14
0 4 3 4 3 1 1 2 1 2 1 2 2 3 2 3 3 3 2 3 6 9 12 12 12 14 15 11 4 5 3 3 6 8 10 11 11 11 13 15 14 14 13 11
1 3 2 2 1 1 1 1 1 1 2 2 1 2 1 1 3 2 2 3 5 8 10 10 13 14 16 15 13 10 6 3 1 2 5 7 9 10 10 10 10 13 15 14
4 4 4 0 0 2 2 1 1 3 4 4 3 2 3 4 2 2 3 3 5 6 9 10 11 11 12 11 13 11 9 5 2 2 3 5 7 10 12 13 13 13 12 12
5 6 4 5 7 4 4 5 1 3 2 3 4 2 3 1 5 4 4 4 5 5 5 7 8 8 8 9 10 10 9 7 4 2 2 0 3 8 6 8 10 11 12 13

GFSCGP_925_spd_114.txt.gz
Wind_Speed
2 6 11 13 13 16 14 17 22 22 20 13 15 18 15 9 9 11 13 8 7 10 13 14 16 31 30 37 42 36 41 41 33 30 29 25 23 21 20 19 19 19 18 17
5 13 16 8 12 16 19 20 23 23 23 17 15 19 17 13 12 12 13 12 11 12 13 9 15 27 30 40 38 36 32 32 33 30 29 28 23 20 20 20 21 20 20 19
11 11 9 14 14 17 19 19 21 21 8 14 12 12 14 8 9 11 12 10 11 11 12 9 12 24 29 29 29 31 28 29 31 29 28 22 21 16 17 19 18 19 20 20
10 5 8 13 17 14 19 7 14 16 10 5 16 6 11 10 10 14 13 12 8 10 7 6 13 23 35 31 37 30 26 28 31 27 27 28 27 22 22 21 19 23 22 20
4 9 9 14 11 4 6 6 11 13 9 5 12 3 4 12 9 10 7 6 3 8 8 7 14 22 32 35 18 20 26 26 24 26 27 26 22 22 20 19 19 20 21 18
18 8 6 4 12 13 11 7 5 4 2 5 3 2 3 1 2 3 4 3 3 7 8 10 16 13 25 25 29 15 15 19 21 22 25 28 24 20 20 20 22 19 20 20
5 5 4 4 7 5 3 6 2 2 3 5 5 9 7 8 2 3 3 11 10 11 8 8 14 13 24 28 29 30 21 14 16 17 14 20 18 10 10 14 20 18 15 13
5 1 5 1 1 4 3 5 4 4 4 3 5 5 4 10 9 3 4 8 10 11 7 5 13 17 20 25 29 29 29 30 24 16 22 28 18 9 14 9 11 8 6 10
5 2 0 3 3 3 3 3 4 2 1 2 4 4 6 17 16 11 9 5 6 7 10 8 14 16 18 20 22 24 23 21 25 26 19 19 6 23 13 9 15 18 16 19
3 5 1 1 3 2 2 3 0 1 3 4 4 6 9 19 16 14 10 3 8 7 7 12 14 15 14 18 23 22 23 26 30 29 23 28 26 32 28 15 24 23 20 19
4 3 6 1 6 5 4 2 2 1 3 3 3 5 10 10 11 14 8 7 9 12 13 13 13 16 14 14 15 20 18 21 25 29 30 27 27 27 29 32 32 28 26 27
3 3 3 3 4 5 4 7 4 3 4 5 6 5 10 11 15 12 11 8 8 10 12 9 12 15 15 13 13 14 16 19 20 27 29 26 26 28 28 28 28 27 30 31
3 3 2 3 1 1 5 13 5 2 2 5 3 5 7 12 16 15 15 11 7 10 13 14 12 11 13 13 11 9 10 12 16 22 28 29 27 28 28 30 30 29 27 26
3 4 6 5 4 4 6 17 10 1 7 13 10 12 13 14 15 15 14 13 13 13 12 13 12 10 12 9 10 8 9 10 13 18 22 25 27 27 26 26 25 24 24 24
3 4 5 6 3 3 9 13 16 8 5 9 10 14 11 11 12 12 12 13 14 13 13 12 11 10 11 8 9 11 8 10 12 15 17 19 22 24 23 22 21 22 22 22
3 2 2 6 9 10 14 16 12 13 13 14 14 13 7 7 8 12 13 12 12 12 12 11 10 11 10 8 9 9 9 9 11 12 15 19 22 22 22 21 20 19 19 20
3 1 1 2 4 5 7 12 10 9 10 6 10 6 6 9 11 12 11 11 11 11 10 9 9 9 9 7 7 9 8 9 10 11 13 14 18 21 21 22 22 22 21 19
3 1 1 2 2 3 3 4 2 12 10 9 8 6 6 6 6 10 11 11 11 11 10 10 10 9 6 6 7 8 8 8 11 12 11 11 13 14 17 19 19 20 22 23
4 2 2 1 4 3 3 3 2 4 7 8 6 5 5 3 1 9 11 11 10 10 10 11 10 7 5 3 5 8 8 8 7 8 11 13 15 15 14 17 18 17 19 19
1 2 2 1 2 2 2 1 3 3 3 6 5 7 7 2 3 6 9 9 10 11 11 13 12 8 5 4 3 4 5 7 7 7 8 9 12 13 14 16 17 17 15 15
1 2 3 3 3 2 1 1 3 1 4 4 5 6 6 5 5 4 6 9 10 10 14 13 11 11 8 4 4 5 4 2 2 6 10 11 11 11 12 15 16 17 16 16
1 1 1 1 1 2 1 3 2 4 4 4 4 4 4 5 3 3 5 7 10 12 14 15 13 13 12 8 4 6 7 2 3 3 4 6 8 10 11 13 13 12 12 11
2 1 1 2 2 2 1 2 3 2 4 2 2 2 3 3 2 2 3 5 7 10 12 13 13 14 15 15 11 9 8 4 4 5 7 7 6 8 9 9 9 8 9 9
3 2 1 3 3 2 1 3 3 2 4 3 3 2 1 3 4 4 2 4 7 9 9 8 9 12 14 16 17 14 11 7 4 3 4 5 6 7 7 8 10 11 12 11
1 7 5 1 2 3 4 2 3 4 4 3 2 2 2 2 2 3 4 4 4 4 5 7 8 9 10 11 12 14 12 9 7 3 3 2 2 4 6 8 9 11 9 10
6 5 5 4 9 2 7 9 6 5 4 3 2 1 1 1 3 3 4 4 3 3 3 5 6 6 7 8 9 11 11 9 7 5 4 3 3 4 6 7 8 9 10 12

GFSCGP_925_spd_117.txt.gz
Wind_Speed
8 7 11 18 16 19 16 19 23 23 22 22 22 19 20 22 14 17 17 15 17 14 12 11 9 6 7 14 18 23 39 39 33 34 28 28 26 25 25 24 25 27 25 23
7 14 17 14 16 15 18 21 26 25 22 19 22 25 15 17 16 15 14 14 16 14 15 12 6 4 17 14 18 17 33 36 34 33 28 31 27 25 26 24 25 26 24 23
14 15 9 13 14 17 19 20 25 24 24 21 23 24 19 18 20 14 11 12 15 16 16 12 7 5 24 17 23 32 27 35 33 33 27 25 24 22 24 23 23 24 22 23
12 10 9 11 16 14 20 20 25 24 17 13 13 5 16 16 12 13 15 12 14 16 14 11 7 8 20 26 24 34 38 31 35 33 29 28 25 23 21 21 21 22 22 23
6 7 11 15 18 8 11 13 11 13 10 8 12 6 2 14 9 10 9 12 11 12 12 9 9 13 24 20 23 26 39 44 37 37 32 31 24 22 23 22 22 20 22 22
18 18 13 12 14 14 15 10 14 7 4 5 8 10 3 1 9 8 5 5 0 3 7 10 13 14 19 22 15 11 24 29 35 34 32 29 25 24 25 23 22 20 21 20
8 8 6 2 8 6 6 11 3 5 6 1 0 6 5 7 5 5 9 9 7 3 1 7 11 11 20 22 19 18 3 17 22 22 25 22 21 23 22 25 24 24 21 23
5 2 4 2 3 5 8 6 4 5 3 4 9 5 6 9 3 14 10 7 7 12 10 5 8 7 24 25 25 17 19 12 12 15 16 22 19 18 16 14 24 22 21 19
5 3 3 3 3 2 7 5 9 6 2 2 3 1 5 16 15 15 11 8 13 14 13 9 7 8 24 25 30 30 25 25 21 15 11 11 11 4 10 12 12 23 20 16
4 5 2 2 4 8 4 9 3 1 6 4 5 6 7 14 15 13 14 13 14 15 14 12 3 13 23 24 27 24 23 22 20 22 23 22 17 22 25 24 20 13 14 10
4 4 7 4 4 4 4 3 5 4 3 4 3 5 9 13 11 12 12 12 14 14 13 10 7 15 21 19 21 21 17 16 27 26 29 27 25 24 18 21 30 26 16 16
3 4 4 4 3 5 7 9 4 4 5 6 6 6 11 15 15 14 15 15 13 12 13 12 10 15 19 16 16 13 10 14 20 20 24 20 21 22 25 25 29 26 26 25
9 5 3 5 4 5 5 14 3 3 2 13 5 4 13 17 19 16 10 13 13 13 12 13 12 13 17 16 18 16 14 15 17 19 18 20 22 20 19 22 25 27 25 25
5 5 5 6 5 5 7 14 12 3 8 12 13 14 17 17 17 15 13 15 14 14 14 14 13 12 15 16 15 14 14 14 13 18 21 18 21 23 23 21 22 23 27 28
3 3 5 7 7 12 12 16 18 13 14 9 14 17 13 13 14 15 14 14 15 17 16 15 14 11 14 15 14 14 12 11 11 12 15 16 17 19 22 25 26 25 23 23
3 2 4 6 8 12 15 17 15 14 15 15 16 15 10 12 12 14 14 14 15 15 14 13 12 12 13 15 14 11 12 10 10 11 12 16 16 17 19 22 22 21 22 22
4 2 2 3 2 5 5 12 9 13 13 10 10 9 10 12 14 14 14 14 14 13 13 12 12 11 10 10 10 10 11 10 11 11 11 11 12 16 18 18 19 18 19 20
4 2 2 2 4 2 3 5 8 12 12 11 10 10 9 10 13 14 13 13 13 12 12 11 11 9 8 10 10 8 9 10 10 9 10 10 11 11 13 16 16 18 18 17
2 3 0 2 5 4 3 2 3 5 8 10 10 9 8 3 6 16 14 13 12 12 12 12 11 10 11 11 9 9 8 7 8 8 8 8 9 12 11 13 14 14 16 17
3 3 3 1 2 1 4 4 4 5 2 7 8 9 9 8 7 7 11 13 13 15 15 15 14 13 13 11 8 7 7 7 6 5 7 8 9 9 10 12 12 13 14 15
1 1 1 3 2 4 4 2 3 3 4 4 5 7 10 9 6 5 7 9 12 14 15 14 14 14 13 10 9 10 9 10 6 4 3 5 7 8 10 12 11 13 12 13
2 2 1 1 0 4 1 3 4 5 5 5 5 6 7 7 6 6 7 8 10 13 14 14 15 15 14 14 11 12 13 8 5 5 5 4 4 5 6 8 9 11 11 12
1 3 3 4 3 3 3 5 4 2 5 4 4 4 4 3 4 5 5 7 8 10 12 11 12 14 15 16 14 14 14 12 9 6 6 3 2 2 3 5 6 7 9 10
3 2 1 3 4 5 5 4 4 3 5 4 4 3 1 3 3 3 4 5 7 10 10 9 11 13 13 12 14 14 12 10 9 8 8 5 2 1 2 4 6 9 11 12
2 6 5 2 4 4 5 4 5 5 4 3 3 3 3 1 1 1 2 3 4 4 5 7 8 10 10 10 12 11 10 10 9 7 5 5 7 5 3 5 7 7 7 9
7 6 5 2 9 5 10 10 8 6 4 3 1 1 2 3 1 0 2 1 2 4 4 5 5 6 7 8 9 10 11 10 7 4 4 3 1 5 5 7 10 10 13 14